[[{"header":{"parameterUnit":"m.s-1","parameterCategory":1,"la1":31.0,"la2":29.5877,"lo1":-88.7671,"lo2":-86.6584,"dy":0.0162,"dx":0.0185,"nx":115,"ny":88,"refTime":"2023-06-30T06:00:00:Z","depth":0,"parameterNumber":2,"parameterNumberName":"U-component_of_WINDS"},"data":[0.0,0.0,0.0,0.0,0.0,0.0,0.0,0.0,0.0,0.0,0.0,0.0,0.0,0.0,0.0,0.0,0.0,0.0,0.0,0.0,0.0,0.0,0.0,0.0,0.0,0.0,0.0,0.0,0.0,0.0,0.0,0.0,0.0,0.0,0.0,0.0,0.0,0.0,0.0,0.0,0.0,0.0,0.0,0.0,0.0,0.0,0.0,0.0,0.0,0.0,0.0,0.0,0.0,0.0,0.0,0.0,0.0,0.0,0.0,0.0,0.0,0.0,0.0,0.0,0.0,0.0,0.0,0.0,0.0,0.0,0.0,0.0,0.0,0.0,0.0,0.0,0.0,0.0,0.0,0.0,0.0,0.0,0.0,0.0,0.0,0.0,0.0,0.0,0.0,0.0,0.0,0.0,0.0,0.0,0.0,0.0,0.0,0.0,0.0,0.0,0.0,0.0,0.0,0.0,0.0,0.0,0.0,0.0,0.0,0.0,0.0,0.0,0.0,0.0,0.0,0.0,0.0,0.0,0.0,0.0,0.0,0.0,0.0,0.0,0.0,0.0,0.0,0.0,0.0,0.0,0.0,0.0,0.0,0.0,0.0,0.0,0.0,0.0,0.0,0.0,0.0,0.0,0.0,0.0,0.0,0.0,0.0,0.0,0.0,0.0,0.0,0.0,0.0,0.0,0.0,0.0,0.0,0.0,0.0,0.0,0.0,0.0,0.0,0.0,0.0,0.0,0.0,0.0,0.0,0.0,0.0,0.0,0.0,0.0,0.0,0.0,0.0,0.0,0.0,0.0,0.0,0.0,0.0,0.0,0.0,0.0,0.0,0.0,0.0,0.0,0.0,0.0,0.0,0.0,0.0,0.0,0.0,0.0,0.0,0.0,0.0,0.0,0.0,0.0,0.0,0.0,0.0,0.0,0.0,0.0,0.0,0.0,0.0,0.0,0.0,0.0,0.0,0.0,0.0,0.0,0.0,0.0,0.0,0.0,0.0,0.0,0.0,0.0,0.0,0.0,0.0,0.0,0.0,0.0,0.0,0.0,0.0,0.0,0.0,0.0,0.0,0.0,0.0,0.0,0.0,0.0,0.0,0.0,0.0,0.0,0.0,0.0,0.0,0.0,0.0,0.0,0.0,0.0,0.0,0.0,0.0,0.0,0.0,0.0,0.0,0.0,0.0,0.0,0.0,0.0,0.0,0.0,0.0,0.0,0.0,0.0,0.0,0.0,0.0,0.0,0.0,0.0,0.0,0.0,0.0,0.0,0.0,0.0,0.0,0.0,0.0,0.0,0.0,0.0,0.0,0.0,0.0,0.0,0.0,0.0,0.0,0.0,0.0,0.0,0.0,0.0,0.0,0.0,0.0,0.0,0.0,0.0,0.0,0.0,0.0,0.0,0.0,0.0,0.0,0.0,0.0,0.0,0.0,0.0,0.0,0.0,0.0,0.0,0.0,0.0,0.0,0.0,0.0,0.0,0.0,0.0,0.0,0.0,0.0,0.0,0.0,0.0,0.0,0.0,0.0,0.0,0.0,0.0,0.0,0.0,0.0,0.0,0.0,0.0,0.0,0.0,0.0,0.0,0.0,0.0,0.0,0.0,0.0,0.0,0.0,0.0,0.0,0.0,0.0,0.0,0.0,0.0,0.0,0.0,0.0,0.0,0.0,0.0,0.0,0.0,0.0,0.0,0.0,0.0,0.0,0.0,0.0,0.0,0.0,0.0,0.0,0.0,0.0,0.0,0.0,0.0,0.0,0.0,0.0,0.0,0.0,0.0,0.0,0.0,0.0,0.0,0.0,0.0,0.0,0.0,0.0,0.0,0.0,0.0,0.0,0.0,0.0,0.0,0.0,0.0,0.0,0.0,0.0,0.0,0.0,0.0,0.0,0.0,0.0,0.0,0.0,0.0,0.0,0.0,0.0,0.0,0.0,0.0,0.0,0.0,0.0,0.0,0.0,0.0,0.0,0.0,0.0,0.0,0.0,0.0,0.0,0.0,0.0,0.0,0.0,0.0,0.0,0.0,0.0,0.0,0.0,0.0,0.0,0.0,0.0,0.0,0.0,0.0,0.0,0.0,0.0,0.0,0.0,0.0,0.0,0.0,0.0,0.0,0.0,0.0,0.0,0.0,0.0,0.0,0.0,0.0,0.0,0.0,0.0,0.0,0.0,0.0,0.0,0.0,0.0,0.0,0.0,0.0,0.0,0.0,0.0,0.0,0.0,0.0,0.0,0.0,0.0,0.0,0.0,0.0,0.0,0.0,0.0,0.0,0.0,0.0,0.0,0.0,0.0,0.0,0.0,0.0,0.0,0.0,0.0,0.0,0.0,0.0,0.0,0.0,0.0,0.0,0.0,0.0,0.0,0.0,0.0,0.0,0.0,0.0,0.0,0.0,0.0,0.0,0.0,0.0,0.0,0.0,0.0,0.0,0.0,0.0,0.0,0.0,0.0,0.0,0.0,0.0,0.0,0.0,0.0,0.0,0.0,0.0,0.0,0.0,0.0,0.0,0.0,0.0,0.0,0.0,0.0,0.0,0.0,0.0,0.0,0.0,0.0,0.0,0.0,0.0,0.0,0.0,0.0,0.0,0.0,0.0,0.0,0.0,0.0,0.0,0.0,0.0,0.0,0.0,0.0,0.0,0.0,0.0,0.0,0.0,0.0,0.0,0.0,0.0,0.0,0.0,0.0,0.0,0.0,0.0,0.0,0.0,0.0,0.0,0.0,0.0,0.0,0.0,0.0,0.0,0.0,0.0,0.0,0.0,0.0,0.0,0.0,0.0,0.0,0.0,0.0,0.0,0.0,0.0,0.0,0.0,0.0,0.0,0.0,0.0,0.0,0.0,0.0,0.0,0.0,0.0,0.0,0.0,0.0,0.0,0.0,0.0,0.0,0.0,0.0,0.0,0.0,0.0,0.0,0.0,0.0,0.0,0.0,0.0,0.0,0.0,0.0,0.0,0.0,0.0,0.0,0.0,0.0,0.0,0.0,0.0,0.0,0.0,0.0,0.0,0.0,0.0,0.0,0.0,0.0,0.0,0.0,0.0,0.0,0.0,0.0,0.0,0.0,0.0,0.0,0.0,0.0,0.0,0.0,0.0,0.0,0.0,0.0,0.0,0.0,0.0,0.0,0.0,0.0,0.0,0.0,0.0,0.0,0.0,0.0,0.0,0.0,0.0,0.0,0.0,0.0,0.0,0.0,0.0,0.0,0.0,0.0,0.0,0.0,0.0,0.0,0.0,0.0,0.0,0.0,0.0,0.0,0.0,0.0,0.0,0.0,0.0,0.0,0.0,0.0,0.0,0.0,0.0,0.0,0.0,0.0,0.0,0.0,0.0,0.0,0.0,0.0,0.0,0.0,0.0,0.0,0.0,0.0,0.0,0.0,0.0,0.0,0.0,0.0,0.0,0.0,0.0,0.0,0.0,0.0,0.0,0.0,0.0,0.0,0.0,0.0,0.0,0.0,0.0,0.0,0.0,0.0,0.0,0.0,0.0,0.0,0.0,0.0,0.0,0.0,0.0,0.0,0.0,0.0,0.0,0.0,0.0,0.0,0.0,0.0,0.0,0.0,0.0,0.0,0.0,0.0,0.0,0.0,0.0,0.0,0.0,0.0,0.0,0.0,0.0,0.0,0.0,0.0,0.0,0.0,0.0,0.0,0.0,0.0,0.0,0.0,0.0,0.0,0.0,0.0,0.0,0.0,0.0,0.0,0.0,0.0,0.0,0.0,0.0,0.0,0.0,0.0,0.0,0.0,0.0,0.0,0.0,0.0,0.0,0.0,0.0,0.0,0.0,0.0,0.0,0.0,0.0,0.0,0.0,0.0,0.0,0.0,0.0,0.0,0.0,0.0,0.0,0.0,0.0,0.0,0.0,0.0,0.0,0.0,0.0,0.0,0.0,0.0,0.0,0.0,0.0,0.0,0.0,0.0,0.0,0.0,0.0,0.0,0.0,0.0,0.0,0.0,0.0,0.0,0.0,0.0,0.0,0.0,0.0,0.0,0.0,0.0,0.0,0.0,0.0,0.0,0.0,0.0,0.0,0.0,0.0,0.0,0.0,0.0,0.0,0.0,0.0,0.0,0.0,0.0,0.0,0.0,0.0,0.0,0.0,0.0,0.0,0.0,0.0,0.0,0.0,0.0,0.0,0.0,0.0,0.0,0.0,0.0,0.0,0.0,0.0,0.0,0.0,0.0,0.0,0.0,0.0,0.0,0.0,0.0,0.0,0.0,0.0,0.0,0.0,0.0,0.0,0.0,0.0,-0.8919,0.0,0.0,0.0,0.0,0.0,0.0,0.0,0.0,0.0,0.0,0.0,0.0,0.0,0.0,0.0,0.0,0.0,0.0,0.0,0.0,0.0,0.0,0.0,0.0,0.0,0.0,0.0,0.0,0.0,0.0,0.0,0.0,0.0,0.0,0.0,0.0,0.0,0.0,0.0,0.0,0.0,0.0,0.0,0.0,0.0,0.0,0.0,0.0,0.0,0.0,0.0,0.0,0.0,0.0,0.0,0.0,0.0,0.0,0.0,0.0,0.0,0.0,0.0,0.0,0.0,0.0,0.0,0.0,0.0,0.0,0.0,0.0,0.0,0.0,0.0,0.0,0.0,0.0,0.0,0.0,0.0,0.0,0.0,0.0,0.0,0.0,0.0,0.0,0.0,0.0,0.0,0.0,0.0,0.0,0.0,0.0,0.0,0.0,0.0,0.0,0.0,0.0,0.0,0.0,0.0,0.0,0.0,0.0,0.0,0.0,-0.8919,-0.8919,-0.8919,-0.8919,-0.8919,0.0,0.0,0.0,0.0,0.0,0.0,0.0,0.0,0.0,0.0,0.0,0.0,0.0,0.0,0.0,0.0,0.0,0.0,0.0,0.0,0.0,0.0,0.0,0.0,0.0,0.0,0.0,0.0,0.0,0.0,0.0,0.0,0.0,0.0,0.0,0.0,0.0,0.0,0.0,0.0,0.0,0.0,0.0,0.0,0.0,0.0,0.0,0.0,0.0,0.0,0.0,0.0,0.0,0.0,0.0,0.0,0.0,0.0,0.0,0.0,0.0,0.0,0.0,0.0,0.0,0.0,0.0,0.0,0.0,0.0,0.0,0.0,0.0,0.0,0.0,0.0,0.0,0.0,0.0,0.0,0.0,0.0,0.0,0.0,0.0,0.0,0.0,0.0,0.0,0.0,0.0,0.0,0.0,0.0,0.0,0.0,0.0,0.0,0.0,0.0,0.0,0.0,0.0,0.0,0.0,0.0,0.0,0.0,0.0,0.0,0.0,0.0,-0.8914,-0.888,-0.8875,0.0,0.0,0.0,0.0,0.0,0.0,0.0,0.0,0.0,0.0,0.0,0.0,0.0,0.0,0.0,0.0,0.0,0.0,0.0,0.0,0.0,0.0,0.0,0.0,0.0,0.0,0.0,0.0,0.0,0.0,0.0,0.0,0.0,0.0,0.0,0.0,0.0,0.0,0.0,0.0,0.0,0.0,0.0,0.0,0.0,0.0,0.0,0.0,0.0,0.0,0.0,0.0,0.0,0.0,0.0,0.0,0.0,0.0,0.0,0.0,0.0,0.0,0.0,0.0,0.0,0.0,0.0,0.0,0.0,0.0,0.0,0.0,0.0,0.0,0.0,0.0,0.0,0.0,0.0,0.0,0.0,0.0,0.0,0.0,0.0,0.0,0.0,0.0,0.0,0.0,0.0,0.0,0.0,0.0,0.0,0.0,0.0,0.0,0.0,0.0,0.0,0.0,0.0,0.0,0.0,0.0,0.0,0.0,0.0,0.0,-0.8903,-0.8914,-0.8908,0.0,-0.8818,0.0,0.0,0.0,0.0,0.0,0.0,0.0,0.0,0.0,0.0,0.0,0.0,0.0,0.0,0.0,0.0,0.0,0.0,0.0,0.0,0.0,0.0,0.0,0.0,0.0,0.0,0.0,0.0,0.0,0.0,0.0,0.0,0.0,0.0,0.0,0.0,0.0,0.0,0.0,0.0,0.0,0.0,0.0,0.0,0.0,0.0,0.0,0.0,0.0,0.0,0.0,0.0,0.0,0.0,0.0,0.0,0.0,0.0,0.0,0.0,0.0,0.0,0.0,0.0,0.0,0.0,0.0,0.0,0.0,0.0,0.0,0.0,0.0,0.0,0.0,0.0,0.0,0.0,0.0,0.0,0.0,0.0,0.0,0.0,0.0,0.0,0.0,0.0,0.0,0.0,0.0,0.0,0.0,0.0,0.0,0.0,0.0,0.0,0.0,0.0,0.0,0.0,0.0,0.0,0.0,0.0,0.0,0.0,0.0,0.0,-0.956,-0.9551,-0.9133,-0.8874,0.0,0.0,0.0,0.0,0.0,0.0,0.0,0.0,0.0,0.0,0.0,0.0,0.0,0.0,0.0,0.0,0.0,0.0,0.0,0.0,0.0,0.0,0.0,0.0,0.0,0.0,0.0,0.0,0.0,0.0,0.0,0.0,0.0,0.0,0.0,0.0,0.0,0.0,0.0,0.0,0.0,0.0,0.0,0.0,0.0,0.0,0.0,0.0,0.0,0.0,0.0,0.0,0.0,0.0,0.0,0.0,0.0,0.0,0.0,0.0,0.0,0.0,0.0,0.0,0.0,0.0,0.0,0.0,0.0,0.0,0.0,0.0,0.0,0.0,0.0,0.0,0.0,0.0,0.0,0.0,0.0,0.0,0.0,0.0,0.0,0.0,0.0,0.0,0.0,0.0,0.0,0.0,0.0,0.0,0.0,0.0,0.0,0.0,0.0,0.0,0.0,0.0,0.0,0.0,0.0,0.0,0.0,0.0,0.0,0.0,-1.0273,-1.0175,-0.9942,-0.9268,-0.8851,-0.8769,0.0,0.0,0.0,0.0,0.0,0.0,0.0,0.0,0.0,0.0,0.0,0.0,0.0,0.0,0.0,0.0,0.0,0.0,0.0,0.0,0.0,0.0,0.0,0.0,0.0,0.0,0.0,0.0,0.0,0.0,0.0,0.0,0.0,0.0,0.0,0.0,0.0,0.0,0.0,0.0,0.0,0.0,0.0,0.0,0.0,0.0,0.0,0.0,0.0,0.0,0.0,0.0,0.0,0.0,0.0,0.0,0.0,0.0,0.0,0.0,0.0,0.0,0.0,0.0,0.0,0.0,0.0,0.0,0.0,0.0,0.0,0.0,0.0,0.0,0.0,0.0,0.0,0.0,0.0,0.0,0.0,0.0,0.0,0.0,0.0,0.0,0.0,0.0,0.0,0.0,0.0,0.0,0.0,0.0,0.0,0.0,0.0,0.0,0.0,0.0,0.0,0.0,0.0,0.0,0.0,0.0,0.0,0.0,-1.0867,-1.0927,-1.0628,-0.992,-0.9203,-0.8788,0.0,0.0,0.0,0.0,0.0,0.0,0.0,0.0,0.0,0.0,0.0,0.0,0.0,0.0,0.0,0.0,0.0,0.0,0.0,0.0,0.0,0.0,0.0,0.0,0.0,0.0,0.0,0.0,0.0,0.0,0.0,0.0,0.0,0.0,0.0,0.0,0.0,0.0,0.0,0.0,0.0,0.0,0.0,0.0,0.0,0.0,0.0,0.0,0.0,0.0,0.0,0.0,0.0,0.0,0.0,0.0,0.0,0.0,0.0,0.0,0.0,0.0,0.0,0.0,0.0,0.0,0.0,0.0,0.0,0.0,0.0,0.0,0.0,0.0,0.0,0.0,0.0,0.0,0.0,0.0,0.0,0.0,0.0,0.0,0.0,0.0,0.0,0.0,0.0,0.0,0.0,0.0,0.0,0.0,0.0,0.0,0.0,0.0,0.0,0.0,0.0,0.0,0.0,0.0,0.0,0.0,0.0,0.0,0.0,-1.1666,-1.1791,-1.1239,-1.0017,-0.9662,-0.9261,0.0,0.0,0.0,0.0,0.0,0.0,0.0,0.0,0.0,0.0,0.0,0.0,0.0,0.0,0.0,0.0,0.0,0.0,0.0,0.0,0.0,0.0,0.0,0.0,0.0,0.0,0.0,0.0,0.0,0.0,0.0,0.0,0.0,0.0,0.0,0.0,0.0,0.0,0.0,0.0,0.0,0.0,0.0,0.0,0.0,0.0,0.0,0.0,0.0,0.0,0.0,0.0,0.0,0.0,0.0,0.0,0.0,0.0,0.0,0.0,0.0,0.0,0.0,0.0,0.0,0.0,0.0,0.0,0.0,0.0,0.0,0.0,0.0,0.0,0.0,0.0,0.0,0.0,0.0,0.0,0.0,0.0,0.0,0.0,0.0,0.0,0.0,0.0,0.0,0.0,0.0,0.0,0.0,0.0,0.0,0.0,0.0,0.0,0.0,0.0,0.0,0.0,0.0,0.0,0.0,0.0,0.0,0.0,0.0,-1.2423,0.0,-1.1673,-1.0417,-1.0061,-0.9511,0.0,0.0,0.0,0.0,0.0,0.0,0.0,0.0,0.0,0.0,0.0,0.0,0.0,0.0,0.0,0.0,0.0,0.0,0.0,0.0,0.0,0.0,0.0,0.0,0.0,0.0,0.0,0.0,0.0,0.0,0.0,0.0,0.0,0.0,0.0,0.0,0.0,0.0,0.0,0.0,0.0,0.0,0.0,0.0,0.0,0.0,0.0,0.0,0.0,0.0,0.0,0.0,0.0,0.0,0.0,0.0,0.0,0.0,0.0,0.0,0.0,0.0,0.0,0.0,0.0,0.0,0.0,0.0,0.0,0.0,0.0,0.0,0.0,0.0,0.0,0.0,0.0,0.0,0.0,0.0,0.0,0.0,0.0,0.0,0.0,0.0,0.0,0.0,0.0,0.0,0.0,0.0,0.0,0.0,0.0,0.0,0.0,0.0,0.0,0.0,0.0,0.0,0.0,0.0,0.0,0.0,0.0,0.0,-1.2959,-1.3159,-1.2655,-1.2011,-1.1152,-1.0404,-0.9584,0.0,0.0,0.0,0.0,0.0,0.0,0.0,0.0,0.0,0.0,0.0,0.0,0.0,0.0,0.0,0.0,0.0,0.0,0.0,0.0,0.0,0.0,0.0,0.0,0.0,0.0,0.0,0.0,0.0,0.0,0.0,0.0,0.0,0.0,0.0,0.0,0.0,0.0,0.0,0.0,0.0,0.0,0.0,0.0,0.0,0.0,0.0,0.0,0.0,0.0,0.0,0.0,0.0,0.0,0.0,0.0,0.0,0.0,0.0,0.0,0.0,0.0,0.0,0.0,0.0,0.0,0.0,0.0,0.0,0.0,0.0,0.0,0.0,0.0,0.0,0.0,0.0,0.0,0.0,0.0,0.0,0.0,0.0,0.0,0.0,0.0,0.0,0.0,0.0,0.0,0.0,0.0,0.0,0.0,0.0,0.0,0.0,0.0,0.0,0.0,0.0,0.0,0.0,0.0,0.0,0.0,0.0,0.0,0.0,-1.3979,-1.3868,-1.3464,-1.2695,-1.1889,-1.0841,0.0,0.0,0.0,0.0,0.0,0.0,0.0,0.0,0.0,0.0,0.0,0.0,0.0,0.0,0.0,0.0,0.0,0.0,0.0,0.0,0.0,0.0,0.0,0.0,0.0,0.0,0.0,0.0,0.0,0.0,0.0,0.0,0.0,0.0,0.0,0.0,0.0,0.0,0.0,0.0,0.0,0.0,0.0,0.0,0.0,0.0,0.0,0.0,0.0,0.0,0.0,0.0,0.0,0.0,0.0,0.0,0.0,0.0,0.0,0.0,0.0,0.0,0.0,0.0,0.0,0.0,0.0,0.0,0.0,0.0,0.0,0.0,0.0,0.0,0.0,0.0,0.0,0.0,0.0,0.0,0.0,0.0,0.0,0.0,0.0,0.0,0.0,0.0,0.0,0.0,0.0,0.0,0.0,0.0,0.0,0.0,0.0,0.0,0.0,0.0,0.0,0.0,0.0,0.0,0.0,0.0,0.0,0.0,0.0,-1.7132,-1.6772,-1.6049,-1.5025,-1.4228,-1.2657,-1.0274,0.0,0.0,0.0,0.0,0.0,0.0,0.0,0.0,0.0,0.0,0.0,0.0,0.0,0.0,0.0,0.0,0.0,0.0,0.0,0.0,0.0,0.0,0.0,0.0,0.0,0.0,0.0,0.0,0.0,0.0,0.0,0.0,0.0,0.0,0.0,0.0,0.0,0.0,0.0,0.0,0.0,0.0,0.0,0.0,0.0,0.0,0.0,0.0,0.0,0.0,0.0,0.0,0.0,0.0,0.0,0.0,0.0,0.0,0.0,0.0,0.0,0.0,0.0,0.0,0.0,0.0,0.0,0.0,0.0,0.0,0.0,0.0,0.0,0.0,0.0,0.0,0.0,0.0,0.0,0.0,0.0,0.0,0.0,0.0,0.0,0.0,0.0,0.0,0.0,0.0,0.0,0.0,0.0,0.0,0.0,0.0,0.0,0.0,0.0,0.0,0.0,0.0,0.0,0.0,0.0,0.0,0.0,0.0,-2.2189,-2.118,-1.9837,-1.8165,-1.7171,-1.4901,0.0,0.0,0.0,0.0,0.0,0.0,0.0,0.0,0.0,0.0,0.0,0.0,0.0,0.0,0.0,0.0,0.0,0.0,0.0,0.0,0.0,0.0,0.0,0.0,0.0,0.0,0.0,0.0,0.0,0.0,0.0,0.0,0.0,0.0,0.0,0.0,0.0,0.0,0.0,0.0,0.0,0.0,0.0,0.0,0.0,0.0,0.0,0.0,0.0,0.0,0.0,0.0,0.0,0.0,0.0,0.0,0.0,0.0,0.0,0.0,0.0,0.0,0.0,0.0,0.0,0.0,0.0,0.0,0.0,0.0,0.0,0.0,0.0,0.0,0.0,0.0,0.0,0.0,0.0,0.0,0.0,0.0,0.0,0.0,0.0,0.0,0.0,0.0,0.0,0.0,0.0,0.0,0.0,0.0,0.0,0.0,0.0,0.0,0.0,0.0,0.0,0.0,0.0,0.0,0.0,0.0,0.0,0.0,0.0,-2.5063,-2.7141,-2.6437,-2.284,-2.0203,-1.7351,0.0,0.0,0.0,0.0,0.0,0.0,0.0,0.0,0.0,0.0,0.0,0.0,0.0,0.0,0.0,0.0,0.0,0.0,0.0,0.0,0.0,0.0,0.0,0.0,0.0,0.0,0.0,0.0,0.0,0.0,0.0,0.0,0.0,0.0,0.0,0.0,0.0,0.0,0.0,0.0,0.0,0.0,0.0,0.0,0.0,0.0,0.0,0.0,0.0,0.0,0.0,0.0,0.0,0.0,0.0,0.0,0.0,0.0,0.0,0.0,0.0,0.0,0.0,0.0,0.0,0.0,0.0,0.0,0.0,0.0,0.0,0.0,0.0,0.0,0.0,0.0,0.0,0.0,0.0,0.0,0.0,0.0,0.0,0.0,0.0,0.0,0.0,0.0,0.0,0.0,0.0,0.0,0.0,0.0,0.0,0.0,0.0,0.0,0.0,0.0,0.0,0.0,0.0,0.0,0.0,0.0,0.0,0.0,-2.326,-2.7518,-3.0549,-3.1034,-2.8784,-2.4033,-1.9637,0.0,0.0,0.0,0.0,0.0,0.0,0.0,0.0,0.0,0.0,0.0,0.0,0.0,0.0,0.0,0.0,0.0,0.0,0.0,0.0,0.0,0.0,0.0,0.0,0.0,0.0,0.0,0.0,0.0,0.0,0.0,0.0,0.0,0.0,0.0,0.0,0.0,0.0,0.0,0.0,0.0,0.0,0.0,0.0,0.0,0.0,0.0,0.0,0.0,0.0,0.0,0.0,0.0,0.0,0.0,0.0,0.0,0.0,0.0,0.0,0.0,0.0,0.0,0.0,0.0,0.0,0.0,0.0,0.0,0.0,0.0,0.0,0.0,0.0,0.0,0.0,0.0,0.0,0.0,0.0,0.0,0.0,0.0,0.0,0.0,0.0,0.0,0.0,0.0,0.0,0.0,0.0,0.0,0.0,0.0,0.0,0.0,0.0,0.0,0.0,0.0,0.0,0.0,0.0,0.0,0.0,0.0,0.0,-2.4473,-2.9461,-3.2152,-3.3838,-3.4292,-2.7816,-2.1895,0.0,0.0,0.0,0.0,0.0,0.0,0.0,0.0,0.0,0.0,0.0,0.0,0.0,0.0,0.0,0.0,0.0,0.0,0.0,0.0,0.0,0.0,0.0,0.0,0.0,0.0,0.0,0.0,0.0,0.0,0.0,0.0,0.0,0.0,0.0,0.0,0.0,0.0,0.0,0.0,0.0,0.0,0.0,0.0,0.0,0.0,0.0,0.0,0.0,0.0,0.0,0.0,0.0,0.0,0.0,0.0,0.0,0.0,0.0,0.0,0.0,0.0,0.0,0.0,0.0,0.0,0.0,0.0,0.0,0.0,0.0,0.0,0.0,0.0,0.0,0.0,0.0,0.0,0.0,0.0,0.0,0.0,0.0,0.0,0.0,0.0,0.0,0.0,0.0,0.0,0.0,0.0,0.0,0.0,0.0,0.0,0.0,0.0,0.0,0.0,0.0,0.0,0.0,0.0,0.0,0.0,0.0,0.0,-2.5729,-3.0521,-3.2494,-3.3635,-3.3864,-2.8926,-2.4209,0.0,0.0,0.0,0.0,0.0,0.0,0.0,0.0,0.0,0.0,0.0,0.0,0.0,0.0,0.0,0.0,0.0,0.0,0.0,0.0,0.0,0.0,0.0,0.0,0.0,0.0,0.0,0.0,0.0,0.0,0.0,0.0,0.0,0.0,0.0,0.0,0.0,0.0,0.0,0.0,0.0,0.0,0.0,0.0,0.0,0.0,0.0,0.0,-1.1148,0.0,0.0,0.0,0.0,0.0,0.0,0.0,0.0,0.0,0.0,0.0,0.0,0.0,0.0,0.0,0.0,0.0,0.0,0.0,0.0,0.0,0.0,0.0,0.0,0.0,0.0,0.0,0.0,0.0,0.0,0.0,0.0,0.0,0.0,0.0,0.0,0.0,0.0,0.0,0.0,0.0,0.0,0.0,0.0,0.0,0.0,0.0,0.0,0.0,0.0,0.0,0.0,0.0,0.0,0.0,0.0,0.0,0.0,0.0,-2.592,-3.0333,-3.2136,-3.3253,-3.3566,-3.0049,-2.5938,0.0,0.0,0.0,0.0,0.0,0.0,0.0,0.0,0.0,0.0,0.0,0.0,0.0,0.0,0.0,0.0,0.0,0.0,0.0,0.0,0.0,0.0,0.0,0.0,0.0,0.0,0.0,0.0,0.0,0.0,0.0,0.0,0.0,0.0,0.0,0.0,0.0,0.0,0.0,0.0,0.0,0.0,0.0,0.0,0.0,0.0,0.0,0.0,0.0,0.0,0.0,0.0,0.0,0.0,0.0,0.0,0.0,0.0,0.0,0.0,0.0,0.0,0.0,0.0,0.0,0.0,0.0,0.0,0.0,0.0,0.0,0.0,0.0,0.0,0.0,0.0,0.0,0.0,0.0,0.0,0.0,0.0,0.0,0.0,0.0,0.0,0.0,0.0,0.0,0.0,0.0,0.0,0.0,0.0,0.0,0.0,0.0,0.0,0.0,0.0,0.0,0.0,0.0,0.0,0.0,0.0,0.0,-2.1914,-2.5766,-2.9844,-3.1544,-3.273,-3.3463,-3.0829,-2.7118,-2.239,0.0,0.0,0.0,0.0,0.0,0.0,0.0,0.0,0.0,0.0,0.0,0.0,0.0,0.0,0.0,0.0,0.0,0.0,0.0,0.0,0.0,0.0,0.0,0.0,0.0,0.0,0.0,0.0,0.0,0.0,0.0,0.0,0.0,0.0,0.0,0.0,0.0,0.0,-1.0772,-1.1301,0.0,0.0,0.0,0.0,0.0,0.0,0.0,0.0,-1.2407,0.0,0.0,0.0,0.0,0.0,0.0,0.0,0.0,0.0,0.0,0.0,0.0,0.0,0.0,0.0,0.0,0.0,0.0,0.0,0.0,0.0,0.0,0.0,0.0,0.0,0.0,0.0,0.0,0.0,0.0,0.0,0.0,0.0,0.0,0.0,0.0,0.0,0.0,0.0,0.0,0.0,0.0,0.0,0.0,0.0,0.0,0.0,0.0,0.0,0.0,0.0,0.0,0.0,0.0,0.0,0.0,-2.0202,-2.3005,-2.6351,-3.0277,-3.1222,-3.2017,-3.2599,-3.0184,-2.7185,-2.3664,0.0,0.0,0.0,0.0,0.0,0.0,0.0,0.0,0.0,0.0,0.0,0.0,0.0,0.0,0.0,0.0,0.0,0.0,0.0,0.0,0.0,0.0,0.0,0.0,0.0,0.0,0.0,0.0,0.0,0.0,0.0,0.0,0.0,0.0,0.0,0.0,0.0,0.0,0.0,-1.154,-1.1804,0.0,0.0,0.0,0.0,0.0,0.0,0.0,0.0,-1.4211,0.0,0.0,0.0,0.0,0.0,0.0,0.0,0.0,0.0,0.0,0.0,0.0,0.0,0.0,0.0,0.0,0.0,0.0,0.0,0.0,0.0,0.0,0.0,0.0,0.0,0.0,0.0,0.0,0.0,0.0,0.0,0.0,0.0,0.0,0.0,0.0,0.0,0.0,0.0,0.0,0.0,0.0,0.0,0.0,0.0,0.0,0.0,0.0,0.0,0.0,0.0,0.0,0.0,0.0,0.0,-2.1216,-2.4462,-2.7425,-2.9953,-3.0987,-3.166,-3.1928,-2.9788,-2.712,0.0,0.0,0.0,0.0,0.0,0.0,0.0,0.0,0.0,0.0,0.0,0.0,0.0,0.0,0.0,0.0,0.0,0.0,0.0,0.0,0.0,0.0,0.0,0.0,0.0,0.0,0.0,0.0,0.0,0.0,0.0,0.0,0.0,0.0,0.0,0.0,0.0,0.0,0.0,0.0,-1.2733,-1.3221,-1.4053,0.0,0.0,0.0,0.0,0.0,0.0,-1.5247,-1.5097,0.0,0.0,0.0,0.0,0.0,0.0,0.0,0.0,0.0,0.0,0.0,0.0,0.0,0.0,0.0,0.0,0.0,0.0,0.0,0.0,0.0,0.0,0.0,0.0,0.0,0.0,0.0,0.0,0.0,0.0,0.0,0.0,0.0,0.0,0.0,0.0,0.0,0.0,0.0,0.0,0.0,0.0,0.0,0.0,0.0,0.0,0.0,0.0,0.0,0.0,0.0,0.0,0.0,0.0,0.0,-2.1954,-2.5653,-2.8244,-2.9592,-3.0717,-3.1301,-3.1241,-2.9124,-2.6574,0.0,0.0,0.0,0.0,0.0,0.0,0.0,0.0,0.0,0.0,0.0,0.0,0.0,0.0,0.0,0.0,0.0,0.0,0.0,0.0,0.0,0.0,0.0,0.0,0.0,0.0,0.0,0.0,0.0,0.0,0.0,0.0,0.0,0.0,0.0,0.0,0.0,0.0,0.0,0.0,0.0,-1.4662,-1.5638,-1.493,0.0,0.0,0.0,0.0,-1.5639,-1.6192,0.0,0.0,0.0,0.0,0.0,0.0,0.0,0.0,0.0,0.0,0.0,0.0,0.0,0.0,0.0,0.0,0.0,0.0,0.0,0.0,0.0,0.0,0.0,0.0,0.0,0.0,0.0,0.0,0.0,0.0,0.0,0.0,0.0,0.0,0.0,0.0,0.0,0.0,0.0,0.0,0.0,0.0,0.0,0.0,0.0,0.0,0.0,0.0,0.0,0.0,0.0,0.0,0.0,0.0,0.0,0.0,-2.2598,-2.5916,-2.8259,-2.9562,-3.0253,-3.0612,-3.0582,-2.769,-2.5108,0.0,0.0,0.0,0.0,0.0,0.0,0.0,0.0,0.0,0.0,0.0,0.0,0.0,0.0,0.0,0.0,0.0,0.0,0.0,0.0,0.0,0.0,0.0,0.0,0.0,0.0,0.0,0.0,0.0,0.0,0.0,0.0,0.0,0.0,0.0,0.0,0.0,0.0,0.0,0.0,0.0,-1.5112,-1.5711,-1.528,-1.4915,0.0,0.0,-1.6536,-1.7219,-1.8445,0.0,0.0,0.0,0.0,0.0,0.0,0.0,0.0,0.0,0.0,0.0,0.0,0.0,0.0,0.0,0.0,0.0,0.0,0.0,0.0,0.0,0.0,0.0,0.0,0.0,0.0,0.0,0.0,0.0,0.0,0.0,0.0,0.0,0.0,0.0,0.0,0.0,0.0,0.0,0.0,0.0,0.0,0.0,0.0,0.0,0.0,0.0,0.0,0.0,0.0,0.0,0.0,0.0,0.0,0.0,-2.1321,-2.3251,-2.6866,-2.8843,-2.9056,-2.9998,-3.0492,-3.0492,-2.7385,-2.4935,0.0,0.0,0.0,0.0,0.0,0.0,0.0,0.0,0.0,0.0,0.0,0.0,0.0,0.0,0.0,0.0,0.0,0.0,0.0,0.0,0.0,0.0,0.0,0.0,0.0,0.0,0.0,0.0,0.0,0.0,0.0,0.0,0.0,0.0,0.0,0.0,0.0,0.0,0.0,0.0,0.0,0.0,-1.6697,-1.6816,0.0,0.0,0.0,-1.7915,-1.7677,0.0,0.0,0.0,0.0,0.0,0.0,0.0,0.0,0.0,0.0,0.0,0.0,0.0,0.0,0.0,0.0,0.0,0.0,0.0,0.0,0.0,0.0,0.0,0.0,0.0,0.0,0.0,0.0,0.0,0.0,0.0,0.0,0.0,0.0,0.0,0.0,0.0,0.0,0.0,0.0,0.0,0.0,0.0,0.0,0.0,0.0,0.0,0.0,0.0,0.0,0.0,0.0,0.0,0.0,0.0,0.0,0.0,-2.3894,-2.7634,-2.9415,-2.9116,-3.0013,-3.0492,-3.0447,-2.7634,0.0,0.0,0.0,0.0,0.0,0.0,0.0,0.0,0.0,0.0,0.0,0.0,0.0,0.0,0.0,0.0,0.0,0.0,0.0,0.0,0.0,0.0,0.0,0.0,0.0,0.0,0.0,-1.2342,0.0,0.0,0.0,0.0,0.0,0.0,0.0,0.0,0.0,0.0,0.0,0.0,0.0,0.0,-1.6785,-1.7705,-1.8516,-1.8975,0.0,0.0,-1.9165,-1.8582,-2.0101,-2.0448,0.0,0.0,0.0,0.0,0.0,0.0,0.0,0.0,0.0,0.0,0.0,0.0,0.0,0.0,0.0,0.0,0.0,0.0,0.0,0.0,0.0,0.0,0.0,0.0,0.0,0.0,0.0,0.0,0.0,0.0,0.0,0.0,0.0,0.0,0.0,0.0,0.0,0.0,0.0,0.0,0.0,0.0,0.0,0.0,0.0,0.0,0.0,0.0,0.0,0.0,0.0,0.0,0.0,0.0,0.0,-2.4575,-2.7874,-2.9861,-3.0342,-3.0462,-3.0492,-3.0462,-2.8543,-2.6267,0.0,0.0,0.0,0.0,0.0,0.0,0.0,0.0,0.0,0.0,0.0,0.0,0.0,0.0,0.0,0.0,0.0,0.0,0.0,0.0,0.0,0.0,0.0,0.0,0.0,0.0,0.0,0.0,0.0,0.0,0.0,0.0,0.0,0.0,0.0,0.0,0.0,0.0,0.0,0.0,0.0,-1.8492,-1.8451,-2.0075,-2.0946,0.0,0.0,-2.0233,-2.0535,-2.1892,-2.2011,-1.9271,0.0,0.0,0.0,0.0,0.0,0.0,0.0,0.0,0.0,0.0,0.0,0.0,0.0,0.0,0.0,0.0,0.0,0.0,0.0,0.0,0.0,0.0,0.0,0.0,0.0,0.0,0.0,0.0,0.0,0.0,0.0,0.0,0.0,0.0,0.0,0.0,0.0,0.0,0.0,0.0,0.0,0.0,0.0,0.0,0.0,0.0,0.0,0.0,0.0,0.0,0.0,0.0,0.0,-2.2646,-2.4605,-2.7904,-2.9726,-2.9939,-3.0313,-3.0492,-3.0492,-2.9011,-2.7141,0.0,0.0,0.0,0.0,0.0,0.0,0.0,0.0,0.0,0.0,0.0,0.0,0.0,0.0,0.0,0.0,0.0,0.0,0.0,0.0,0.0,0.0,0.0,0.0,0.0,0.0,0.0,0.0,-1.6427,-1.6469,-1.5536,0.0,0.0,0.0,0.0,0.0,0.0,0.0,0.0,0.0,0.0,-1.9061,-2.0404,-2.1502,0.0,0.0,-2.1929,-2.1511,-2.1053,-2.1626,-2.132,-1.8992,-1.7947,0.0,0.0,0.0,0.0,0.0,0.0,0.0,0.0,0.0,0.0,0.0,0.0,0.0,0.0,0.0,0.0,0.0,0.0,0.0,0.0,0.0,0.0,0.0,0.0,0.0,0.0,0.0,0.0,0.0,0.0,0.0,0.0,0.0,0.0,0.0,0.0,0.0,0.0,0.0,0.0,0.0,0.0,0.0,0.0,0.0,0.0,0.0,0.0,0.0,0.0,0.0,0.0,-2.3077,-2.5173,-2.8278,-2.9953,-3.0163,-3.0597,-3.0778,-3.0791,-2.9911,-2.8547,0.0,0.0,0.0,0.0,0.0,0.0,0.0,0.0,0.0,0.0,0.0,0.0,0.0,0.0,0.0,0.0,0.0,0.0,0.0,0.0,0.0,0.0,0.0,0.0,0.0,0.0,0.0,0.0,-1.7654,-1.7467,-1.6167,0.0,0.0,0.0,0.0,0.0,0.0,0.0,0.0,0.0,0.0,-2.0324,-2.1621,-2.2458,-2.2937,-2.2823,-2.2276,-2.1649,-2.0962,-2.1004,-2.0596,-1.9116,0.0,0.0,0.0,0.0,0.0,0.0,0.0,0.0,0.0,0.0,0.0,0.0,0.0,0.0,0.0,0.0,0.0,0.0,0.0,0.0,0.0,0.0,0.0,0.0,0.0,0.0,0.0,0.0,0.0,0.0,-1.4062,0.0,0.0,0.0,0.0,0.0,0.0,0.0,0.0,0.0,0.0,0.0,0.0,0.0,0.0,0.0,0.0,0.0,0.0,0.0,0.0,0.0,0.0,-2.3961,-2.6537,-2.9101,-3.0791,-3.1406,-3.1466,-3.1466,-3.1466,-3.1436,-3.0509,-2.8573,0.0,0.0,0.0,0.0,0.0,0.0,0.0,0.0,0.0,0.0,0.0,0.0,0.0,0.0,0.0,0.0,0.0,0.0,0.0,0.0,0.0,0.0,0.0,0.0,0.0,0.0,-1.6023,-1.7535,-1.8321,0.0,0.0,0.0,0.0,0.0,0.0,0.0,0.0,0.0,0.0,-2.0971,-2.2543,-2.1729,-2.2823,-2.3049,-2.1169,-2.0547,-2.0311,-2.037,-2.0284,-2.0169,0.0,0.0,0.0,0.0,0.0,0.0,0.0,0.0,0.0,0.0,0.0,0.0,0.0,0.0,0.0,0.0,0.0,0.0,0.0,0.0,0.0,0.0,0.0,0.0,0.0,0.0,0.0,-1.8985,-1.8968,0.0,0.0,0.0,0.0,0.0,0.0,0.0,0.0,0.0,0.0,0.0,-2.4214,-2.3646,0.0,0.0,0.0,0.0,0.0,0.0,0.0,0.0,0.0,0.0,0.0,0.0,-2.4395,-2.6587,-2.9175,-3.0836,-3.1481,-3.1496,-3.1496,-3.1496,-3.1496,-3.0805,-2.9281,0.0,0.0,0.0,0.0,0.0,0.0,0.0,0.0,0.0,0.0,0.0,0.0,0.0,0.0,0.0,0.0,0.0,0.0,0.0,0.0,0.0,0.0,0.0,0.0,0.0,-1.7954,0.0,0.0,0.0,0.0,0.0,0.0,0.0,0.0,0.0,0.0,0.0,-1.9095,-2.0012,-2.0556,-2.1135,-2.1838,-2.2278,-2.2638,0.0,0.0,0.0,0.0,0.0,0.0,0.0,0.0,0.0,0.0,0.0,0.0,0.0,0.0,-1.7187,-1.6656,-1.6857,-1.7087,-1.7087,0.0,0.0,0.0,0.0,0.0,0.0,0.0,0.0,0.0,0.0,0.0,0.0,0.0,0.0,-2.2304,0.0,-2.1624,0.0,0.0,0.0,0.0,0.0,0.0,0.0,0.0,-2.5913,-2.7559,-2.8201,-2.7712,-2.7659,0.0,-2.682,-2.4596,0.0,0.0,0.0,0.0,0.0,0.0,0.0,0.0,-2.4941,-2.6971,-2.9535,-3.1189,-3.1823,-3.164,-3.164,-3.1881,-3.164,-3.1108,-3.0297,-2.7966,-2.5961,0.0,0.0,0.0,0.0,0.0,0.0,0.0,0.0,0.0,0.0,0.0,0.0,0.0,0.0,0.0,0.0,0.0,0.0,0.0,0.0,0.0,0.0,0.0,-1.9405,0.0,0.0,0.0,0.0,0.0,0.0,0.0,0.0,0.0,-1.9027,-1.9964,-2.0962,-2.1672,-2.1575,-2.1498,-2.1674,0.0,0.0,0.0,0.0,0.0,0.0,0.0,-1.9368,-1.8858,-1.9396,-1.9885,-1.9885,-1.9447,-1.9233,-1.9773,0.0,0.0,-1.8454,-1.8518,-1.8756,-1.8769,-1.9208,-1.9597,-1.9572,-2.0024,-2.0238,0.0,0.0,0.0,0.0,0.0,0.0,0.0,0.0,-2.5335,-2.5443,0.0,-2.4814,0.0,0.0,0.0,0.0,0.0,-2.5016,0.0,0.0,-3.2806,-3.4249,-3.2181,-3.3274,-3.3186,-3.1721,-3.0053,-2.8829,-2.7991,-2.6056,0.0,0.0,0.0,0.0,0.0,0.0,-2.5689,-2.7675,-3.0238,-3.1868,-3.2492,-3.1883,-3.1868,-3.2532,-3.1923,-3.1567,-3.1492,-2.979,-2.8426,-2.7635,-2.4687,0.0,0.0,0.0,0.0,0.0,0.0,0.0,0.0,0.0,0.0,0.0,0.0,0.0,0.0,0.0,0.0,0.0,0.0,0.0,0.0,-2.0363,0.0,0.0,0.0,0.0,0.0,0.0,0.0,0.0,0.0,0.0,-2.0617,-2.16,-2.264,-2.3113,0.0,0.0,0.0,0.0,-2.258,-1.9462,-1.9244,-1.937,-1.8983,-1.9705,-2.0411,-2.0737,0.0,0.0,-2.3095,-2.1832,-2.0981,-2.1468,-2.1531,-2.1192,-2.015,-2.0012,-2.0037,-2.0062,-2.0539,-2.083,-2.0867,-2.1368,-2.1506,-3.0871,0.0,0.0,0.0,0.0,-2.7168,-2.8917,-3.1191,-3.1615,-3.1666,-3.1454,-3.0937,0.0,0.0,0.0,0.0,0.0,0.0,-2.83,-3.0782,-3.2924,-3.4124,-3.4615,-3.4533,-3.4213,-3.3671,-3.374,-3.3367,-3.2644,-3.2576,-2.9861,-2.4709,0.0,0.0,0.0,0.0,-2.751,-2.9067,-3.1135,-3.2091,-3.1811,-3.2076,-3.2322,-3.259,-3.2394,-3.2504,-3.2971,-3.1512,-3.0181,-2.9054,-2.7688,0.0,0.0,0.0,0.0,0.0,0.0,0.0,0.0,0.0,0.0,0.0,0.0,0.0,0.0,0.0,0.0,0.0,0.0,0.0,-2.1051,-2.1744,-2.1335,0.0,0.0,0.0,0.0,0.0,0.0,0.0,0.0,0.0,-2.3331,-2.3231,-2.3253,0.0,0.0,-2.2148,-2.1728,-2.207,-2.2335,-2.2264,-2.1694,0.0,-2.1916,-2.1909,-2.1767,-2.1483,-2.2367,-2.3233,-2.3678,-2.3364,-2.31,-2.3251,-2.2949,-2.2661,-2.2799,-2.2799,-2.2899,-2.3288,-2.3527,-2.3627,-2.364,-2.3766,-2.3521,-3.7405,-3.4049,-3.1651,-3.063,-3.0651,-3.0969,-3.2574,-3.4912,-3.4888,-3.4842,-3.4868,-3.4691,-3.344,-3.1312,-3.046,0.0,0.0,0.0,-3.1854,-3.4447,-3.5154,-3.5883,-3.6476,-3.6121,-3.573,-3.5346,-3.5525,-3.5504,-3.5337,-3.5549,-3.3537,-2.9394,0.0,0.0,-2.6826,-2.7844,-2.9052,-3.0357,-3.2033,-3.2676,-3.2288,-3.2438,-3.2418,-3.2191,-3.2465,-3.2788,-3.3172,-3.2394,-3.1595,-3.0815,-2.9644,-2.7784,0.0,0.0,0.0,0.0,0.0,0.0,0.0,0.0,0.0,0.0,0.0,-1.8642,0.0,0.0,0.0,0.0,-2.171,-2.2512,-2.3176,-2.3152,0.0,0.0,0.0,0.0,0.0,0.0,0.0,-2.2622,-2.3909,-2.4941,-2.5322,-2.5239,-2.5014,-2.4714,-2.4223,-2.3703,-2.3317,0.0,-2.417,-2.3892,-2.344,-2.3121,-2.3191,-2.3329,-2.3367,-2.3283,-2.3683,-2.4161,-2.4544,-2.4469,-2.4299,-2.4243,-2.3634,-2.3283,-2.3891,-2.4167,-2.4406,-2.4725,-2.48,-2.48,-2.48,-2.4625,-2.428,-4.3115,-4.1999,-3.6382,-3.4091,-3.418,-3.4062,-3.4861,-3.6201,-3.6179,-3.6064,-3.6008,-3.6753,-3.605,-3.4355,-3.3363,0.0,-3.4327,-3.5018,-3.6191,-3.7906,-3.8653,-3.8581,-3.789,-3.7898,-3.7456,-3.6569,-3.5975,-3.599,-3.6461,-3.5994,-3.5464,-3.4754,-3.1713,-2.9798,-2.9057,-2.9574,-3.046,-3.1732,-3.2961,-3.3622,-3.3676,-3.3008,-3.2376,-3.1829,-3.2302,-3.2586,-3.2586,-3.2547,-3.2504,-3.2446,-3.0743,-2.9442,-2.8637,0.0,0.0,0.0,0.0,0.0,0.0,0.0,0.0,0.0,0.0,0.0,0.0,0.0,0.0,0.0,-2.4007,0.0,-2.5681,-2.4657,0.0,0.0,0.0,-2.3482,-2.4634,-2.4859,-2.5128,-2.5704,0.0,0.0,-2.6776,-2.7345,-2.7519,-2.6892,-2.7265,-2.7081,-2.5658,-2.6821,-2.7142,-2.4833,-2.4784,-2.4644,-2.3811,-2.4205,-2.482,-2.5247,-2.5561,-2.5423,-2.541,-2.5109,-2.48,-2.4662,-2.3822,-2.3283,-2.3891,-2.4387,-2.48,-2.485,-2.4971,-2.4983,-2.5008,-2.4695,-2.4368,-4.4198,-4.3836,-4.1271,-4.0172,-4.0195,-4.0189,-4.0077,-3.9919,-3.9919,-3.9569,-3.9026,-3.9244,-3.9034,-3.8553,-3.7261,-3.6751,-3.6894,-3.6567,-3.6918,-3.7843,-3.8595,-3.8795,-3.865,-3.8636,-3.7917,-3.6691,-3.704,-3.6738,-3.5863,-3.6779,-3.6888,-3.6149,-3.5448,-3.4199,-3.2542,-3.2049,-3.252,-3.3921,-3.4152,-3.453,-3.5052,-3.3921,-3.3497,-3.3934,-3.3053,-3.2586,-3.2586,-3.2064,-3.1783,-3.1724,-3.1311,-3.0537,-2.9385,-2.7156,0.0,0.0,0.0,0.0,0.0,0.0,0.0,0.0,0.0,-1.9768,-2.0408,0.0,-2.2388,0.0,-2.5533,-2.6971,-2.7121,-2.6836,0.0,0.0,-2.5555,-2.5779,-2.6093,-2.7036,-2.7515,-2.7165,-2.7709,-2.8113,-2.8113,-2.8723,-2.922,-2.9478,-2.8412,-2.7624,-2.7613,-2.7931,-2.794,-2.7102,-2.6912,-2.6693,-2.578,-2.5159,-2.4976,-2.5511,-2.5272,-2.4976,-2.4996,-2.4908,-2.4695,-2.4268,-2.3597,-2.3384,-2.3879,-2.4412,-2.4901,-2.5347,-2.5749,-2.6109,-2.6097,-2.5971,-2.5745,-4.5872,-4.5466,-4.4299,-4.3809,-4.3741,-4.241,-4.1765,-4.1668,-4.1342,-4.116,-4.1052,-4.073,-4.0205,-3.9568,-3.9115,-3.8728,-3.8298,-3.8281,-3.8465,-3.8843,-3.9252,-3.9437,-3.9437,-3.9059,-3.8453,-3.7642,-3.7748,-3.7531,-3.7115,-3.7876,-3.806,-3.7626,-3.7685,-3.7159,-3.6018,-3.4945,-3.4788,-3.5545,-3.5547,-3.5548,-3.5561,-3.457,-3.3678,-3.2939,-3.2453,-3.182,-3.1041,-3.0623,-3.0376,-3.0281,-3.0018,-2.9499,-2.8738,-2.7081,-2.554,0.0,0.0,0.0,0.0,0.0,0.0,0.0,0.0,0.0,0.0,0.0,-2.4275,-2.4904,-2.6836,-2.7929,-2.763,-2.7585,-2.7525,-2.7395,-2.7694,-2.8158,-2.8727,-2.946,-2.9759,-2.9385,-2.9669,-2.9881,-2.9896,-3.0223,-3.0567,-3.0883,-3.0028,-2.9433,-2.9654,-2.9476,-2.9111,-2.8926,-2.8211,-2.7417,-2.6611,-2.5996,-2.5548,-2.5561,-2.5347,-2.5096,-2.4858,-2.4619,-2.4343,-2.4029,-2.3496,-2.3195,-2.3577,-2.4067,-2.4544,-2.4845,-2.5335,-2.5774,-2.6025,-2.5732,-2.528,-4.7547,-4.687,-4.6143,-4.5788,-4.5493,-4.2877,-4.2044,-4.2412,-4.1761,-4.1794,-4.2252,-4.161,-4.0594,-3.9394,-4.0068,-3.9897,-3.9127,-3.9891,-4.013,-3.9969,-4.0045,-4.0113,-4.007,-3.9368,-3.8989,-3.8881,-3.8246,-3.8218,-3.8745,-3.8837,-3.8924,-3.8908,-3.9005,-3.8989,-3.8848,-3.778,-3.7064,-3.6767,-3.6743,-3.6451,-3.5843,-3.4918,-3.3362,-3.1217,-3.1277,-3.0635,-2.9093,-2.892,-2.8811,-2.8669,-2.8107,-2.7816,-2.7809,-2.6611,-2.5621,0.0,-2.3909,0.0,0.0,0.0,0.0,0.0,0.0,0.0,0.0,-2.5809,-2.6183,-2.6926,-2.8053,-2.8547,-2.8139,-2.8109,-2.8573,-2.9669,-2.9834,-3.0298,-3.1331,-3.1496,-3.1496,-3.1496,-3.1496,-3.1496,-3.1436,-3.1496,-3.1496,-3.1451,-3.1361,-3.1256,-3.1378,-3.0837,-3.0363,-3.0343,-2.8812,-2.7438,-2.6824,-2.6501,-2.6109,-2.5598,-2.5435,-2.5285,-2.46,-2.4268,-2.3979,-2.3853,-2.3421,-2.312,-2.3095,-2.3584,-2.3991,-2.4079,-2.4469,-2.4921,-2.531,-2.4895,-2.4142,-4.7804,-4.7601,-4.6904,-4.6244,-4.564,-4.5086,-4.4193,-4.3189,-4.3063,-4.2709,-4.2303,-4.2134,-4.1946,-4.1687,-4.1811,-4.1147,-3.9913,-4.0637,-4.0344,-3.9139,-3.9782,-4.0113,-4.0096,-3.9952,-3.9516,-3.8908,-3.8772,-3.8442,-3.8035,-3.8608,-3.8924,-3.8908,-3.9542,-3.9542,-3.8962,0.0,0.0,0.0,-3.6803,-3.6609,-3.6936,-3.4392,-3.3064,-3.3065,-3.0927,0.0,-2.9097,-2.856,-2.8171,-2.7999,-2.785,0.0,0.0,0.0,0.0,0.0,0.0,0.0,0.0,0.0,0.0,0.0,-2.6881,-2.6596,-2.6437,-2.6926,-2.7735,-2.8918,-2.9277,-2.9789,-3.0673,-3.0748,-3.0853,-3.1092,-3.1122,-3.1241,-3.1481,-3.1496,-3.1496,-3.1496,-3.1496,-3.1496,-3.1496,-3.1496,-3.1496,-3.1496,-3.1496,-3.1496,-3.1496,-3.1307,-3.0999,-3.0329,-2.8812,-2.7703,-2.7504,-2.6521,-2.5686,-2.5109,-2.4938,-2.4562,-2.376,-2.3828,-2.3791,-2.3396,-2.3183,-2.3095,-2.3108,-2.3572,-2.3954,-2.3991,-2.4079,-2.4318,-2.4845,-2.4775,-2.4637,-4.843,0.0,-4.7665,-4.7124,0.0,-4.6397,-4.5602,-4.4491,-4.4164,-4.3555,-4.2844,-4.2844,-4.2642,-4.2303,-4.2303,-4.188,-4.1214,-4.157,-4.1324,-4.0602,-4.098,-4.101,-4.0646,-4.1001,-4.0609,-3.9523,-3.9857,-3.9654,-3.8984,-3.9315,-3.9489,-3.9489,-3.9885,-3.9901,-3.9532,-3.9901,-3.9705,-3.8941,-3.8444,-3.8166,-3.809,-3.6567,-3.5262,-3.4349,-3.2914,0.0,0.0,0.0,0.0,0.0,0.0,0.0,0.0,-2.8274,0.0,-2.8109,-2.7784,-2.7724,-2.8038,-2.8068,-2.8502,-2.9445,-2.952,-2.9101,-2.8143,-2.8966,-2.9804,-3.0462,-3.0552,-3.0793,-3.1421,-3.1496,-3.1496,-3.1496,-3.1496,-3.1496,-3.1496,-3.1496,-3.1496,-3.1496,-3.1496,-3.1496,-3.1496,-3.1496,-3.1496,-3.1496,-3.1496,-3.1496,-3.1467,-3.1161,-3.0614,-2.9782,-2.9002,-2.8201,-2.771,-2.6822,-2.5824,-2.5335,-2.4983,-2.4506,-2.3715,-2.3521,-2.3434,-2.3158,-2.3095,-2.3095,-2.312,-2.3389,-2.3534,-2.3547,-2.3547,-2.3609,-2.391,-2.396,-2.396,-4.9018,-4.8951,-4.8359,-4.8007,-4.7838,-4.7259,-4.6566,-4.5838,0.0,0.0,0.0,-4.3623,-4.3284,-4.2719,-4.2709,-4.2625,-4.2489,-4.2489,-4.2422,-4.2286,-4.2168,-4.1796,-4.1255,-4.1813,-4.139,-4.018,-4.0849,-4.0798,-4.013,-4.0113,-4.0113,-4.0113,-4.0113,-4.0113,-4.0113,-4.0113,-4.0113,-4.0096,-3.9927,-3.9504,-3.8861,-3.8533,-3.7351,-3.5188,-3.4913,-3.3715,-3.1611,-3.1257,-3.0479,-2.9173,-2.8977,-2.8696,-2.8334,-2.8801,-2.8966,-2.8708,-2.9067,-2.9579,-3.0223,-3.0191,-3.0552,-3.1615,-3.157,-3.1047,-2.9983,-3.0883,-3.1496,-3.1496,-3.1496,-3.1496,-3.1496,-3.1496,-3.1496,-3.1496,-3.1496,-3.1496,-3.1496,-3.1496,-3.1496,-3.1496,-3.1496,-3.1496,-3.1496,-3.1496,-3.1496,-3.1496,-3.1496,-3.1496,-3.1438,-3.1014,-3.045,-2.9813,-2.9286,-2.8716,-2.8051,-2.7082,-2.6328,-2.5636,-2.5146,-2.4632,-2.4079,-2.3484,-2.3145,-2.312,-2.3095,-2.3095,-2.3095,-2.3133,-2.3095,-2.3095,-2.3095,-2.3095,-2.3095,-2.3108,-2.3158,-4.9018,-4.8984,-4.89,-4.8494,-4.7872,-4.78,-4.7327,-4.6532,-4.5207,-4.4547,-4.4418,-4.4445,-4.4395,-4.4293,-4.4276,-4.3893,-4.3257,-4.324,-4.2912,-4.2296,-4.1644,-4.1305,-4.1204,-4.1305,-4.0899,-4.0214,-4.0849,-4.0815,-4.018,-4.0113,-4.0113,-4.0113,-4.0113,-4.0113,-4.0113,-4.0113,-4.0113,-4.0096,-3.9244,-3.8757,-3.8622,-3.7103,-3.6166,-3.577,-3.4544,-3.3587,-3.3101,-3.191,-3.1007,-3.0588,-2.9927,-2.9973,-3.0868,-3.1032,-3.1584,-3.2542,-3.2213,-3.2258,-3.2856,-3.2422,-3.2153,-3.2288,-3.1824,-3.1421,-3.1256,-3.1406,-3.1496,-3.1496,-3.1496,-3.1496,-3.1496,-3.1496,-3.1496,-3.1496,-3.1496,-3.1496,-3.1496,-3.1496,-3.1496,-3.1496,-3.1496,-3.1496,-3.1496,-3.1496,-3.1496,-3.1496,-3.1496,-3.1496,-3.1467,-3.1409,-3.1278,-3.0999,-2.9889,-2.9052,-2.8716,-2.7471,-2.6426,-2.5686,-2.5159,-2.4619,-2.4017,-2.3471,-2.312,-2.3095,-2.3095,-2.3095,-2.3095,-2.3095,-2.3095,-2.3095,-2.3095,-2.3095,-2.3095,-2.3095,-2.3095,-4.9018,-4.9018,-4.9018,-4.8815,-4.8477,-4.8075,-4.7703,-4.7327,-4.6244,-4.5551,-4.5196,-4.5179,-4.4959,-4.4615,-4.4598,-4.4401,-4.4045,-4.4045,-4.3859,-4.3521,-4.3183,-4.2811,-4.2472,-4.2844,-4.2405,-4.1416,-4.2049,-4.2016,-4.1305,-4.0908,-4.0722,-4.0663,-4.0316,-4.0113,-4.0113,-4.0113,-4.0113,-4.0113,-3.9649,-3.9413,-3.9396,-3.8606,-3.8162,-3.8179,-3.7451,-3.6895,-3.6403,-3.5726,-3.4771,-3.349,-3.3116,-3.2813,-3.2617,-3.2931,-3.323,-3.3484,-3.3544,-3.3559,-3.3499,-3.3215,-3.3036,-3.3051,-3.2766,-3.2407,-3.2064,-3.1705,-3.1496,-3.1496,-3.1496,-3.1496,-3.1496,-3.1496,-3.1496,-3.1496,-3.1496,-3.1496,-3.1496,-3.1496,-3.1496,-3.1496,-3.1496,-3.1496,-3.1496,-3.1496,-3.1496,-3.1496,-3.1496,-3.1496,-3.1496,-3.1496,-3.1496,-3.1409,-3.048,-2.9813,-2.9611,-2.8279,-2.6953,-2.6033,-2.5262,-2.45,-2.3735,-2.3246,-2.3133,-2.3095,-2.3095,-2.3095,-2.3095,-2.3095,-2.3095,-2.3095,-2.3095,-2.3095,-2.3095,-2.3095,-2.3095,-4.9018,-4.9018,-4.9018,-4.9018,-4.8951,-4.8409,-4.8142,-4.8105,-4.753,-4.687,-4.6244,-4.6041,-4.5449,-4.4666,-4.4784,-4.4767,-4.4615,-4.4598,-4.4598,-4.4581,-4.4401,-4.4012,-4.3494,-4.4045,-4.3606,-4.2506,-4.3064,-4.3003,-4.2303,-4.1728,-4.1373,-4.1136,-4.046,-4.0113,-4.0113,-4.0113,-4.0113,-4.0113,-4.0113,-4.0113,-4.0113,-4.0113,-4.0096,-4.0113,-4.0079,-3.9825,-3.9209,-3.8989,-3.811,-3.649,-3.6195,-3.5518,-3.4348,-3.4695,-3.4677,-3.4069,-3.4309,-3.4294,-3.3784,-3.3709,-3.3709,-3.374,-3.3574,-3.3215,-3.2587,-3.2168,-3.1809,-3.1555,-3.1496,-3.1496,-3.1496,-3.1496,-3.1496,-3.1496,-3.1496,-3.1496,-3.1496,-3.1496,-3.1496,-3.1496,-3.1496,-3.1496,-3.1496,-3.1496,-3.1496,-3.1496,-3.1496,-3.1496,-3.1496,-3.1496,-3.1496,-3.1336,-3.0792,-3.0299,-3.0194,-2.8882,-2.7477,-2.641,-2.5482,-2.4582,-2.3682,-2.3258,-2.3108,-2.3095,-2.3095,-2.3095,-2.3095,-2.3095,-2.3095,-2.3095,-2.3095,-2.3095,-2.3095,-2.3095,-2.3095,-4.9018,-4.9018,-4.9018,-4.9018,-4.9001,-4.8917,-4.8883,-4.8866,-4.8815,-4.8392,-4.7584,-4.7005,-4.5952,-4.4818,-4.5263,-4.5179,-4.4615,-4.4598,-4.4598,-4.4513,-4.3842,-4.346,-4.3426,-4.3494,-4.3098,-4.2506,-4.3115,-4.3132,-4.2455,-4.2219,-4.183,-4.1204,-4.0443,-4.0113,-4.0113,-4.0113,-4.0113,-4.0113,-4.0113,-4.0113,-4.0113,-4.0113,-4.0113,-4.0113,-4.0113,-4.007,-3.9927,-3.9272,-3.8821,-3.8564,-3.7906,-3.7212,-3.6398,-3.6353,-3.6059,-3.5347,-3.4833,-3.4474,-3.4429,-3.4429,-3.4429,-3.4384,-3.3873,-3.329,-3.2677,-3.3021,-3.2781,-3.1884,-3.154,-3.1555,-3.1496,-3.1511,-3.1525,-3.1585,-3.1525,-3.1496,-3.1496,-3.1496,-3.1496,-3.1496,-3.1496,-3.1496,-3.1496,-3.1496,-3.1496,-3.1496,-3.1496,-3.1496,-3.1496,-3.1496,-3.1496,-3.138,-3.0837,-3.0419,-3.0211,-2.8998,-2.7851,-2.697,-2.5827,-2.4827,-2.4053,-2.3419,-2.3095,-2.3095,-2.3095,-2.3095,-2.3095,-2.3095,-2.3095,-2.3095,-2.3095,-2.3095,-2.3095,-2.3095,-2.3095,-4.9018,-4.9018,-4.9018,-4.9018,-4.9018,-4.9018,-4.9018,-4.9018,-4.9018,-4.8595,-4.7973,-4.8037,-4.7056,-4.5263,-4.5111,-4.4886,-4.4615,-4.4598,-4.4598,-4.4581,-4.4276,-4.4113,-4.4113,-4.4096,-4.3955,-4.369,-4.3978,-4.3961,-4.3538,-4.2743,-4.1711,-4.0654,-4.0231,-4.0113,-4.0113,-4.0113,-4.0113,-4.0113,-4.0113,-4.0113,-4.0113,-4.0113,-4.0113,-4.0113,-4.0113,-4.0113,-4.007,-3.9782,-3.9394,-3.8935,-3.8608,-3.8104,-3.7338,-3.6843,-3.6461,-3.6118,-3.5493,-3.5085,-3.5085,-3.5085,-3.5085,-3.51,-3.4846,-3.4397,-3.3754,-3.3933,-3.3679,-3.2856,-3.2318,-3.2079,-3.2049,-3.1735,-3.166,-3.1929,-3.175,-3.1496,-3.1496,-3.1496,-3.1496,-3.1496,-3.1496,-3.1496,-3.1496,-3.1496,-3.1496,-3.1496,-3.1496,-3.1496,-3.1496,-3.1496,-3.1496,-3.1467,-3.1175,-3.1029,-3.0852,-2.9751,-2.8612,-2.766,-2.6239,-2.4883,-2.4227,-2.355,-2.3095,-2.3095,-2.3095,-2.3095,-2.3095,-2.3095,-2.3095,-2.3095,-2.3095,-2.3095,-2.3095,-2.3095,-2.3095,-4.9018,-4.9018,-4.9018,-4.9018,-4.9018,-4.9018,-4.9018,-4.9018,-4.9018,-4.8697,-4.8274,-4.8562,-4.7804,-4.638,-4.572,-4.5399,-4.5179,-4.5004,-4.4919,-4.4857,-4.4716,-4.4598,-4.4598,-4.4598,-4.4598,-4.4598,-4.4581,-4.4581,-4.4445,-4.3284,-4.1948,-4.0857,-4.0519,-4.0299,-4.013,-4.0113,-4.0113,-4.0113,-4.0113,-4.0113,-4.0113,-4.0113,-4.0113,-4.0113,-4.0113,-4.0113,-4.0113,-4.0113,-3.985,-3.9262,-3.9236,-3.887,-3.8149,-3.7541,-3.7038,-3.6615,-3.6117,-3.5701,-3.5522,-3.5489,-3.5489,-3.5489,-3.5489,-3.522,-3.4698,-3.4668,-3.4352,-3.3544,-3.323,-3.3036,-3.2736,-3.2153,-3.2019,-3.2378,-3.1884,-3.1511,-3.1496,-3.1496,-3.1496,-3.1496,-3.1496,-3.1496,-3.1496,-3.1496,-3.1496,-3.1496,-3.1496,-3.1496,-3.1496,-3.1496,-3.1496,-3.1496,-3.1511,-3.1377,-3.1213,-3.0174,-2.913,-2.7783,-2.6161,-2.492,-2.4213,-2.3407,-2.3095,-2.3095,-2.3095,-2.3095,-2.3095,-2.3095,-2.3095,-2.3095,-2.3095,-2.3095,-2.3095,-2.3095,-2.3095,-4.9018,-4.9018,-4.9018,-4.9018,-4.9018,-4.9018,-4.9018,-4.9018,-4.9018,-4.8968,-4.8815,-4.8277,-4.7906,-4.7736,-4.7648,-4.7327,-4.6599,-4.5889,-4.5585,-4.5517,-4.4942,-4.4615,-4.4598,-4.4598,-4.4615,-4.4598,-4.4598,-4.4564,-4.4496,-4.3724,-4.2963,-4.2134,-4.1407,-4.0764,-4.0197,-4.0113,-4.0113,-4.0113,-4.0113,-4.0113,-4.0113,-4.0113,-4.0113,-4.0113,-4.0113,-4.0113,-4.0113,-4.0113,-4.007,-4.0045,-3.9978,-3.9662,-3.8935,-3.8772,-3.8072,-3.6843,-3.6584,-3.6244,-3.5686,-3.5587,-3.5554,-3.5522,-3.5522,-3.5235,-3.4696,-3.5055,-3.4846,-3.3679,-3.4083,-3.4098,-3.3574,-3.2901,-3.2542,-3.2557,-3.1944,-3.16,-3.1555,-3.154,-3.1496,-3.1496,-3.1496,-3.1496,-3.1496,-3.1496,-3.1496,-3.1496,-3.1496,-3.1496,-3.1496,-3.1496,-3.1496,-3.1496,-3.1451,-3.1286,-3.0629,-3.0024,-2.8747,-2.7371,-2.6245,-2.4961,-2.391,-2.3095,-2.3095,-2.3095,-2.3095,-2.3095,-2.3095,-2.3095,-2.3095,-2.3095,-2.3095,-2.3095,-2.3095,-2.3095,-2.3095,-4.9018,-4.9018,-4.9018,-4.9018,-4.9018,-4.9018,-4.9018,-4.9018,-4.9018,-4.9018,-4.8968,-4.8714,-4.8612,-4.8612,-4.8612,-4.7682,-4.6177,-4.5821,-4.5703,-4.5669,-4.5415,-4.5314,-4.5314,-4.5297,-4.501,-4.4649,-4.4598,-4.4316,-4.3859,-4.3511,-4.2767,-4.1745,-4.1339,-4.0832,-4.0231,-4.0113,-4.0113,-4.0113,-4.0113,-4.0113,-4.0113,-4.0113,-4.0113,-4.0113,-4.0113,-4.0113,-4.0113,-4.0113,-4.0113,-4.0113,-4.0113,-3.9952,-3.9662,-3.9166,-3.8453,-3.7528,-3.7368,-3.7249,-3.6951,-3.6477,-3.6196,-3.6165,-3.575,-3.5447,-3.522,-3.534,-3.528,-3.4936,-3.4951,-3.4981,-3.4651,-3.3814,-3.3305,-3.3544,-3.2811,-3.2093,-3.2049,-3.178,-3.1496,-3.1496,-3.1496,-3.1496,-3.1496,-3.1496,-3.1496,-3.1496,-3.1496,-3.1496,-3.1496,-3.1496,-3.1496,-3.1496,-3.1466,-3.1122,-3.0028,-2.9789,-2.9015,-2.7534,-2.626,-2.5198,-2.4163,-2.3395,-2.3245,-2.3125,-2.3095,-2.3095,-2.3095,-2.3095,-2.3095,-2.3095,-2.3095,-2.3095,-2.3095,-2.3095,-2.3095,-4.9018,-4.9018,-4.9018,-4.9018,-4.9018,-4.9018,-4.9018,-4.9018,-4.9018,-4.9018,-4.9018,-4.9018,-4.9018,-4.9018,-4.9018,-4.8105,-4.6532,-4.643,-4.6413,-4.6397,-4.6177,-4.6058,-4.6058,-4.6075,-4.5669,-4.4993,-4.4699,-4.431,-4.3859,-4.3792,-4.3132,-4.2016,-4.1694,-4.1187,-4.0544,-4.0231,-4.0113,-4.0113,-4.0113,-4.0113,-4.0113,-4.0113,-4.0113,-4.0113,-4.0113,-4.0113,-4.0113,-4.0113,-4.0113,-4.0113,-4.0113,-4.0113,-4.0045,-3.961,-3.8951,-3.829,-3.8149,-3.8019,-3.7777,-3.7263,-3.6873,-3.66,-3.6165,-3.5782,-3.5554,-3.5489,-3.5489,-3.5489,-3.5489,-3.5489,-3.534,-3.4681,-3.4247,-3.4339,-3.3305,-3.2512,-3.2452,-3.1884,-3.1555,-3.1496,-3.1496,-3.1496,-3.1496,-3.1496,-3.1496,-3.1496,-3.1496,-3.1496,-3.1496,-3.1496,-3.1496,-3.1466,-3.1256,-3.0731,-2.9864,-2.9415,-2.8667,-2.7267,-2.6588,-2.555,-2.4567,-2.3855,-2.3365,-2.3185,-2.3095,-2.3095,-2.3095,-2.3095,-2.3095,-2.3095,-2.3095,-2.3095,-2.3095,-2.3095,-2.3095,-4.9018,-4.9018,-4.9018,-4.9018,-4.9018,-4.9018,-4.9018,-4.9018,-4.9018,-4.9018,-4.9018,-4.9018,-4.9018,-4.9018,-4.9018,-4.8562,-4.7936,-4.78,-4.772,-4.7635,-4.709,-4.6802,-4.6802,-4.6701,-4.6227,-4.5466,-4.4936,-4.4598,-4.4496,-4.4462,-4.4028,-4.3318,-4.2591,-4.188,-4.1187,-4.051,-4.0163,-4.0113,-4.0113,-4.0113,-4.0113,-4.0113,-4.0113,-4.0113,-4.0113,-4.0113,-4.0113,-4.0113,-4.0113,-4.0113,-4.0113,-4.0113,-4.0113,-4.002,-3.9705,-3.9059,-3.8908,-3.8553,-3.8023,-3.7847,-3.7469,-3.6978,-3.6676,-3.6337,-3.5782,-3.5604,-3.5587,-3.5489,-3.5489,-3.5489,-3.5489,-3.537,-3.5115,-3.4518,-3.3425,-3.2647,-3.2452,-3.1914,-3.1496,-3.1496,-3.1496,-3.1496,-3.1496,-3.1496,-3.1496,-3.1496,-3.1496,-3.1496,-3.1496,-3.1496,-3.1496,-3.1391,-3.1047,-3.0432,-2.9729,-2.9014,-2.7948,-2.698,-2.6654,-2.5987,-2.4992,-2.4205,-2.3796,-2.3573,-2.3155,-2.3125,-2.3095,-2.3095,-2.3095,-2.3095,-2.3095,-2.3095,-2.3095,-2.3095,-2.3095,-4.9018,-4.9018,-4.9018,-4.9018,-4.9018,-4.9018,-4.9018,-4.9018,-4.9018,-4.9018,-4.9018,-4.9018,-4.9018,-4.9018,-4.9001,-4.8883,-4.8663,-4.8646,-4.8392,-4.7922,-4.7635,-4.7581,-4.7462,-4.7039,-4.6143,-4.5094,-4.4733,-4.4598,-4.4615,-4.4615,-4.4181,-4.3487,-4.3183,-4.2405,-4.1322,-4.0967,-4.0646,-4.0163,-4.0113,-4.0113,-4.0113,-4.0113,-4.0113,-4.0113,-4.0113,-4.0113,-4.0113,-4.0113,-4.0113,-4.0113,-4.0113,-4.0113,-4.0113,-4.0113,-3.9995,-3.9782,-3.9714,-3.9662,-3.9358,-3.8843,-3.8469,-3.8145,-3.7716,-3.707,-3.6399,-3.6259,-3.6038,-3.5651,-3.5489,-3.5489,-3.5489,-3.5489,-3.537,-3.5205,-3.4008,-3.3125,-3.2901,-3.2123,-3.1585,-3.1496,-3.1496,-3.1496,-3.1496,-3.1496,-3.1496,-3.1496,-3.1496,-3.1496,-3.1496,-3.1496,-3.1496,-3.1436,-3.0853,-3.0268,-2.9654,-2.8978,-2.8036,-2.7291,-2.691,-2.6457,-2.5481,-2.4823,-2.4423,-2.3839,-2.3424,-2.3155,-2.3125,-2.3095,-2.3095,-2.3095,-2.3095,-2.3095,-2.3095,-2.3095,-2.3095,-4.9018,-4.9018,-4.9018,-4.9018,-4.9018,-4.9018,-4.9018,-4.9018,-4.9018,-4.9018,-4.9018,-4.9018,-4.9018,-4.9018,-4.9018,-4.9018,-4.9018,-4.9018,-4.8765,-4.8359,-4.8308,-4.8325,-4.8156,-4.7242,-4.6397,-4.5517,-4.5173,-4.5021,-4.4993,-4.4976,-4.4604,-4.3961,-4.3572,-4.297,-4.2016,-4.1441,-4.0933,-4.051,-4.0248,-4.0113,-4.0113,-4.0113,-4.0113,-4.0113,-4.0113,-4.0113,-4.0113,-4.0113,-4.0113,-4.0113,-4.0113,-4.0113,-4.0113,-4.0113,-4.0113,-4.0113,-4.0096,-4.007,-4.0045,-3.9584,-3.9183,-3.8897,-3.8469,-3.7876,-3.7233,-3.7054,-3.6722,-3.6054,-3.5943,-3.5814,-3.5554,-3.5489,-3.5489,-3.5489,-3.4277,-3.335,-3.2826,-3.2019,-3.157,-3.1496,-3.1496,-3.1496,-3.1496,-3.1496,-3.1496,-3.1496,-3.1496,-3.1496,-3.1496,-3.1496,-3.1496,-3.1256,-3.0597,-3.0073,-2.9651,-2.8933,-2.8124,-2.7616,-2.7244,-2.6747,-2.6,-2.5673,-2.5287,-2.4234,-2.3632,-2.3185,-2.3095,-2.3095,-2.3095,-2.3095,-2.3095,-2.3095,-2.3095,-2.3095,-2.3095,-4.9018,-4.9018,-4.9018,-4.9018,-4.9018,-4.9018,-4.9018,-4.9018,-4.9018,-4.9018,-4.9018,-4.9018,-4.9018,-4.9018,-4.9018,-4.9018,-4.9018,-4.9001,-4.8984,-4.8934,-4.89,-4.8815,-4.8359,-4.7428,-4.6786,-4.638,-4.5889,-4.5652,-4.5568,-4.5449,-4.528,-4.4496,-4.3876,-4.3426,-4.2987,-4.1948,-4.1271,-4.1035,-4.0468,-4.0113,-4.0113,-4.0113,-4.0113,-4.0113,-4.0113,-4.0113,-4.0113,-4.0113,-4.0113,-4.0113,-4.0113,-4.0113,-4.0113,-4.0113,-4.0113,-4.0113,-4.0113,-4.0113,-4.0113,-4.002,-3.9731,-3.9166,-3.9032,-3.8652,-3.7991,-3.7835,-3.7544,-3.6768,-3.6584,-3.6275,-3.5782,-3.5522,-3.5477,-3.5205,-3.4188,-3.3051,-3.1765,-3.1525,-3.1511,-3.1496,-3.1496,-3.1496,-3.1496,-3.1496,-3.1496,-3.1496,-3.1496,-3.1496,-3.1496,-3.1496,-3.1496,-3.1062,-3.0492,-2.9953,-2.9547,-2.8573,-2.7854,-2.7699,-2.7408,-2.7086,-2.6602,-2.631,-2.5632,-2.4624,-2.3868,-2.3424,-2.3095,-2.3095,-2.3095,-2.3095,-2.3095,-2.3095,-2.3095,-2.3095,-2.3095,-4.9018,-4.9018,-4.9018,-4.9018,-4.9018,-4.9018,-4.9018,-4.9018,-4.9018,-4.9018,-4.9018,-4.9018,-4.9018,-4.9018,-4.9018,-4.9018,-4.9018,-4.9018,-4.9018,-4.9018,-4.9018,-4.8308,-4.7682,-4.7581,-4.7056,-4.6194,-4.5991,-4.5703,-4.5652,-4.5297,-4.4869,-4.4615,-4.4378,-4.3944,-4.3308,-4.2472,-4.1745,-4.117,-4.046,-4.0113,-4.0113,-4.0113,-4.0113,-4.0113,-4.0113,-4.0113,-4.0113,-4.0113,-4.0113,-4.0113,-4.0113,-4.0113,-4.0113,-4.0113,-4.0113,-4.0113,-4.0113,-4.0113,-4.0113,-4.0113,-3.9952,-3.9833,-3.9688,-3.9437,-3.869,-3.8608,-3.8246,-3.7557,-3.6994,-3.6584,-3.6275,-3.5863,-3.5228,-3.4173,-3.3845,-3.3081,-3.1854,-3.1496,-3.1496,-3.1496,-3.1496,-3.1496,-3.1496,-3.1496,-3.1496,-3.1496,-3.1496,-3.1496,-3.1496,-3.1496,-3.1496,-3.1122,-3.0612,-2.9983,-2.9307,-2.8304,-2.7705,-2.766,-2.7534,-2.7484,-2.7086,-2.6747,-2.5755,-2.4624,-2.4234,-2.3796,-2.3365,-2.3095,-2.3095,-2.3095,-2.3095,-2.3095,-2.3095,-2.3095,-2.3095,-4.9018,-4.9018,-4.9018,-4.9018,-4.9018,-4.9018,-4.9018,-4.9018,-4.9018,-4.9018,-4.9018,-4.9018,-4.9018,-4.9018,-4.9018,-4.9018,-4.9018,-4.9018,-4.9018,-4.9018,-4.9018,-4.8376,-4.7648,-4.7767,-4.7445,-4.6769,-4.6616,-4.6464,-4.6177,-4.5703,-4.5241,-4.4699,-4.4598,-4.4344,-4.391,-4.2811,-4.2117,-4.1559,-4.0679,-4.0113,-4.0113,-4.0113,-4.0113,-4.0113,-4.0113,-4.0113,-4.0113,-4.0113,-4.0113,-4.0113,-4.0113,-4.0113,-4.0113,-4.0113,-4.0113,-4.0113,-4.0113,-4.0113,-4.0113,-4.0113,-4.0113,-4.0096,-4.0113,-3.9876,-3.9532,-3.9394,-3.9102,-3.833,-3.7815,-3.7438,-3.71,-3.6707,-3.5676,-3.4421,-3.4181,-3.3577,-3.1748,-3.1496,-3.1496,-3.1496,-3.1496,-3.1496,-3.1496,-3.1496,-3.1496,-3.1496,-3.1496,-3.1496,-3.1496,-3.1496,-3.1451,-3.1167,-3.0718,-3.0148,-2.9535,-2.8648,-2.7809,-2.769,-2.7585,-2.7585,-2.7408,-2.7034,-2.6108,-2.5147,-2.4652,-2.4134,-2.359,-2.3185,-2.3095,-2.3095,-2.3095,-2.3095,-2.3095,-2.3095,-2.3095,-4.9018,-4.9018,-4.9018,-4.9018,-4.9018,-4.9018,-4.9018,-4.9018,-4.9018,-4.9018,-4.9018,-4.9018,-4.9018,-4.9018,-4.9018,-4.9018,-4.9018,-4.9018,-4.9018,-4.9018,-4.8968,-4.8612,-4.8139,-4.8105,-4.7956,-4.7703,-4.7872,-4.7378,-4.6769,-4.6583,-4.5867,-4.4902,-4.4598,-4.4598,-4.4175,-4.3047,-4.2371,-4.1948,-4.079,-4.0146,-4.0113,-4.0113,-4.0113,-4.0113,-4.0113,-4.0113,-4.0113,-4.0113,-4.0113,-4.0113,-4.0113,-4.0113,-4.0113,-4.0113,-4.0113,-4.0113,-4.0113,-4.0113,-4.0113,-4.0113,-4.0113,-4.0113,-4.0113,-4.0113,-3.9995,-3.9952,-3.9688,-3.9086,-3.8978,-3.8386,-3.7835,-3.7706,-3.6768,-3.5339,-3.5337,-3.4268,-3.255,-3.1703,-3.1585,-3.1496,-3.1496,-3.1496,-3.1496,-3.1496,-3.1496,-3.1496,-3.1496,-3.1496,-3.1496,-3.1496,-3.1496,-3.1421,-3.0898,-3.0313,-2.9699,-2.9041,-2.8304,-2.7779,-2.7645,-2.756,-2.7524,-2.7111,-2.6443,-2.5783,-2.5425,-2.4639,-2.3691,-2.3395,-2.3305,-2.3095,-2.3095,-2.3095,-2.3095,-2.3095,-2.3095,-4.9018,-4.9018,-4.9018,-4.9018,-4.9018,-4.9018,-4.9018,-4.9018,-4.9018,-4.9018,-4.9018,-4.9018,-4.9018,-4.9018,-4.9018,-4.9018,-4.9018,-4.9018,-4.9018,-4.9018,-4.9018,-4.8951,-4.8748,-4.8714,-4.8443,-4.8091,-4.7922,-4.7513,-4.687,-4.6227,-4.5517,-4.475,-4.4598,-4.4598,-4.4378,-4.3183,-4.2303,-4.2049,-4.0874,-4.018,-4.0113,-4.0113,-4.0113,-4.0113,-4.0113,-4.0113,-4.0113,-4.0113,-4.0113,-4.0113,-4.0113,-4.0113,-4.0113,-4.0113,-4.0113,-4.0113,-4.0113,-4.0113,-4.0113,-4.0113,-4.0113,-4.0113,-4.0113,-4.0113,-4.0113,-4.0113,-4.002,-3.9731,-3.9289,-3.869,-3.8035,-3.7851,-3.7313,-3.6519,-3.5919,-3.5341,-3.4092,-3.2956,-3.2107,-3.169,-3.1525,-3.1496,-3.1496,-3.1496,-3.1496,-3.1496,-3.1496,-3.1496,-3.1496,-3.1496,-3.1496,-3.1496,-3.1137,-3.0567,-3.0013,-2.928,-2.8408,-2.7824,-2.766,-2.7585,-2.7524,-2.7408,-2.6811,-2.6496,-2.627,-2.5287,-2.4089,-2.3855,-2.3826,-2.3471,-2.3095,-2.3095,-2.3095,-2.3095,-2.3095,-4.9018,-4.9018,-4.9018,-4.9018,-4.9018,-4.9018,-4.9018,-4.9018,-4.9018,-4.9018,-4.9018,-4.9018,-4.9018,-4.9018,-4.9018,-4.9018,-4.9018,-4.9018,-4.9018,-4.9018,-4.9018,-4.9018,-4.9018,-4.9001,-4.8765,-4.8392,-4.8054,-4.7513,-4.6786,-4.6075,-4.5348,-4.4666,-4.4598,-4.4598,-4.4479,-4.3386,-4.2675,-4.2168,-4.1221,-4.0485,-4.0163,-4.0113,-4.0113,-4.0113,-4.0113,-4.0113,-4.0113,-4.0113,-4.0113,-4.0113,-4.0113,-4.0113,-4.0113,-4.0113,-4.0113,-4.0113,-4.0113,-4.0113,-4.0113,-4.0113,-4.0113,-4.0113,-4.0113,-4.0113,-4.0113,-4.0113,-4.0113,-4.002,-3.9705,-3.9183,-3.8469,-3.8761,-3.8374,-3.7544,-3.7198,-3.6581,-3.5214,-3.359,-3.2422,-3.1959,-3.1705,-3.157,-3.1496,-3.1496,-3.1496,-3.1496,-3.1496,-3.1496,-3.1496,-3.1496,-3.1496,-3.1436,-3.1227,-3.0823,-3.0313,-2.949,-2.8397,-2.7914,-2.763,-2.7585,-2.756,-2.7458,-2.7306,-2.6956,-2.6563,-2.566,-2.4624,-2.4509,-2.4134,-2.3484,-2.3138,-2.3108,-2.3095,-2.3095,-2.3095,-4.9018,-4.9018,-4.9018,-4.9018,-4.9018,-4.9018,-4.9018,-4.9018,-4.9018,-4.9018,-4.9018,-4.9018,-4.9018,-4.9018,-4.9018,-4.9018,-4.9018,-4.9018,-4.9018,-4.9018,-4.9018,-4.9018,-4.9018,-4.9001,-4.8968,-4.8934,-4.846,-4.7767,-4.7022,-4.6227,-4.5635,-4.4919,-4.4615,-4.4615,-4.4429,-4.3656,-4.2946,-4.2489,-4.1407,-4.0747,-4.0341,-4.0231,-4.0113,-4.0113,-4.0113,-4.0113,-4.0113,-4.0113,-4.0113,-4.0113,-4.0113,-4.0113,-4.0113,-4.0113,-4.0113,-4.0113,-4.0113,-4.0113,-4.0113,-4.0113,-4.0113,-4.0113,-4.0113,-4.0113,-4.0113,-4.0113,-4.0113,-4.0113,-3.9927,-3.9756,-3.9236,-3.9506,-3.9279,-3.8603,-3.8674,-3.7938,-3.6332,-3.431,-3.3466,-3.2392,-3.2064,-3.1839,-3.16,-3.1496,-3.1496,-3.1496,-3.1496,-3.1496,-3.1496,-3.1496,-3.1496,-3.1496,-3.1331,-3.0703,-3.0148,-2.9804,-2.8697,-2.7914,-2.7585,-2.7585,-2.7585,-2.7534,-2.7382,-2.7086,-2.6549,-2.5837,-2.5398,-2.5231,-2.4639,-2.3649,-2.3318,-2.3454,-2.3335,-2.3125,-2.3095,-4.9018,-4.9018,-4.9018,-4.9001,-4.9001,-4.9018,-4.9032,-4.9018,-4.9032,-4.9001,-4.8968,-4.9001,-4.8951,-4.8968,-4.9001,-4.9001,-4.89,-4.8883,-4.8917,-4.8934,-4.8968,-4.9018,-4.9018,-4.9018,-4.9018,-4.8984,-4.8714,-4.8257,-4.7648,-4.6972,-4.6041,-4.5483,-4.4886,-4.4615,-4.4225,-4.3362,-4.298,-4.2844,-4.1627,-4.0865,-4.0764,-4.0375,-4.0113,-4.0113,-4.0113,-4.0113,-4.0113,-4.0113,-4.0113,-4.0113,-4.0113,-4.0113,-4.0113,-4.0113,-4.0113,-4.0113,-4.0113,-4.0113,-4.0113,-4.0113,-4.0113,-4.0113,-4.0113,-4.0113,-4.0113,-4.0113,-4.0113,-4.0113,-4.0113,-4.002,-3.9927,-4.002,-4.002,-3.9627,-3.9166,-3.8761,-3.804,-3.6798,-3.5,-3.3495,-3.2808,-3.2123,-3.1869,-3.1615,-3.1496,-3.1496,-3.1496,-3.1496,-3.1496,-3.1496,-3.1496,-3.1496,-3.1481,-3.0702,-2.9879,-2.9654,-2.9041,-2.8004,-2.7585,-2.7585,-2.7585,-2.7585,-2.7433,-2.7214,-2.7111,-2.68,-2.639,-2.5973,-2.5273,-2.4381,-2.4105,-2.3868,-2.3603,-2.3335,-2.3095,-4.9018,-4.9018,-4.9018,-4.9212,-4.9419,-4.9121,-4.9212,-4.9432,-4.9152,-4.8781,-4.8528,-4.8443,-4.8413,-4.8413,-4.8443,-4.8443,-4.8477,-4.8443,-4.8443,-4.8477,-4.8798,-4.9018,-4.9001,-4.9001,-4.9018,-4.8883,-4.8629,-4.8308,-4.7817,-4.6718,-4.6126,-4.5635,-4.497,-4.4598,-4.4496,-4.3988,-4.342,-4.3183,-4.2337,-4.1491,-4.1187,-4.0476,-4.0163,-4.0113,-4.0113,-4.0113,-4.0113,-4.0113,-4.0113,-4.0113,-4.0113,-4.0113,-4.0113,-4.0113,-4.0113,-4.0113,-4.0113,-4.0113,-4.0113,-4.0113,-4.0113,-4.0113,-4.0113,-4.0113,-4.0113,-4.0113,-4.0113,-4.0113,-4.0113,-4.0113,-4.007,-4.0113,-4.0113,-4.0045,-3.9688,-3.9342,-3.8896,-3.8275,-3.6698,-3.4802,-3.3926,-3.3125,-3.2123,-3.1854,-3.1585,-3.1496,-3.1496,-3.1496,-3.1496,-3.1496,-3.1496,-3.1496,-3.1436,-3.0761,-2.9968,-2.9609,-2.9112,-2.8109,-2.7585,-2.7585,-2.7585,-2.7585,-2.7585,-2.7484,-2.7433,-2.7331,-2.6826,-2.6215,-2.5646,-2.5147,-2.4709,-2.4263,-2.3826,-2.3514,-2.3305,-4.9018,-4.9018,-4.9018,-4.9316,-4.9693,-4.9372,-4.9521,-4.985,-4.9639,-4.9098,-4.8365,-4.8326,-4.8216,-4.7959,-4.7975,-4.8064,-4.8222,-4.8293,-4.8257,-4.8345,-4.8748,-4.9018,-4.8984,-4.8832,-4.8714,-4.8545,-4.7986,-4.7736,-4.7601,-4.6498,-4.5821,-4.55,-4.4959,-4.4598,-4.453,-4.4192,-4.3961,-4.3775,-4.3217,-4.2455,-4.1373,-4.0646,-4.0214,-4.0113,-4.0113,-4.0113,-4.0113,-4.0113,-4.0113,-4.0113,-4.0113,-4.0113,-4.0113,-4.0113,-4.0113,-4.0113,-4.0113,-4.0113,-4.0113,-4.0113,-4.0113,-4.0113,-4.0113,-4.0113,-4.0113,-4.0113,-4.0113,-4.0113,-4.0113,-4.0113,-4.0113,-4.0113,-4.0113,-4.0096,-4.0045,-3.9901,-3.9463,-3.8954,-3.8487,-3.6878,-3.5443,-3.4173,-3.3181,-3.2168,-3.1899,-3.1511,-3.1496,-3.1496,-3.1496,-3.1496,-3.1496,-3.1496,-3.1301,-3.0733,-3.0148,-2.9654,-2.8948,-2.7914,-2.7615,-2.7585,-2.7585,-2.7585,-2.7585,-2.7585,-2.756,-2.7408,-2.693,-2.6695,-2.6481,-2.604,-2.5259,-2.4624,-2.4163,-2.3796,-2.3573,-4.9018,-4.9018,-4.9018,-4.9063,-4.9243,-4.9634,-4.989,-5.0038,-5.0474,-5.04,-4.9293,-4.946,-4.8747,-4.8014,-4.789,-4.8616,-4.9164,-4.9107,-4.8813,-4.8745,-4.9056,-4.9158,-4.8907,-4.8291,-4.8345,-4.8213,-4.7449,-4.7378,-4.7378,-4.6389,-4.572,-4.5551,-4.501,-4.4598,-4.4547,-4.4147,-4.3876,-4.4079,-4.3149,-4.21,-4.139,-4.1102,-4.0679,-4.0265,-4.0113,-4.0113,-4.0113,-4.0113,-4.0113,-4.0113,-4.0113,-4.0113,-4.0113,-4.0113,-4.0113,-4.0113,-4.0113,-4.0113,-4.0113,-4.0113,-4.0113,-4.0113,-4.0113,-4.0113,-4.0113,-4.0113,-4.0113,-4.0113,-4.0113,-4.0113,-4.0113,-4.0113,-4.0113,-4.0113,-4.007,-4.007,-3.9833,-3.9594,-3.9149,-3.8692,-3.7161,-3.5559,-3.425,-3.3169,-3.2213,-3.1809,-3.1524,-3.1567,-3.1524,-3.1553,-3.1496,-3.1496,-3.1406,-3.0883,-3.0417,-2.9909,-2.9086,-2.7974,-2.7809,-2.772,-2.7585,-2.7585,-2.7585,-2.7585,-2.7585,-2.7585,-2.7331,-2.7214,-2.7331,-2.6916,-2.6135,-2.5287,-2.4452,-2.4134,-2.3826,-4.9739,-4.9001,-4.9018,-4.9226,-4.9593,-4.989,-4.998,-5.003,-5.0232,-4.9733,-4.8753,-4.8576,-4.8207,-4.7883,-4.8153,-4.8713,-4.9257,-4.9458,-4.9271,-4.9205,-4.9517,-4.9632,-4.9035,-4.892,-4.8886,-4.8117,-4.7671,-4.743,-4.7249,-4.6493,-4.5686,-4.5579,-4.5004,-4.4598,-4.4598,-4.4276,-4.4299,-4.4181,-4.3504,-4.2591,-4.1914,-4.139,-4.0849,-4.0163,-4.0113,-4.0113,-4.0113,-4.0113,-4.0113,-4.0113,-4.0113,-4.0113,-4.0113,-4.0113,-4.0113,-4.0113,-4.0113,-4.0113,-4.0113,-4.0113,-4.0113,-4.0113,-4.0113,-4.0113,-4.0113,-4.0113,-4.0113,-4.0113,-4.0113,-4.0113,-4.0113,-4.0113,-4.0113,-4.0113,-4.0113,-4.0113,-4.0096,-4.007,-3.9783,-3.9391,-3.8844,-3.7192,-3.5685,-3.4619,-3.3699,-3.307,-3.2671,-3.2461,-3.2132,-3.1726,-3.164,-3.1496,-3.1376,-3.1137,-3.0687,-3.0193,-2.9549,-2.8652,-2.8308,-2.8128,-2.769,-2.7585,-2.769,-2.766,-2.76,-2.76,-2.76,-2.756,-2.7484,-2.7255,-2.7008,-2.6135,-2.5259,-2.4394,-2.4044,-4.9876,-4.8978,-4.9384,-4.9809,-5.0262,-5.0235,-5.033,-5.0474,-5.0508,-4.9824,-4.877,-4.8312,-4.8105,-4.8336,-4.8762,-4.9015,-4.9457,-4.9806,-4.9429,-4.9457,-4.967,-4.9621,-4.9035,-4.9094,-4.8847,-4.8417,-4.7459,-4.7202,-4.6943,-4.643,-4.586,-4.5648,-4.5179,-4.4765,-4.4626,-4.4547,-4.4564,-4.4513,-4.4012,-4.32,-4.2354,-4.1762,-4.1001,-4.0417,-4.0113,-4.0113,-4.0113,-4.0113,-4.0113,-4.0113,-4.0113,-4.0113,-4.0113,-4.0113,-4.0113,-4.0113,-4.0113,-4.0113,-4.0113,-4.0113,-4.0113,-4.0113,-4.0113,-4.0113,-4.0113,-4.0113,-4.0113,-4.0113,-4.0113,-4.0113,-4.0113,-4.0113,-4.0113,-4.0113,-4.0113,-4.0113,-4.0113,-4.007,-4.007,-3.9825,-3.9326,-3.8762,-3.7371,-3.6249,-3.5318,-3.4461,-3.3936,-3.3429,-3.2906,-3.2284,-3.2076,-3.202,-3.189,-3.1566,-3.079,-3.0295,-2.9684,-2.934,-2.9011,-2.8742,-2.8408,-2.8079,-2.8008,-2.7914,-2.7764,-2.76,-2.7585,-2.7585,-2.756,-2.7408,-2.7188,-2.6852,-2.6122,-2.5203,-2.4216,-4.8819,-4.8849,-5.0329,-5.0885,-5.091,-5.0886,-5.1196,-5.1418,-5.1664,-5.1508,-5.0763,-4.9575,-4.9119,-4.9864,-4.9359,-4.9543,-5.0631,-5.0151,-4.9532,-4.905,-4.8823,-4.9039,-4.8715,-4.8366,-4.8021,-4.7737,-4.731,-4.6908,-4.6619,-4.685,-4.6132,-4.5572,-4.5555,-4.5123,-4.4906,-4.4934,-4.4879,-4.4879,-4.4674,-4.3746,-4.2836,-4.2121,-4.1536,-4.04,-4.0113,-4.0113,-4.0113,-4.0113,-4.0113,-4.0113,-4.0113,-4.0113,-4.0113,-4.0113,-4.0113,-4.0113,-4.0113,-4.0113,-4.0113,-4.0113,-4.0113,-4.0113,-4.0113,-4.0113,-4.0113,-4.0113,-4.0113,-4.0113,-4.0113,-4.0113,-4.0113,-4.0113,-4.0113,-4.0113,-4.0113,-4.0113,-4.0113,-4.0096,-4.0113,-4.0087,-3.9716,-3.9127,-3.8438,-3.7186,-3.6133,-3.5258,-3.4309,-3.3761,-3.3633,-3.3156,-3.2906,-3.2734,-3.2598,-3.2023,-3.09,-3.0453,-3.0428,-3.0033,-2.9579,-2.9445,-2.9307,-2.8966,-2.8517,-2.8308,-2.8199,-2.7884,-2.7645,-2.7779,-2.7809,-2.766,-2.7467,-2.7354,-2.6854,-2.5967,-2.4807,-4.9981,-5.0071,-5.0691,-5.0413,-4.9677,-5.0007,-5.0069,-5.0069,-5.0848,-5.0949,-5.0508,-4.9135,-4.9007,-4.9649,-4.9747,-4.984,-5.0724,-5.0624,-4.9905,-4.9691,-4.9619,-4.9325,-4.8931,-4.8594,-4.8629,-4.8073,-4.766,-4.7575,-4.7653,-4.7449,-4.7194,-4.6774,-4.6305,-4.5989,-4.5757,-4.5571,-4.5622,-4.563,-4.5501,-4.4808,-4.3279,-4.2799,-4.2005,-4.0265,-4.0113,-4.0113,-4.0113,-4.0113,-4.0113,-4.0121,-4.0146,-4.0146,-4.0121,-4.0121,-4.0113,-4.0113,-4.0113,-4.0113,-4.0113,-4.0113,-4.0113,-4.0113,-4.0113,-4.0113,-4.0113,-4.0113,-4.0113,-4.0113,-4.0113,-4.0113,-4.0113,-4.0113,-4.0113,-4.0113,-4.0113,-4.0113,-4.0113,-4.0113,-4.0113,-4.0113,-3.9876,-3.9446,-3.8736,-3.7952,-3.6937,-3.5971,-3.4996,-3.4227,-3.4137,-3.3987,-3.3675,-3.3417,-3.3261,-3.2906,-3.1847,-3.1549,-3.1366,-3.0812,-3.0218,-3.0073,-2.9953,-2.9535,-2.9146,-2.8891,-2.8622,-2.8393,-2.8229,-2.8154,-2.8023,-2.7869,-2.795,-2.8124,-2.7465,-2.6707,-2.5679,-5.005,-5.0068,-5.005,-4.9944,-4.972,-4.992,-5.0007,-5.0094,-5.0819,-5.0692,-4.9904,-4.9114,-4.9003,-4.9482,-4.9609,-4.979,-5.0265,-5.0263,-4.9826,-4.9548,-4.9382,-4.9279,-4.8893,-4.8671,-4.8645,-4.8379,-4.8324,-4.8248,-4.8172,-4.8287,-4.7995,-4.7554,-4.7198,-4.6869,-4.6318,-4.6389,-4.6389,-4.6389,-4.6236,-4.5488,-4.379,-4.3469,-4.2671,-4.0995,-4.0737,-4.072,-4.0761,-4.0784,-4.0744,-4.0666,-4.0521,-4.0368,-4.0286,-4.0204,-4.0121,-4.0096,-4.0096,-4.0096,-4.0113,-4.0113,-4.0113,-4.0113,-4.0113,-4.0113,-4.0113,-4.0113,-4.0113,-4.0113,-4.0113,-4.0113,-4.0113,-4.0113,-4.0113,-4.0113,-4.0113,-4.0113,-4.0113,-4.0113,-4.0113,-4.0096,-3.9859,-3.9656,-3.8751,-3.7973,-3.6932,-3.6112,-3.5496,-3.4911,-3.4887,-3.4657,-3.435,-3.4128,-3.3937,-3.3479,-3.2992,-3.2462,-3.1943,-3.1692,-3.1139,-3.07,-3.0477,-3.0103,-2.9681,-2.9292,-2.9052,-2.8903,-2.8783,-2.8637,-2.8353,-2.8079,-2.8364,-2.875,-2.8223,-2.7498,-2.6806,-4.8434,-4.8361,-4.8434,-4.9716,-5.1355,-5.1037,-5.1401,-5.1998,-5.1825,-5.1242,-5.0435,-4.9702,-4.9445,-4.9555,-4.95,-4.9574,-4.9702,-4.9665,-4.9224,-4.8765,-4.8746,-4.8434,-4.8398,-4.8434,-4.8526,-4.8379,-4.8324,-4.8324,-4.8324,-4.8324,-4.8229,-4.821,-4.7917,-4.7554,-4.653,-4.6413,-4.6413,-4.6436,-4.653,-4.5661,-4.4648,-4.4271,-4.3368,-4.2092,-4.1679,-4.1652,-4.1437,-4.142,-4.1397,-4.1375,-4.1082,-4.092,-4.0874,-4.0521,-4.0336,-4.0204,-4.0196,-4.0146,-4.0113,-4.0113,-4.0113,-4.0113,-4.0113,-4.0113,-4.0113,-4.0113,-4.0113,-4.0113,-4.0113,-4.0113,-4.0113,-4.0113,-4.0113,-4.0113,-4.0113,-4.0113,-4.0113,-4.0113,-4.0113,-4.0113,-4.0028,-3.9757,-3.8826,-3.7872,-3.6806,-3.6084,-3.5752,-3.5554,-3.5424,-3.527,-3.4887,-3.4776,-3.4568,-3.4186,-3.3684,-3.3013,-3.2536,-3.2333,-3.1924,-3.1321,-3.0987,-3.0761,-3.0283,-2.9741,-2.9654,-2.9729,-2.943,-2.9116,-2.9011,-2.8966,-2.9127,-2.9253,-2.876,-2.841,-2.7911,-4.8324,-4.8324,-4.8324,-4.9095,-5.029,-5.0143,-5.0362,-5.071,-5.051,-5.0233,-4.9866,-4.9114,-4.9133,-4.9298,-4.9058,-4.9058,-4.9427,-4.8838,-4.8416,-4.8379,-4.8324,-4.8324,-4.8324,-4.8324,-4.8324,-4.8324,-4.8324,-4.8324,-4.8324,-4.8324,-4.8324,-4.8324,-4.8287,-4.8094,-4.7759,-4.7638,-4.7677,-4.7677,-4.7565,-4.7008,-4.5734,-4.5419,-4.4589,-4.2736,-4.2665,-4.2417,-4.2061,-4.2065,-4.2029,-4.1955,-4.1599,-4.1512,-4.149,-4.1173,-4.099,-4.075,-4.0625,-4.0441,-4.0229,-4.0113,-4.0113,-4.0113,-4.0113,-4.0113,-4.0113,-4.0113,-4.0113,-4.0113,-4.0113,-4.0113,-4.0113,-4.0113,-4.0113,-4.0113,-4.0113,-4.0113,-4.0113,-4.0113,-4.0113,-4.0113,-4.0062,-3.9757,-3.9022,-3.8379,-3.7398,-3.6654,-3.6349,-3.5785,-3.5549,-3.5532,-3.5356,-3.5339,-3.5184,-3.4823,-3.4358,-3.3684,-3.3039,-3.2664,-3.2158,-3.1506,-3.1286,-3.1167,-3.0806,-3.0193,-3.0417,-3.0584,-3.0148,-2.9834,-2.9968,-3.0043,-3.0013,-3.0208,-3.0168,-2.9866,-2.946,-4.8324,-4.8324,-4.8324,-4.8618,-4.917,-4.9463,-4.9739,-4.9903,-4.9739,-4.9592,-4.9427,-4.871,-4.8581,-4.8857,-4.8673,-4.8489,-4.9058,-4.8618,-4.8324,-4.8324,-4.8324,-4.8324,-4.8324,-4.8324,-4.8324,-4.8324,-4.8324,-4.8324,-4.8324,-4.8324,-4.8324,-4.8324,-4.8324,-4.8248,-4.8191,-4.8191,-4.8209,-4.8172,-4.8021,-4.7633,-4.6726,-4.6118,-4.5436,-4.4367,-4.378,-4.338,-4.2981,-4.2763,-4.2635,-4.2452,-4.2223,-4.2121,-4.208,-4.1856,-4.1643,-4.1313,-4.0949,-4.0655,-4.0237,-4.0113,-4.0113,-4.0113,-4.0113,-4.0113,-4.0113,-4.0113,-4.0113,-4.0113,-4.0113,-4.0113,-4.0113,-4.0113,-4.0113,-4.0113,-4.0113,-4.0113,-4.0113,-4.0113,-4.0113,-4.0113,-4.0062,-3.9706,-3.9394,-3.8819,-3.8125,-3.7533,-3.6975,-3.636,-3.5785,-3.5718,-3.5667,-3.56,-3.5577,-3.527,-3.4871,-3.4399,-3.3726,-3.3066,-3.2422,-3.1796,-3.1481,-3.1331,-3.0987,-3.0748,-3.0883,-3.0913,-3.0702,-3.0552,-3.0672,-3.0702,-3.0672,-3.0943,-3.1436,-3.1096,-3.0521,-4.8324,-4.8324,-4.8324,-4.8324,-4.8471,-4.915,-4.9921,-5.0618,-4.9921,-4.9574,-4.9445,-4.86,-4.8416,-4.8361,-4.8324,-4.8361,-4.8434,-4.8343,-4.8324,-4.8324,-4.8324,-4.8324,-4.8324,-4.8324,-4.8324,-4.8324,-4.8361,-4.8416,-4.8379,-4.8563,-4.8545,-4.8324,-4.8324,-4.8324,-4.8324,-4.8324,-4.8324,-4.8324,-4.825,-4.79,-4.7273,-4.6634,-4.6211,-4.5549,-4.5167,-4.4674,-4.4346,-4.4218,-4.3889,-4.347,-4.2958,-4.2789,-4.2539,-4.2165,-4.1958,-4.1664,-4.1291,-4.0797,-4.0449,-4.041,-4.0229,-4.0279,-4.0121,-4.0121,-4.0113,-4.0113,-4.0113,-4.0113,-4.0113,-4.0113,-4.0113,-4.0113,-4.0113,-4.0113,-4.0113,-4.0113,-4.0113,-4.0113,-4.0113,-4.0113,-4.0113,-3.9943,-3.9842,-3.9385,-3.8819,-3.8396,-3.7804,-3.7212,-3.662,-3.5994,-3.5893,-3.5616,-3.56,-3.56,-3.5247,-3.4793,-3.4333,-3.3659,-3.2868,-3.2216,-3.1894,-3.1552,-3.1227,-3.1092,-3.1271,-3.1241,-3.1032,-3.1092,-3.1301,-3.1271,-3.1092,-3.1182,-3.1496,-3.1496,-3.1081,-4.8324,-4.8324,-4.8324,-4.8324,-4.8343,-4.8581,-4.9169,-4.9831,-4.9647,-4.9317,-4.8655,-4.8434,-4.8324,-4.8324,-4.8324,-4.8324,-4.8324,-4.8324,-4.8324,-4.8324,-4.8324,-4.8324,-4.8324,-4.8324,-4.8324,-4.8324,-4.8379,-4.8563,-4.904,-4.9132,-4.871,-4.8398,-4.8324,-4.8324,-4.8324,-4.8324,-4.8324,-4.8324,-4.8324,-4.8103,-4.7901,-4.748,-4.7131,-4.6691,-4.6324,-4.5718,-4.5003,-4.4745,-4.4268,-4.3574,-4.3357,-4.325,-4.3232,-4.3069,-4.2922,-4.2402,-4.1916,-4.1464,-4.1286,-4.0897,-4.0679,-4.0594,-4.041,-4.0121,-4.0113,-4.0146,-4.0146,-4.0113,-4.0113,-4.0113,-4.0113,-4.0113,-4.0113,-4.0113,-4.0113,-4.0113,-4.0113,-4.0113,-4.0113,-4.0113,-4.0113,-4.0096,-4.0028,-3.9943,-3.9453,-3.9106,-3.8667,-3.8075,-3.7432,-3.6806,-3.6383,-3.6107,-3.5825,-3.5893,-3.5508,-3.5055,-3.4704,-3.4235,-3.3469,-3.2788,-3.2422,-3.2046,-3.1562,-3.1405,-3.1492,-3.1508,-3.1421,-3.1496,-3.1496,-3.1496,-3.1361,-3.1436,-3.1496,-3.1496,-3.1496,-4.8012,-4.8288,-4.8324,-4.8324,-4.8324,-4.8324,-4.8636,-4.904,-4.9077,-4.8746,-4.8361,-4.8324,-4.8324,-4.8324,-4.8324,-4.8324,-4.8324,-4.8324,-4.8324,-4.8324,-4.8324,-4.8324,-4.8324,-4.8324,-4.8324,-4.8324,-4.8361,-4.8489,-4.9022,-4.9058,-4.8673,-4.8379,-4.8324,-4.8324,-4.8324,-4.8324,-4.8324,-4.8324,-4.8324,-4.8324,-4.8233,-4.8067,-4.7645,-4.7516,-4.7149,-4.6067,-4.5278,-4.4966,-4.4268,-4.3626,-4.3497,-4.3479,-4.3479,-4.3444,-4.3214,-4.2713,-4.2382,-4.1979,-4.1703,-4.1446,-4.1313,-4.1196,-4.0938,-4.0868,-4.057,-4.049,-4.0279,-4.0113,-4.0113,-4.0113,-4.0113,-4.0113,-4.0113,-4.0113,-4.0113,-4.0113,-4.0113,-4.0113,-4.0113,-4.0113,-4.0113,-4.0113,-4.0096,-4.0113,-4.0045,-3.9706,-3.9377,-3.8988,-3.8328,-3.7635,-3.7263,-3.6969,-3.6518,-3.6214,-3.5772,-3.5398,-3.4998,-3.464,-3.4186,-3.3572,-3.3066,-3.2718,-3.24,-3.2015,-3.1667,-3.1625,-3.1524,-3.1496,-3.1496,-3.1496,-3.1496,-3.1496,-3.1496,-3.1496,-3.1496,-4.7424,-4.8086,-4.8177,-4.8233,-4.8324,-4.8324,-4.8343,-4.8324,-4.8379,-4.8324,-4.8324,-4.8324,-4.8324,-4.8324,-4.8324,-4.8324,-4.8324,-4.8324,-4.8324,-4.8324,-4.8324,-4.8324,-4.8324,-4.8324,-4.8324,-4.8324,-4.8343,-4.8398,-4.8361,-4.8581,-4.8746,-4.8343,-4.8324,-4.8324,-4.8324,-4.8324,-4.8324,-4.8324,-4.8324,-4.8306,-4.8122,-4.7773,-4.748,-4.7846,-4.7076,-4.5957,-4.5681,-4.5112,-4.4323,-4.3791,-4.3479,-4.3479,-4.3479,-4.3479,-4.3196,-4.3014,-4.2808,-4.258,-4.2284,-4.2021,-4.1916,-4.1853,-4.181,-4.1617,-4.1241,-4.0938,-4.0713,-4.0642,-4.0689,-4.0713,-4.0713,-4.049,-4.0392,-4.0286,-4.0229,-4.0171,-4.0113,-4.0113,-4.0113,-4.0113,-4.0113,-4.0113,-4.0113,-4.0113,-4.0113,-4.0011,-3.9893,-3.9597,-3.9225,-3.8514,-3.8058,-3.7713,-3.7009,-3.6518,-3.6326,-3.5896,-3.5354,-3.4958,-3.4616,-3.4284,-3.3735,-3.3479,-3.3313,-3.2691,-3.202,-3.171,-3.1582,-3.1524,-3.1496,-3.1496,-3.1496,-3.1496,-3.1496,-3.1496,-3.1496,-4.6305,-4.6544,-4.7113,-4.7718,-4.8269,-4.8324,-4.8306,-4.8324,-4.8324,-4.8269,-4.8306,-4.8288,-4.8269,-4.8195,-4.8288,-4.8324,-4.8324,-4.8324,-4.8324,-4.8324,-4.8324,-4.8324,-4.8324,-4.8324,-4.8324,-4.8324,-4.8324,-4.8324,-4.8379,-4.8691,-4.8838,-4.8379,-4.8324,-4.8324,-4.8324,-4.8324,-4.8324,-4.8324,-4.8324,-4.8324,-4.8233,-4.8233,-4.814,-4.8012,-4.7241,-4.6379,-4.5883,-4.5076,-4.4305,-4.3663,-4.3516,-4.3479,-4.3479,-4.3479,-4.3427,-4.3339,-4.3268,-4.3105,-4.294,-4.2638,-4.2482,-4.2304,-4.2165,-4.1916,-4.1703,-4.1508,-4.1397,-4.1375,-4.1331,-4.1308,-4.1218,-4.0938,-4.0703,-4.057,-4.0417,-4.0286,-4.0171,-4.0121,-4.0121,-4.0113,-4.0113,-4.0113,-4.0113,-4.0113,-4.0113,-4.0096,-4.0079,-3.996,-3.9926,-3.9411,-3.8768,-3.8278,-3.7297,-3.6829,-3.6705,-3.6343,-3.5761,-3.5281,-3.4918,-3.464,-3.4382,-3.4012,-3.3633,-3.296,-3.2394,-3.2007,-3.1682,-3.1524,-3.1496,-3.1496,-3.1496,-3.1496,-3.1496,-3.1496,-3.1496,-4.5571,-4.5957,-4.6379,-4.7039,-4.7681,-4.7755,-4.7755,-4.7755,-4.7773,-4.7572,-4.7425,-4.7884,-4.8103,-4.7957,-4.8103,-4.8324,-4.8324,-4.8324,-4.8324,-4.8324,-4.8324,-4.8324,-4.8324,-4.8324,-4.8324,-4.8324,-4.8324,-4.8343,-4.8398,-4.8545,-4.8581,-4.8361,-4.8324,-4.8324,-4.8324,-4.8324,-4.8324,-4.8324,-4.8324,-4.8324,-4.8324,-4.8324,-4.8324,-4.8067,-4.7278,-4.6489,-4.5718,-4.4892,-4.4048,-4.3608,-4.3497,-4.3479,-4.3479,-4.3479,-4.3479,-4.3462,-4.3462,-4.3479,-4.3392,-4.3232,-4.3014,-4.2828,-4.2791,-4.2658,-4.2715,-4.2523,-4.2044,-4.1982,-4.166,-4.1595,-4.1578,-4.1358,-4.1331,-4.1241,-4.1105,-4.1007,-4.0618,-4.0286,-4.0204,-4.0113,-4.0113,-4.0113,-4.0113,-4.0113,-4.0113,-4.0113,-4.0113,-4.0113,-4.0113,-4.0113,-3.952,-3.8996,-3.8099,-3.7466,-3.7347,-3.6823,-3.6118,-3.5671,-3.5392,-3.5205,-3.5051,-3.4456,-3.3887,-3.3366,-3.2757,-3.216,-3.1866,-3.1611,-3.1496,-3.1496,-3.1496,-3.1496,-3.1496,-3.1496,-3.1496,-4.5021,-4.57,-4.5736,-4.6214,-4.6874,-4.6947,-4.6947,-4.6947,-4.6947,-4.6526,-4.6104,-4.7443,-4.759,-4.7571,-4.7901,-4.814,-4.8324,-4.8324,-4.8324,-4.8324,-4.8324,-4.8324,-4.8324,-4.8324,-4.8324,-4.8324,-4.8324,-4.8324,-4.8343,-4.8453,-4.8453,-4.8343,-4.8324,-4.8324,-4.8324,-4.8324,-4.8324,-4.8324,-4.8324,-4.8324,-4.8324,-4.8324,-4.8324,-4.7774,-4.6966,-4.614,-4.5571,-4.4874,-4.3975,-4.3606,-4.3589,-4.3479,-4.3479,-4.3479,-4.3479,-4.3479,-4.3479,-4.3479,-4.3462,-4.3444,-4.341,-4.3427,-4.3479,-4.3462,-4.3444,-4.3214,-4.2735,-4.2485,-4.2185,-4.2062,-4.2044,-4.1937,-4.1937,-4.1853,-4.1768,-4.1512,-4.0984,-4.0473,-4.0336,-4.0196,-4.0113,-4.0113,-4.0113,-4.0113,-4.0113,-4.0113,-4.0113,-4.0113,-4.0113,-4.0113,-3.9842,-3.9605,-3.9165,-3.8616,-3.8142,-3.7449,-3.6721,-3.6574,-3.6356,-3.6095,-3.5773,-3.5454,-3.4865,-3.389,-3.3271,-3.2594,-3.1951,-3.1553,-3.1496,-3.1496,-3.1496,-3.1496,-3.1496,-3.1496,-3.1496,-4.4195,-4.4947,-4.4911,-4.5388,-4.6067,-4.6122,-4.6122,-4.614,-4.6122,-4.5663,-4.5535,-4.6507,-4.7186,-4.7149,-4.7957,-4.8306,-4.8324,-4.8324,-4.8324,-4.8324,-4.8324,-4.8324,-4.8324,-4.8324,-4.8324,-4.8324,-4.8324,-4.8324,-4.8324,-4.8324,-4.8324,-4.8324,-4.8324,-4.8324,-4.8324,-4.8324,-4.8324,-4.8324,-4.8324,-4.8324,-4.8324,-4.8324,-4.8324,-4.7883,-4.7388,-4.7003,-4.6599,-4.5938,-4.5168,-4.4507,-4.3864,-4.3571,-4.3479,-4.3479,-4.3479,-4.3479,-4.3479,-4.3479,-4.3479,-4.3479,-4.3479,-4.3479,-4.3479,-4.3479,-4.3462,-4.3462,-4.3178,-4.3178,-4.2977,-4.2977,-4.2922,-4.2619,-4.2501,-4.2362,-4.2223,-4.1643,-4.1064,-4.0797,-4.0594,-4.0336,-4.0113,-4.0113,-4.0113,-4.0113,-4.0113,-4.0113,-4.0113,-4.0113,-4.0113,-4.0113,-4.0113,-3.9994,-3.9876,-3.952,-3.8911,-3.8193,-3.7584,-3.7466,-3.733,-3.7003,-3.6817,-3.6738,-3.6021,-3.4769,-3.3788,-3.3054,-3.2413,-3.1625,-3.1496,-3.1496,-3.1496,-3.1496,-3.1496,-3.154,-3.157]},{"header":{"parameterUnit":"m.s-1","parameterCategory":1,"la1":31.0,"la2":29.5877,"lo1":-88.7671,"lo2":-86.6584,"dy":0.0162,"dx":0.0185,"nx":115,"ny":88,"refTime":"2023-06-30T06:00:00:Z","depth":0,"parameterNumber":3,"parameterNumberName":"V-component_of_WINDS"},"data":[0.0,0.0,0.0,0.0,0.0,0.0,0.0,0.0,0.0,0.0,0.0,0.0,0.0,0.0,0.0,0.0,0.0,0.0,0.0,0.0,0.0,0.0,0.0,0.0,0.0,0.0,0.0,0.0,0.0,0.0,0.0,0.0,0.0,0.0,0.0,0.0,0.0,0.0,0.0,0.0,0.0,0.0,0.0,0.0,0.0,0.0,0.0,0.0,0.0,0.0,0.0,0.0,0.0,0.0,0.0,0.0,0.0,0.0,0.0,0.0,0.0,0.0,0.0,0.0,0.0,0.0,0.0,0.0,0.0,0.0,0.0,0.0,0.0,0.0,0.0,0.0,0.0,0.0,0.0,0.0,0.0,0.0,0.0,0.0,0.0,0.0,0.0,0.0,0.0,0.0,0.0,0.0,0.0,0.0,0.0,0.0,0.0,0.0,0.0,0.0,0.0,0.0,0.0,0.0,0.0,0.0,0.0,0.0,0.0,0.0,0.0,0.0,0.0,0.0,0.0,0.0,0.0,0.0,0.0,0.0,0.0,0.0,0.0,0.0,0.0,0.0,0.0,0.0,0.0,0.0,0.0,0.0,0.0,0.0,0.0,0.0,0.0,0.0,0.0,0.0,0.0,0.0,0.0,0.0,0.0,0.0,0.0,0.0,0.0,0.0,0.0,0.0,0.0,0.0,0.0,0.0,0.0,0.0,0.0,0.0,0.0,0.0,0.0,0.0,0.0,0.0,0.0,0.0,0.0,0.0,0.0,0.0,0.0,0.0,0.0,0.0,0.0,0.0,0.0,0.0,0.0,0.0,0.0,0.0,0.0,0.0,0.0,0.0,0.0,0.0,0.0,0.0,0.0,0.0,0.0,0.0,0.0,0.0,0.0,0.0,0.0,0.0,0.0,0.0,0.0,0.0,0.0,0.0,0.0,0.0,0.0,0.0,0.0,0.0,0.0,0.0,0.0,0.0,0.0,0.0,0.0,0.0,0.0,0.0,0.0,0.0,0.0,0.0,0.0,0.0,0.0,0.0,0.0,0.0,0.0,0.0,0.0,0.0,0.0,0.0,0.0,0.0,0.0,0.0,0.0,0.0,0.0,0.0,0.0,0.0,0.0,0.0,0.0,0.0,0.0,0.0,0.0,0.0,0.0,0.0,0.0,0.0,0.0,0.0,0.0,0.0,0.0,0.0,0.0,0.0,0.0,0.0,0.0,0.0,0.0,0.0,0.0,0.0,0.0,0.0,0.0,0.0,0.0,0.0,0.0,0.0,0.0,0.0,0.0,0.0,0.0,0.0,0.0,0.0,0.0,0.0,0.0,0.0,0.0,0.0,0.0,0.0,0.0,0.0,0.0,0.0,0.0,0.0,0.0,0.0,0.0,0.0,0.0,0.0,0.0,0.0,0.0,0.0,0.0,0.0,0.0,0.0,0.0,0.0,0.0,0.0,0.0,0.0,0.0,0.0,0.0,0.0,0.0,0.0,0.0,0.0,0.0,0.0,0.0,0.0,0.0,0.0,0.0,0.0,0.0,0.0,0.0,0.0,0.0,0.0,0.0,0.0,0.0,0.0,0.0,0.0,0.0,0.0,0.0,0.0,0.0,0.0,0.0,0.0,0.0,0.0,0.0,0.0,0.0,0.0,0.0,0.0,0.0,0.0,0.0,0.0,0.0,0.0,0.0,0.0,0.0,0.0,0.0,0.0,0.0,0.0,0.0,0.0,0.0,0.0,0.0,0.0,0.0,0.0,0.0,0.0,0.0,0.0,0.0,0.0,0.0,0.0,0.0,0.0,0.0,0.0,0.0,0.0,0.0,0.0,0.0,0.0,0.0,0.0,0.0,0.0,0.0,0.0,0.0,0.0,0.0,0.0,0.0,0.0,0.0,0.0,0.0,0.0,0.0,0.0,0.0,0.0,0.0,0.0,0.0,0.0,0.0,0.0,0.0,0.0,0.0,0.0,0.0,0.0,0.0,0.0,0.0,0.0,0.0,0.0,0.0,0.0,0.0,0.0,0.0,0.0,0.0,0.0,0.0,0.0,0.0,0.0,0.0,0.0,0.0,0.0,0.0,0.0,0.0,0.0,0.0,0.0,0.0,0.0,0.0,0.0,0.0,0.0,0.0,0.0,0.0,0.0,0.0,0.0,0.0,0.0,0.0,0.0,0.0,0.0,0.0,0.0,0.0,0.0,0.0,0.0,0.0,0.0,0.0,0.0,0.0,0.0,0.0,0.0,0.0,0.0,0.0,0.0,0.0,0.0,0.0,0.0,0.0,0.0,0.0,0.0,0.0,0.0,0.0,0.0,0.0,0.0,0.0,0.0,0.0,0.0,0.0,0.0,0.0,0.0,0.0,0.0,0.0,0.0,0.0,0.0,0.0,0.0,0.0,0.0,0.0,0.0,0.0,0.0,0.0,0.0,0.0,0.0,0.0,0.0,0.0,0.0,0.0,0.0,0.0,0.0,0.0,0.0,0.0,0.0,0.0,0.0,0.0,0.0,0.0,0.0,0.0,0.0,0.0,0.0,0.0,0.0,0.0,0.0,0.0,0.0,0.0,0.0,0.0,0.0,0.0,0.0,0.0,0.0,0.0,0.0,0.0,0.0,0.0,0.0,0.0,0.0,0.0,0.0,0.0,0.0,0.0,0.0,0.0,0.0,0.0,0.0,0.0,0.0,0.0,0.0,0.0,0.0,0.0,0.0,0.0,0.0,0.0,0.0,0.0,0.0,0.0,0.0,0.0,0.0,0.0,0.0,0.0,0.0,0.0,0.0,0.0,0.0,0.0,0.0,0.0,0.0,0.0,0.0,0.0,0.0,0.0,0.0,0.0,0.0,0.0,0.0,0.0,0.0,0.0,0.0,0.0,0.0,0.0,0.0,0.0,0.0,0.0,0.0,0.0,0.0,0.0,0.0,0.0,0.0,0.0,0.0,0.0,0.0,0.0,0.0,0.0,0.0,0.0,0.0,0.0,0.0,0.0,0.0,0.0,0.0,0.0,0.0,0.0,0.0,0.0,0.0,0.0,0.0,0.0,0.0,0.0,0.0,0.0,0.0,0.0,0.0,0.0,0.0,0.0,0.0,0.0,0.0,0.0,0.0,0.0,0.0,0.0,0.0,0.0,0.0,0.0,0.0,0.0,0.0,0.0,0.0,0.0,0.0,0.0,0.0,0.0,0.0,0.0,0.0,0.0,0.0,0.0,0.0,0.0,0.0,0.0,0.0,0.0,0.0,0.0,0.0,0.0,0.0,0.0,0.0,0.0,0.0,0.0,0.0,0.0,0.0,0.0,0.0,0.0,0.0,0.0,0.0,0.0,0.0,0.0,0.0,0.0,0.0,0.0,0.0,0.0,0.0,0.0,0.0,0.0,0.0,0.0,0.0,0.0,0.0,0.0,0.0,0.0,0.0,0.0,0.0,0.0,0.0,0.0,0.0,0.0,0.0,0.0,0.0,0.0,0.0,0.0,0.0,0.0,0.0,0.0,0.0,0.0,0.0,0.0,0.0,0.0,0.0,0.0,0.0,0.0,0.0,0.0,0.0,0.0,0.0,0.0,0.0,0.0,0.0,0.0,0.0,0.0,0.0,0.0,0.0,0.0,0.0,0.0,0.0,0.0,0.0,0.0,0.0,0.0,0.0,0.0,0.0,0.0,0.0,0.0,0.0,0.0,0.0,0.0,0.0,0.0,0.0,0.0,0.0,0.0,0.0,0.0,0.0,0.0,0.0,0.0,0.0,0.0,0.0,0.0,0.0,0.0,0.0,0.0,0.0,0.0,0.0,0.0,0.0,0.0,0.0,0.0,0.0,0.0,0.0,0.0,0.0,0.0,0.0,0.0,0.0,0.0,0.0,0.0,0.0,0.0,0.0,0.0,0.0,0.0,0.0,0.0,0.0,0.0,0.0,0.0,0.0,0.0,0.0,0.0,0.0,0.0,0.0,0.0,0.0,0.0,0.0,0.0,0.0,0.0,0.0,0.0,0.0,0.0,0.0,0.0,0.0,0.0,0.0,0.0,0.0,0.0,0.0,0.0,0.0,0.0,0.0,0.0,0.0,0.0,0.0,0.0,0.0,0.0,0.0,0.0,0.0,0.0,0.0,0.0,0.0,0.0,0.0,0.0,0.0,0.0,0.0,0.0,0.0,0.0,0.0,0.0,0.0,0.0,0.0,0.0,0.0,0.0,0.0,0.0,0.0,0.0,0.0,0.0,0.0,0.0,0.0,0.0,0.0,0.0,0.0,0.0,0.0,0.0,0.0,0.0,0.0,0.0,0.0,-0.5098,0.0,0.0,0.0,0.0,0.0,0.0,0.0,0.0,0.0,0.0,0.0,0.0,0.0,0.0,0.0,0.0,0.0,0.0,0.0,0.0,0.0,0.0,0.0,0.0,0.0,0.0,0.0,0.0,0.0,0.0,0.0,0.0,0.0,0.0,0.0,0.0,0.0,0.0,0.0,0.0,0.0,0.0,0.0,0.0,0.0,0.0,0.0,0.0,0.0,0.0,0.0,0.0,0.0,0.0,0.0,0.0,0.0,0.0,0.0,0.0,0.0,0.0,0.0,0.0,0.0,0.0,0.0,0.0,0.0,0.0,0.0,0.0,0.0,0.0,0.0,0.0,0.0,0.0,0.0,0.0,0.0,0.0,0.0,0.0,0.0,0.0,0.0,0.0,0.0,0.0,0.0,0.0,0.0,0.0,0.0,0.0,0.0,0.0,0.0,0.0,0.0,0.0,0.0,0.0,0.0,0.0,0.0,0.0,0.0,0.0,-0.5098,-0.5098,-0.5098,-0.5098,-0.5098,0.0,0.0,0.0,0.0,0.0,0.0,0.0,0.0,0.0,0.0,0.0,0.0,0.0,0.0,0.0,0.0,0.0,0.0,0.0,0.0,0.0,0.0,0.0,0.0,0.0,0.0,0.0,0.0,0.0,0.0,0.0,0.0,0.0,0.0,0.0,0.0,0.0,0.0,0.0,0.0,0.0,0.0,0.0,0.0,0.0,0.0,0.0,0.0,0.0,0.0,0.0,0.0,0.0,0.0,0.0,0.0,0.0,0.0,0.0,0.0,0.0,0.0,0.0,0.0,0.0,0.0,0.0,0.0,0.0,0.0,0.0,0.0,0.0,0.0,0.0,0.0,0.0,0.0,0.0,0.0,0.0,0.0,0.0,0.0,0.0,0.0,0.0,0.0,0.0,0.0,0.0,0.0,0.0,0.0,0.0,0.0,0.0,0.0,0.0,0.0,0.0,0.0,0.0,0.0,0.0,0.0,0.0,0.0,0.0,0.0,0.0,0.0,-0.5108,-0.5127,-0.5137,0.0,0.0,0.0,0.0,0.0,0.0,0.0,0.0,0.0,0.0,0.0,0.0,0.0,0.0,0.0,0.0,0.0,0.0,0.0,0.0,0.0,0.0,0.0,0.0,0.0,0.0,0.0,0.0,0.0,0.0,0.0,0.0,0.0,0.0,0.0,0.0,0.0,0.0,0.0,0.0,0.0,0.0,0.0,0.0,0.0,0.0,0.0,0.0,0.0,0.0,0.0,0.0,0.0,0.0,0.0,0.0,0.0,0.0,0.0,0.0,0.0,0.0,0.0,0.0,0.0,0.0,0.0,0.0,0.0,0.0,0.0,0.0,0.0,0.0,0.0,0.0,0.0,0.0,0.0,0.0,0.0,0.0,0.0,0.0,0.0,0.0,0.0,0.0,0.0,0.0,0.0,0.0,0.0,0.0,0.0,0.0,0.0,0.0,0.0,0.0,0.0,0.0,0.0,0.0,0.0,0.0,0.0,0.0,0.0,0.0,-0.5166,-0.5108,-0.5156,0.0,-0.5272,0.0,0.0,0.0,0.0,0.0,0.0,0.0,0.0,0.0,0.0,0.0,0.0,0.0,0.0,0.0,0.0,0.0,0.0,0.0,0.0,0.0,0.0,0.0,0.0,0.0,0.0,0.0,0.0,0.0,0.0,0.0,0.0,0.0,0.0,0.0,0.0,0.0,0.0,0.0,0.0,0.0,0.0,0.0,0.0,0.0,0.0,0.0,0.0,0.0,0.0,0.0,0.0,0.0,0.0,0.0,0.0,0.0,0.0,0.0,0.0,0.0,0.0,0.0,0.0,0.0,0.0,0.0,0.0,0.0,0.0,0.0,0.0,0.0,0.0,0.0,0.0,0.0,0.0,0.0,0.0,0.0,0.0,0.0,0.0,0.0,0.0,0.0,0.0,0.0,0.0,0.0,0.0,0.0,0.0,0.0,0.0,0.0,0.0,0.0,0.0,0.0,0.0,0.0,0.0,0.0,0.0,0.0,0.0,0.0,0.0,-0.5589,-0.5528,-0.5313,-0.5253,0.0,0.0,0.0,0.0,0.0,0.0,0.0,0.0,0.0,0.0,0.0,0.0,0.0,0.0,0.0,0.0,0.0,0.0,0.0,0.0,0.0,0.0,0.0,0.0,0.0,0.0,0.0,0.0,0.0,0.0,0.0,0.0,0.0,0.0,0.0,0.0,0.0,0.0,0.0,0.0,0.0,0.0,0.0,0.0,0.0,0.0,0.0,0.0,0.0,0.0,0.0,0.0,0.0,0.0,0.0,0.0,0.0,0.0,0.0,0.0,0.0,0.0,0.0,0.0,0.0,0.0,0.0,0.0,0.0,0.0,0.0,0.0,0.0,0.0,0.0,0.0,0.0,0.0,0.0,0.0,0.0,0.0,0.0,0.0,0.0,0.0,0.0,0.0,0.0,0.0,0.0,0.0,0.0,0.0,0.0,0.0,0.0,0.0,0.0,0.0,0.0,0.0,0.0,0.0,0.0,0.0,0.0,0.0,0.0,0.0,-0.6112,-0.6008,-0.5827,-0.5432,-0.5292,-0.5427,0.0,0.0,0.0,0.0,0.0,0.0,0.0,0.0,0.0,0.0,0.0,0.0,0.0,0.0,0.0,0.0,0.0,0.0,0.0,0.0,0.0,0.0,0.0,0.0,0.0,0.0,0.0,0.0,0.0,0.0,0.0,0.0,0.0,0.0,0.0,0.0,0.0,0.0,0.0,0.0,0.0,0.0,0.0,0.0,0.0,0.0,0.0,0.0,0.0,0.0,0.0,0.0,0.0,0.0,0.0,0.0,0.0,0.0,0.0,0.0,0.0,0.0,0.0,0.0,0.0,0.0,0.0,0.0,0.0,0.0,0.0,0.0,0.0,0.0,0.0,0.0,0.0,0.0,0.0,0.0,0.0,0.0,0.0,0.0,0.0,0.0,0.0,0.0,0.0,0.0,0.0,0.0,0.0,0.0,0.0,0.0,0.0,0.0,0.0,0.0,0.0,0.0,0.0,0.0,0.0,0.0,0.0,0.0,-0.6676,-0.6615,-0.6354,-0.5902,-0.5502,-0.5359,0.0,0.0,0.0,0.0,0.0,0.0,0.0,0.0,0.0,0.0,0.0,0.0,0.0,0.0,0.0,0.0,0.0,0.0,0.0,0.0,0.0,0.0,0.0,0.0,0.0,0.0,0.0,0.0,0.0,0.0,0.0,0.0,0.0,0.0,0.0,0.0,0.0,0.0,0.0,0.0,0.0,0.0,0.0,0.0,0.0,0.0,0.0,0.0,0.0,0.0,0.0,0.0,0.0,0.0,0.0,0.0,0.0,0.0,0.0,0.0,0.0,0.0,0.0,0.0,0.0,0.0,0.0,0.0,0.0,0.0,0.0,0.0,0.0,0.0,0.0,0.0,0.0,0.0,0.0,0.0,0.0,0.0,0.0,0.0,0.0,0.0,0.0,0.0,0.0,0.0,0.0,0.0,0.0,0.0,0.0,0.0,0.0,0.0,0.0,0.0,0.0,0.0,0.0,0.0,0.0,0.0,0.0,0.0,0.0,-0.7166,-0.6997,-0.6587,-0.593,-0.5763,-0.5634,0.0,0.0,0.0,0.0,0.0,0.0,0.0,0.0,0.0,0.0,0.0,0.0,0.0,0.0,0.0,0.0,0.0,0.0,0.0,0.0,0.0,0.0,0.0,0.0,0.0,0.0,0.0,0.0,0.0,0.0,0.0,0.0,0.0,0.0,0.0,0.0,0.0,0.0,0.0,0.0,0.0,0.0,0.0,0.0,0.0,0.0,0.0,0.0,0.0,0.0,0.0,0.0,0.0,0.0,0.0,0.0,0.0,0.0,0.0,0.0,0.0,0.0,0.0,0.0,0.0,0.0,0.0,0.0,0.0,0.0,0.0,0.0,0.0,0.0,0.0,0.0,0.0,0.0,0.0,0.0,0.0,0.0,0.0,0.0,0.0,0.0,0.0,0.0,0.0,0.0,0.0,0.0,0.0,0.0,0.0,0.0,0.0,0.0,0.0,0.0,0.0,0.0,0.0,0.0,0.0,0.0,0.0,0.0,0.0,-0.7576,0.0,-0.6774,-0.6136,-0.5971,-0.5786,0.0,0.0,0.0,0.0,0.0,0.0,0.0,0.0,0.0,0.0,0.0,0.0,0.0,0.0,0.0,0.0,0.0,0.0,0.0,0.0,0.0,0.0,0.0,0.0,0.0,0.0,0.0,0.0,0.0,0.0,0.0,0.0,0.0,0.0,0.0,0.0,0.0,0.0,0.0,0.0,0.0,0.0,0.0,0.0,0.0,0.0,0.0,0.0,0.0,0.0,0.0,0.0,0.0,0.0,0.0,0.0,0.0,0.0,0.0,0.0,0.0,0.0,0.0,0.0,0.0,0.0,0.0,0.0,0.0,0.0,0.0,0.0,0.0,0.0,0.0,0.0,0.0,0.0,0.0,0.0,0.0,0.0,0.0,0.0,0.0,0.0,0.0,0.0,0.0,0.0,0.0,0.0,0.0,0.0,0.0,0.0,0.0,0.0,0.0,0.0,0.0,0.0,0.0,0.0,0.0,0.0,0.0,0.0,-0.8375,-0.7907,-0.7417,-0.697,-0.6504,-0.6159,-0.5816,0.0,0.0,0.0,0.0,0.0,0.0,0.0,0.0,0.0,0.0,0.0,0.0,0.0,0.0,0.0,0.0,0.0,0.0,0.0,0.0,0.0,0.0,0.0,0.0,0.0,0.0,0.0,0.0,0.0,0.0,0.0,0.0,0.0,0.0,0.0,0.0,0.0,0.0,0.0,0.0,0.0,0.0,0.0,0.0,0.0,0.0,0.0,0.0,0.0,0.0,0.0,0.0,0.0,0.0,0.0,0.0,0.0,0.0,0.0,0.0,0.0,0.0,0.0,0.0,0.0,0.0,0.0,0.0,0.0,0.0,0.0,0.0,0.0,0.0,0.0,0.0,0.0,0.0,0.0,0.0,0.0,0.0,0.0,0.0,0.0,0.0,0.0,0.0,0.0,0.0,0.0,0.0,0.0,0.0,0.0,0.0,0.0,0.0,0.0,0.0,0.0,0.0,0.0,0.0,0.0,0.0,0.0,0.0,0.0,-0.84,-0.8128,-0.7773,-0.7348,-0.6985,-0.653,0.0,0.0,0.0,0.0,0.0,0.0,0.0,0.0,0.0,0.0,0.0,0.0,0.0,0.0,0.0,0.0,0.0,0.0,0.0,0.0,0.0,0.0,0.0,0.0,0.0,0.0,0.0,0.0,0.0,0.0,0.0,0.0,0.0,0.0,0.0,0.0,0.0,0.0,0.0,0.0,0.0,0.0,0.0,0.0,0.0,0.0,0.0,0.0,0.0,0.0,0.0,0.0,0.0,0.0,0.0,0.0,0.0,0.0,0.0,0.0,0.0,0.0,0.0,0.0,0.0,0.0,0.0,0.0,0.0,0.0,0.0,0.0,0.0,0.0,0.0,0.0,0.0,0.0,0.0,0.0,0.0,0.0,0.0,0.0,0.0,0.0,0.0,0.0,0.0,0.0,0.0,0.0,0.0,0.0,0.0,0.0,0.0,0.0,0.0,0.0,0.0,0.0,0.0,0.0,0.0,0.0,0.0,0.0,0.0,-1.0319,-0.9855,-0.9312,-0.8741,-0.8402,-0.768,-0.6483,0.0,0.0,0.0,0.0,0.0,0.0,0.0,0.0,0.0,0.0,0.0,0.0,0.0,0.0,0.0,0.0,0.0,0.0,0.0,0.0,0.0,0.0,0.0,0.0,0.0,0.0,0.0,0.0,0.0,0.0,0.0,0.0,0.0,0.0,0.0,0.0,0.0,0.0,0.0,0.0,0.0,0.0,0.0,0.0,0.0,0.0,0.0,0.0,0.0,0.0,0.0,0.0,0.0,0.0,0.0,0.0,0.0,0.0,0.0,0.0,0.0,0.0,0.0,0.0,0.0,0.0,0.0,0.0,0.0,0.0,0.0,0.0,0.0,0.0,0.0,0.0,0.0,0.0,0.0,0.0,0.0,0.0,0.0,0.0,0.0,0.0,0.0,0.0,0.0,0.0,0.0,0.0,0.0,0.0,0.0,0.0,0.0,0.0,0.0,0.0,0.0,0.0,0.0,0.0,0.0,0.0,0.0,0.0,-1.3431,-1.2569,-1.1656,-1.0646,-1.0292,-0.9176,0.0,0.0,0.0,0.0,0.0,0.0,0.0,0.0,0.0,0.0,0.0,0.0,0.0,0.0,0.0,0.0,0.0,0.0,0.0,0.0,0.0,0.0,0.0,0.0,0.0,0.0,0.0,0.0,0.0,0.0,0.0,0.0,0.0,0.0,0.0,0.0,0.0,0.0,0.0,0.0,0.0,0.0,0.0,0.0,0.0,0.0,0.0,0.0,0.0,0.0,0.0,0.0,0.0,0.0,0.0,0.0,0.0,0.0,0.0,0.0,0.0,0.0,0.0,0.0,0.0,0.0,0.0,0.0,0.0,0.0,0.0,0.0,0.0,0.0,0.0,0.0,0.0,0.0,0.0,0.0,0.0,0.0,0.0,0.0,0.0,0.0,0.0,0.0,0.0,0.0,0.0,0.0,0.0,0.0,0.0,0.0,0.0,0.0,0.0,0.0,0.0,0.0,0.0,0.0,0.0,0.0,0.0,0.0,0.0,-1.5321,-1.7084,-1.6479,-1.3253,-1.211,-1.0711,0.0,0.0,0.0,0.0,0.0,0.0,0.0,0.0,0.0,0.0,0.0,0.0,0.0,0.0,0.0,0.0,0.0,0.0,0.0,0.0,0.0,0.0,0.0,0.0,0.0,0.0,0.0,0.0,0.0,0.0,0.0,0.0,0.0,0.0,0.0,0.0,0.0,0.0,0.0,0.0,0.0,0.0,0.0,0.0,0.0,0.0,0.0,0.0,0.0,0.0,0.0,0.0,0.0,0.0,0.0,0.0,0.0,0.0,0.0,0.0,0.0,0.0,0.0,0.0,0.0,0.0,0.0,0.0,0.0,0.0,0.0,0.0,0.0,0.0,0.0,0.0,0.0,0.0,0.0,0.0,0.0,0.0,0.0,0.0,0.0,0.0,0.0,0.0,0.0,0.0,0.0,0.0,0.0,0.0,0.0,0.0,0.0,0.0,0.0,0.0,0.0,0.0,0.0,0.0,0.0,0.0,0.0,0.0,-1.5105,-1.707,-2.0124,-2.0347,-1.751,-1.5384,-1.3183,0.0,0.0,0.0,0.0,0.0,0.0,0.0,0.0,0.0,0.0,0.0,0.0,0.0,0.0,0.0,0.0,0.0,0.0,0.0,0.0,0.0,0.0,0.0,0.0,0.0,0.0,0.0,0.0,0.0,0.0,0.0,0.0,0.0,0.0,0.0,0.0,0.0,0.0,0.0,0.0,0.0,0.0,0.0,0.0,0.0,0.0,0.0,0.0,0.0,0.0,0.0,0.0,0.0,0.0,0.0,0.0,0.0,0.0,0.0,0.0,0.0,0.0,0.0,0.0,0.0,0.0,0.0,0.0,0.0,0.0,0.0,0.0,0.0,0.0,0.0,0.0,0.0,0.0,0.0,0.0,0.0,0.0,0.0,0.0,0.0,0.0,0.0,0.0,0.0,0.0,0.0,0.0,0.0,0.0,0.0,0.0,0.0,0.0,0.0,0.0,0.0,0.0,0.0,0.0,0.0,0.0,0.0,0.0,-1.6977,-1.8859,-2.2149,-2.342,-2.2323,-1.9252,-1.6018,0.0,0.0,0.0,0.0,0.0,0.0,0.0,0.0,0.0,0.0,0.0,0.0,0.0,0.0,0.0,0.0,0.0,0.0,0.0,0.0,0.0,0.0,0.0,0.0,0.0,0.0,0.0,0.0,0.0,0.0,0.0,0.0,0.0,0.0,0.0,0.0,0.0,0.0,0.0,0.0,0.0,0.0,0.0,0.0,0.0,0.0,0.0,0.0,0.0,0.0,0.0,0.0,0.0,0.0,0.0,0.0,0.0,0.0,0.0,0.0,0.0,0.0,0.0,0.0,0.0,0.0,0.0,0.0,0.0,0.0,0.0,0.0,0.0,0.0,0.0,0.0,0.0,0.0,0.0,0.0,0.0,0.0,0.0,0.0,0.0,0.0,0.0,0.0,0.0,0.0,0.0,0.0,0.0,0.0,0.0,0.0,0.0,0.0,0.0,0.0,0.0,0.0,0.0,0.0,0.0,0.0,0.0,0.0,-1.865,-2.1821,-2.4154,-2.5173,-2.483,-2.1161,-1.7751,0.0,0.0,0.0,0.0,0.0,0.0,0.0,0.0,0.0,0.0,0.0,0.0,0.0,0.0,0.0,0.0,0.0,0.0,0.0,0.0,0.0,0.0,0.0,0.0,0.0,0.0,0.0,0.0,0.0,0.0,0.0,0.0,0.0,0.0,0.0,0.0,0.0,0.0,0.0,0.0,0.0,0.0,0.0,0.0,0.0,0.0,0.0,0.0,-1.3286,0.0,0.0,0.0,0.0,0.0,0.0,0.0,0.0,0.0,0.0,0.0,0.0,0.0,0.0,0.0,0.0,0.0,0.0,0.0,0.0,0.0,0.0,0.0,0.0,0.0,0.0,0.0,0.0,0.0,0.0,0.0,0.0,0.0,0.0,0.0,0.0,0.0,0.0,0.0,0.0,0.0,0.0,0.0,0.0,0.0,0.0,0.0,0.0,0.0,0.0,0.0,0.0,0.0,0.0,0.0,0.0,0.0,0.0,0.0,-1.98,-2.2445,-2.5107,-2.6215,-2.5524,-2.2695,-1.9679,0.0,0.0,0.0,0.0,0.0,0.0,0.0,0.0,0.0,0.0,0.0,0.0,0.0,0.0,0.0,0.0,0.0,0.0,0.0,0.0,0.0,0.0,0.0,0.0,0.0,0.0,0.0,0.0,0.0,0.0,0.0,0.0,0.0,0.0,0.0,0.0,0.0,0.0,0.0,0.0,0.0,0.0,0.0,0.0,0.0,0.0,0.0,0.0,0.0,0.0,0.0,0.0,0.0,0.0,0.0,0.0,0.0,0.0,0.0,0.0,0.0,0.0,0.0,0.0,0.0,0.0,0.0,0.0,0.0,0.0,0.0,0.0,0.0,0.0,0.0,0.0,0.0,0.0,0.0,0.0,0.0,0.0,0.0,0.0,0.0,0.0,0.0,0.0,0.0,0.0,0.0,0.0,0.0,0.0,0.0,0.0,0.0,0.0,0.0,0.0,0.0,0.0,0.0,0.0,0.0,0.0,0.0,-1.8307,-2.0818,-2.2642,-2.5601,-2.6742,-2.5851,-2.3924,-2.1378,-1.8252,0.0,0.0,0.0,0.0,0.0,0.0,0.0,0.0,0.0,0.0,0.0,0.0,0.0,0.0,0.0,0.0,0.0,0.0,0.0,0.0,0.0,0.0,0.0,0.0,0.0,0.0,0.0,0.0,0.0,0.0,0.0,0.0,0.0,0.0,0.0,0.0,0.0,0.0,-1.2837,-1.3438,0.0,0.0,0.0,0.0,0.0,0.0,0.0,0.0,-1.4754,0.0,0.0,0.0,0.0,0.0,0.0,0.0,0.0,0.0,0.0,0.0,0.0,0.0,0.0,0.0,0.0,0.0,0.0,0.0,0.0,0.0,0.0,0.0,0.0,0.0,0.0,0.0,0.0,0.0,0.0,0.0,0.0,0.0,0.0,0.0,0.0,0.0,0.0,0.0,0.0,0.0,0.0,0.0,0.0,0.0,0.0,0.0,0.0,0.0,0.0,0.0,0.0,0.0,0.0,0.0,0.0,-1.6914,-1.9346,-2.2013,-2.4959,-2.6083,-2.6746,-2.6932,-2.4826,-2.2261,-1.9378,0.0,0.0,0.0,0.0,0.0,0.0,0.0,0.0,0.0,0.0,0.0,0.0,0.0,0.0,0.0,0.0,0.0,0.0,0.0,0.0,0.0,0.0,0.0,0.0,0.0,0.0,0.0,0.0,0.0,0.0,0.0,0.0,0.0,0.0,0.0,0.0,0.0,0.0,0.0,-1.3722,-1.4036,0.0,0.0,0.0,0.0,0.0,0.0,0.0,0.0,-1.6861,0.0,0.0,0.0,0.0,0.0,0.0,0.0,0.0,0.0,0.0,0.0,0.0,0.0,0.0,0.0,0.0,0.0,0.0,0.0,0.0,0.0,0.0,0.0,0.0,0.0,0.0,0.0,0.0,0.0,0.0,0.0,0.0,0.0,0.0,0.0,0.0,0.0,0.0,0.0,0.0,0.0,0.0,0.0,0.0,0.0,0.0,0.0,0.0,0.0,0.0,0.0,0.0,0.0,0.0,0.0,-1.7802,-2.0526,-2.3012,-2.5134,-2.6059,-2.6625,-2.6791,-2.423,-2.1815,0.0,0.0,0.0,0.0,0.0,0.0,0.0,0.0,0.0,0.0,0.0,0.0,0.0,0.0,0.0,0.0,0.0,0.0,0.0,0.0,0.0,0.0,0.0,0.0,0.0,0.0,0.0,0.0,0.0,0.0,0.0,0.0,0.0,0.0,0.0,0.0,0.0,0.0,0.0,0.0,-1.5041,-1.5652,-1.6636,0.0,0.0,0.0,0.0,0.0,0.0,-1.7386,-1.7102,0.0,0.0,0.0,0.0,0.0,0.0,0.0,0.0,0.0,0.0,0.0,0.0,0.0,0.0,0.0,0.0,0.0,0.0,0.0,0.0,0.0,0.0,0.0,0.0,0.0,0.0,0.0,0.0,0.0,0.0,0.0,0.0,0.0,0.0,0.0,0.0,0.0,0.0,0.0,0.0,0.0,0.0,0.0,0.0,0.0,0.0,0.0,0.0,0.0,0.0,0.0,0.0,0.0,0.0,0.0,-1.8381,-2.1478,-2.3647,-2.4775,-2.5774,-2.6323,-2.6273,-2.3374,-2.109,0.0,0.0,0.0,0.0,0.0,0.0,0.0,0.0,0.0,0.0,0.0,0.0,0.0,0.0,0.0,0.0,0.0,0.0,0.0,0.0,0.0,0.0,0.0,0.0,0.0,0.0,0.0,0.0,0.0,0.0,0.0,0.0,0.0,0.0,0.0,0.0,0.0,0.0,0.0,0.0,0.0,-1.7016,-1.8391,-1.7403,0.0,0.0,0.0,0.0,-1.7951,-1.8141,0.0,0.0,0.0,0.0,0.0,0.0,0.0,0.0,0.0,0.0,0.0,0.0,0.0,0.0,0.0,0.0,0.0,0.0,0.0,0.0,0.0,0.0,0.0,0.0,0.0,0.0,0.0,0.0,0.0,0.0,0.0,0.0,0.0,0.0,0.0,0.0,0.0,0.0,0.0,0.0,0.0,0.0,0.0,0.0,0.0,0.0,0.0,0.0,0.0,0.0,0.0,0.0,0.0,0.0,0.0,0.0,-1.892,-2.165,-2.3659,-2.475,-2.5385,-2.5686,-2.5661,-2.2877,-2.0605,0.0,0.0,0.0,0.0,0.0,0.0,0.0,0.0,0.0,0.0,0.0,0.0,0.0,0.0,0.0,0.0,0.0,0.0,0.0,0.0,0.0,0.0,0.0,0.0,0.0,0.0,0.0,0.0,0.0,0.0,0.0,0.0,0.0,0.0,0.0,0.0,0.0,0.0,0.0,0.0,0.0,-1.6564,-1.8354,-1.7044,-1.6241,0.0,0.0,-1.9447,-2.0072,-2.1644,0.0,0.0,0.0,0.0,0.0,0.0,0.0,0.0,0.0,0.0,0.0,0.0,0.0,0.0,0.0,0.0,0.0,0.0,0.0,0.0,0.0,0.0,0.0,0.0,0.0,0.0,0.0,0.0,0.0,0.0,0.0,0.0,0.0,0.0,0.0,0.0,0.0,0.0,0.0,0.0,0.0,0.0,0.0,0.0,0.0,0.0,0.0,0.0,0.0,0.0,0.0,0.0,0.0,0.0,0.0,-1.789,-1.951,-2.2493,-2.4148,-2.4381,-2.5172,-2.5586,-2.5586,-2.2877,-2.0784,0.0,0.0,0.0,0.0,0.0,0.0,0.0,0.0,0.0,0.0,0.0,0.0,0.0,0.0,0.0,0.0,0.0,0.0,0.0,0.0,0.0,0.0,0.0,0.0,0.0,0.0,0.0,0.0,0.0,0.0,0.0,0.0,0.0,0.0,0.0,0.0,0.0,0.0,0.0,0.0,0.0,0.0,-1.9464,-1.9387,0.0,0.0,0.0,-2.0294,-2.0425,0.0,0.0,0.0,0.0,0.0,0.0,0.0,0.0,0.0,0.0,0.0,0.0,0.0,0.0,0.0,0.0,0.0,0.0,0.0,0.0,0.0,0.0,0.0,0.0,0.0,0.0,0.0,0.0,0.0,0.0,0.0,0.0,0.0,0.0,0.0,0.0,0.0,0.0,0.0,0.0,0.0,0.0,0.0,0.0,0.0,0.0,0.0,0.0,0.0,0.0,0.0,0.0,0.0,0.0,0.0,0.0,0.0,-2.0049,-2.3188,-2.4682,-2.4431,-2.5184,-2.5586,-2.5548,-2.3188,0.0,0.0,0.0,0.0,0.0,0.0,0.0,0.0,0.0,0.0,0.0,0.0,0.0,0.0,0.0,0.0,0.0,0.0,0.0,0.0,0.0,0.0,0.0,0.0,0.0,0.0,0.0,-1.0541,0.0,0.0,0.0,0.0,0.0,0.0,0.0,0.0,0.0,0.0,0.0,0.0,0.0,0.0,-1.8973,-2.0503,-2.1067,-2.1495,0.0,0.0,-2.1378,-2.1423,-2.282,-2.3112,0.0,0.0,0.0,0.0,0.0,0.0,0.0,0.0,0.0,0.0,0.0,0.0,0.0,0.0,0.0,0.0,0.0,0.0,0.0,0.0,0.0,0.0,0.0,0.0,0.0,0.0,0.0,0.0,0.0,0.0,0.0,0.0,0.0,0.0,0.0,0.0,0.0,0.0,0.0,0.0,0.0,0.0,0.0,0.0,0.0,0.0,0.0,0.0,0.0,0.0,0.0,0.0,0.0,0.0,0.0,-2.0666,-2.3389,-2.5001,-2.546,-2.5561,-2.5586,-2.5561,-2.3898,-2.1992,0.0,0.0,0.0,0.0,0.0,0.0,0.0,0.0,0.0,0.0,0.0,0.0,0.0,0.0,0.0,0.0,0.0,0.0,0.0,0.0,0.0,0.0,0.0,0.0,0.0,0.0,0.0,0.0,0.0,0.0,0.0,0.0,0.0,0.0,0.0,0.0,0.0,0.0,0.0,0.0,0.0,-1.8492,-2.0993,-2.0743,-2.1038,0.0,0.0,-2.3378,-2.4097,-2.5917,-2.6174,-2.3017,0.0,0.0,0.0,0.0,0.0,0.0,0.0,0.0,0.0,0.0,0.0,0.0,0.0,0.0,0.0,0.0,0.0,0.0,0.0,0.0,0.0,0.0,0.0,0.0,0.0,0.0,0.0,0.0,0.0,0.0,0.0,0.0,0.0,0.0,0.0,0.0,0.0,0.0,0.0,0.0,0.0,0.0,0.0,0.0,0.0,0.0,0.0,0.0,0.0,0.0,0.0,0.0,0.0,-1.9045,-2.0691,-2.3414,-2.4888,-2.5121,-2.5435,-2.5586,-2.5586,-2.4343,-2.2774,0.0,0.0,0.0,0.0,0.0,0.0,0.0,0.0,0.0,0.0,0.0,0.0,0.0,0.0,0.0,0.0,0.0,0.0,0.0,0.0,0.0,0.0,0.0,0.0,0.0,0.0,0.0,0.0,-1.3937,-1.4159,-1.3684,0.0,0.0,0.0,0.0,0.0,0.0,0.0,0.0,0.0,0.0,-2.0575,-2.2364,-2.2757,0.0,0.0,-2.3775,-2.3838,-2.3279,-2.4988,-2.5352,-2.2435,-2.1247,0.0,0.0,0.0,0.0,0.0,0.0,0.0,0.0,0.0,0.0,0.0,0.0,0.0,0.0,0.0,0.0,0.0,0.0,0.0,0.0,0.0,0.0,0.0,0.0,0.0,0.0,0.0,0.0,0.0,0.0,0.0,0.0,0.0,0.0,0.0,0.0,0.0,0.0,0.0,0.0,0.0,0.0,0.0,0.0,0.0,0.0,0.0,0.0,0.0,0.0,0.0,0.0,-1.9321,-2.1169,-2.3728,-2.5134,-2.531,-2.5674,-2.5883,-2.5837,-2.5154,-2.3954,0.0,0.0,0.0,0.0,0.0,0.0,0.0,0.0,0.0,0.0,0.0,0.0,0.0,0.0,0.0,0.0,0.0,0.0,0.0,0.0,0.0,0.0,0.0,0.0,0.0,0.0,0.0,0.0,-1.4846,-1.4885,-1.4209,0.0,0.0,0.0,0.0,0.0,0.0,0.0,0.0,0.0,0.0,-2.1987,-2.2833,-2.3357,-2.3546,-2.3275,-2.3423,-2.3369,-2.2727,-2.3898,-2.4276,-2.2381,0.0,0.0,0.0,0.0,0.0,0.0,0.0,0.0,0.0,0.0,0.0,0.0,0.0,0.0,0.0,0.0,0.0,0.0,0.0,0.0,0.0,0.0,0.0,0.0,0.0,0.0,0.0,0.0,0.0,0.0,-0.8787,0.0,0.0,0.0,0.0,0.0,0.0,0.0,0.0,0.0,0.0,0.0,0.0,0.0,0.0,0.0,0.0,0.0,0.0,0.0,0.0,0.0,0.0,-2.0061,-2.2217,-2.4418,-2.5837,-2.6411,-2.6461,-2.6461,-2.6461,-2.6436,-2.5657,-2.3923,0.0,0.0,0.0,0.0,0.0,0.0,0.0,0.0,0.0,0.0,0.0,0.0,0.0,0.0,0.0,0.0,0.0,0.0,0.0,0.0,0.0,0.0,0.0,0.0,0.0,0.0,-1.3386,-1.4714,-1.5509,0.0,0.0,0.0,0.0,0.0,0.0,0.0,0.0,0.0,0.0,-2.0429,-2.2202,-2.1967,-2.1801,-2.2017,-2.2801,-2.2179,-2.1972,-2.2973,-2.3282,-2.3356,0.0,0.0,0.0,0.0,0.0,0.0,0.0,0.0,0.0,0.0,0.0,0.0,0.0,0.0,0.0,0.0,0.0,0.0,0.0,0.0,0.0,0.0,0.0,0.0,0.0,0.0,0.0,-1.1634,-1.151,0.0,0.0,0.0,0.0,0.0,0.0,0.0,0.0,0.0,0.0,0.0,-1.6837,-1.7658,0.0,0.0,0.0,0.0,0.0,0.0,0.0,0.0,0.0,0.0,0.0,0.0,-2.0425,-2.2309,-2.4481,-2.5875,-2.6474,-2.6487,-2.6487,-2.6487,-2.6487,-2.5393,-2.3083,0.0,0.0,0.0,0.0,0.0,0.0,0.0,0.0,0.0,0.0,0.0,0.0,0.0,0.0,0.0,0.0,0.0,0.0,0.0,0.0,0.0,0.0,0.0,0.0,0.0,-1.5065,0.0,0.0,0.0,0.0,0.0,0.0,0.0,0.0,0.0,0.0,0.0,-1.8521,-1.9623,-2.0378,-2.1043,-2.1554,-2.1607,-2.1909,0.0,0.0,0.0,0.0,0.0,0.0,0.0,0.0,0.0,0.0,0.0,0.0,0.0,0.0,-2.0483,-1.9806,-2.0045,-2.0363,-2.0363,0.0,0.0,0.0,0.0,0.0,0.0,0.0,0.0,0.0,0.0,0.0,0.0,0.0,0.0,-1.4209,0.0,-1.3677,0.0,0.0,0.0,0.0,0.0,0.0,0.0,0.0,-1.7396,-1.8589,-1.9518,-2.0273,-2.0607,0.0,-2.0164,-1.9087,0.0,0.0,0.0,0.0,0.0,0.0,0.0,0.0,-2.0928,-2.2581,-2.4782,-2.594,-2.6,-2.6314,-2.6314,-2.599,-2.6314,-2.5701,-2.3938,-2.2849,-2.1259,0.0,0.0,0.0,0.0,0.0,0.0,0.0,0.0,0.0,0.0,0.0,0.0,0.0,0.0,0.0,0.0,0.0,0.0,0.0,0.0,0.0,0.0,0.0,-1.6283,0.0,0.0,0.0,0.0,0.0,0.0,0.0,0.0,0.0,-1.6871,-1.8253,-1.959,-2.0432,-2.0789,-2.0897,-2.0658,0.0,0.0,0.0,0.0,0.0,0.0,0.0,-2.2577,-2.1934,-2.2912,-2.3751,-2.3751,-2.3176,-2.2921,-2.3565,0.0,0.0,-2.1944,-2.2069,-2.2353,-2.2368,-2.2892,-2.3355,-2.3377,-2.3864,-2.4118,0.0,0.0,0.0,0.0,0.0,0.0,0.0,0.0,-1.7413,-1.7081,0.0,-1.658,0.0,0.0,0.0,0.0,0.0,-1.613,0.0,0.0,-1.9615,-2.1039,-2.1655,-2.255,-2.3399,-2.4013,-2.3586,-2.3242,-2.2818,-2.0039,0.0,0.0,0.0,0.0,0.0,0.0,-2.1556,-2.317,-2.5372,-2.6037,-2.5158,-2.605,-2.6037,-2.5075,-2.5908,-2.6371,-2.6308,-2.4721,-2.3642,-2.3035,-2.0441,0.0,0.0,0.0,0.0,0.0,0.0,0.0,0.0,0.0,0.0,0.0,0.0,0.0,0.0,0.0,0.0,0.0,0.0,0.0,0.0,-1.7087,0.0,0.0,0.0,0.0,0.0,0.0,0.0,0.0,0.0,0.0,-1.7962,-1.9706,-2.0883,-2.0359,0.0,0.0,0.0,0.0,-2.1149,-1.9978,-2.0323,-2.0954,-2.1409,-2.2569,-2.3689,-2.4387,0.0,0.0,-2.7585,-2.6019,-2.4948,-2.5585,-2.5659,-2.5255,-2.4014,-2.3849,-2.3879,-2.3909,-2.4477,-2.4769,-2.4814,-2.5465,-2.563,-1.7779,0.0,0.0,0.0,0.0,-1.6894,-1.8113,-1.9633,-1.9469,-1.931,-1.9134,-1.8819,0.0,0.0,0.0,0.0,0.0,0.0,-2.0561,-2.1554,-2.2681,-2.3453,-2.4013,-2.4974,-2.5606,-2.5837,-2.4966,-2.543,-2.697,-2.4436,-2.2197,-2.0414,0.0,0.0,0.0,0.0,-2.3032,-2.4336,-2.6126,-2.6749,-2.6107,-2.6737,-2.6408,-2.5064,-2.5252,-2.5111,-2.4397,-2.5235,-2.4769,-2.2802,-2.2572,0.0,0.0,0.0,0.0,0.0,0.0,0.0,0.0,0.0,0.0,0.0,0.0,0.0,0.0,0.0,0.0,0.0,0.0,0.0,-1.7664,-1.8205,-1.7903,0.0,0.0,0.0,0.0,0.0,0.0,0.0,0.0,0.0,-1.9838,-2.0105,-2.0258,0.0,0.0,-1.9681,-1.9564,-2.0807,-2.219,-2.3461,-2.3778,0.0,-2.5435,-2.5595,-2.5485,-2.5265,-2.6538,-2.775,-2.8218,-2.7844,-2.753,-2.7709,-2.735,-2.7006,-2.7171,-2.7171,-2.729,-2.7754,-2.8038,-2.8158,-2.8173,-2.8323,-2.8094,-2.1541,-1.9658,-1.8459,-1.8268,-1.8875,-1.9872,-2.0952,-2.2081,-2.2119,-2.1825,-2.1263,-2.1103,-2.0342,-1.9141,-1.8849,0.0,0.0,0.0,-2.1893,-2.28,-2.3323,-2.392,-2.4719,-2.5944,-2.6742,-2.7183,-2.7014,-2.749,-2.8551,-2.6788,-2.5043,-2.3381,0.0,0.0,-2.251,-2.3364,-2.4324,-2.5473,-2.6879,-2.7176,-2.6263,-2.6327,-2.6135,-2.5606,-2.5194,-2.4707,-2.4156,-2.5252,-2.5132,-2.3592,-2.4005,-2.3314,0.0,0.0,0.0,0.0,0.0,0.0,0.0,0.0,0.0,0.0,0.0,-1.5643,0.0,0.0,0.0,0.0,-1.8216,-1.8932,-1.9447,-1.9384,0.0,0.0,0.0,0.0,0.0,0.0,0.0,-1.8982,-2.0062,-2.0928,-2.1295,-2.1272,-2.1176,-2.1015,-2.0598,-2.0424,-2.0629,0.0,-2.3443,-2.4958,-2.5357,-2.5962,-2.7274,-2.7618,-2.7663,-2.7503,-2.8162,-2.8858,-2.925,-2.916,-2.9022,-2.8891,-2.8229,-2.7809,-2.8472,-2.8801,-2.9086,-2.9532,-2.9621,-2.9621,-2.9621,-2.9412,-2.8936,-2.4893,-2.4248,-2.1164,-2.0585,-2.1775,-2.3301,-2.4241,-2.4706,-2.4807,-2.4211,-2.305,-2.3189,-2.2472,-2.1053,-2.0949,0.0,-2.3154,-2.2095,-2.1907,-2.2272,-2.2542,-2.3239,-2.4313,-2.5683,-2.6964,-2.8124,-2.9067,-2.9079,-2.8231,-2.7557,-2.7029,-2.6607,-2.5453,-2.4618,-2.4166,-2.4705,-2.5502,-2.6509,-2.7596,-2.7409,-2.5958,-2.5385,-2.5466,-2.6238,-2.5465,-2.5004,-2.5004,-2.5087,-2.5111,-2.5122,-2.5006,-2.465,-2.4029,0.0,0.0,0.0,0.0,0.0,0.0,0.0,0.0,0.0,0.0,0.0,0.0,0.0,0.0,0.0,-2.0189,0.0,-2.1597,-2.069,0.0,0.0,0.0,-1.966,-2.0717,-2.0905,-2.1131,-2.1568,0.0,0.0,-2.2418,-2.2895,-2.3143,-2.2766,-2.2929,-2.2875,-2.2255,-2.3625,-2.4817,-2.527,-2.5889,-2.6718,-2.8003,-2.8846,-2.9579,-3.0088,-3.0462,-3.0298,-3.0283,-2.9924,-2.9621,-2.9457,-2.8453,-2.7809,-2.8472,-2.9127,-2.9621,-2.9681,-2.9759,-2.9774,-2.9804,-2.943,-2.9041,-2.5518,-2.5245,-2.3828,-2.3427,-2.3736,-2.4088,-2.42,-2.4045,-2.4045,-2.3717,-2.3103,-2.3117,-2.2935,-2.2597,-2.3002,-2.4095,-2.5594,-2.4897,-2.4902,-2.5346,-2.4588,-2.4418,-2.4682,-2.503,-2.6243,-2.7964,-2.7533,-2.7999,-2.9236,-2.7589,-2.7048,-2.7613,-2.6171,-2.5364,-2.5254,-2.6186,-2.6629,-2.6502,-2.7965,-2.815,-2.6957,-2.6088,-2.5356,-2.4768,-2.4907,-2.5004,-2.5004,-2.5734,-2.6141,-2.6151,-2.6099,-2.5624,-2.4657,-2.2786,0.0,0.0,0.0,0.0,0.0,0.0,0.0,0.0,0.0,-1.655,-1.7124,0.0,-1.8744,0.0,-2.1377,-2.2581,-2.2706,-2.2468,0.0,0.0,-2.1443,-2.1631,-2.1895,-2.2686,-2.3088,-2.2744,-2.3251,-2.359,-2.359,-2.4048,-2.4519,-2.4789,-2.3841,-2.3231,-2.3636,-2.4875,-2.6169,-2.7339,-2.8421,-2.9581,-3.0251,-2.9983,-2.9831,-3.0402,-3.0118,-2.9831,-2.9789,-2.9684,-2.943,-2.8921,-2.8184,-2.7929,-2.8457,-2.9157,-2.9741,-3.0208,-3.0687,-3.1047,-3.1032,-3.0883,-3.0614,-2.6484,-2.625,-2.5576,-2.5293,-2.5254,-2.5169,-2.4725,-2.4118,-2.4596,-2.4366,-2.3701,-2.3516,-2.3564,-2.3833,-2.3677,-2.4377,-2.565,-2.486,-2.4682,-2.4925,-2.4349,-2.4049,-2.4049,-2.4585,-2.5452,-2.6603,-2.6554,-2.6894,-2.7464,-2.6337,-2.6036,-2.6591,-2.5719,-2.5242,-2.5279,-2.6095,-2.6754,-2.7213,-2.7338,-2.74,-2.7287,-2.6526,-2.5667,-2.4765,-2.4567,-2.4142,-2.3391,-2.3872,-2.4216,-2.4303,-2.469,-2.4643,-2.4061,-2.2723,-2.143,0.0,0.0,0.0,0.0,0.0,0.0,0.0,0.0,0.0,0.0,0.0,-2.0324,-2.0851,-2.2468,-2.3384,-2.3133,-2.3095,-2.3045,-2.2987,-2.3238,-2.3627,-2.4104,-2.472,-2.4971,-2.4657,-2.4895,-2.5129,-2.5141,-2.536,-2.5649,-2.5971,-2.5197,-2.4752,-2.5216,-2.6136,-2.7147,-2.7994,-2.9341,-3.0584,-3.1365,-3.0913,-3.0447,-3.0462,-3.0208,-2.9909,-2.9624,-2.934,-2.9011,-2.8637,-2.8064,-2.7705,-2.8098,-2.8682,-2.925,-2.9609,-3.0193,-3.0717,-3.1016,-3.0599,-3.0061,-2.7451,-2.706,-2.6641,-2.6435,-2.6398,-2.6211,-2.5513,-2.4548,-2.5528,-2.5361,-2.4394,-2.4023,-2.4211,-2.4676,-2.372,-2.3854,-2.4807,-2.3674,-2.3227,-2.3309,-2.3178,-2.3101,-2.3135,-2.4125,-2.466,-2.483,-2.5797,-2.5839,-2.5041,-2.4861,-2.4798,-2.4787,-2.467,-2.466,-2.4808,-2.5124,-2.6134,-2.7832,-2.6451,-2.612,-2.6948,-2.6552,-2.5949,-2.5166,-2.4272,-2.3085,-2.1626,-2.1498,-2.1514,-2.1702,-2.2457,-2.3032,-2.3283,-2.228,-2.1546,0.0,-2.0062,0.0,0.0,0.0,0.0,0.0,0.0,0.0,0.0,-2.1656,-2.197,-2.2543,-2.354,-2.3954,-2.3559,-2.3534,-2.3923,-2.4895,-2.5034,-2.5423,-2.6348,-2.6487,-2.6487,-2.6487,-2.6487,-2.6487,-2.6436,-2.6487,-2.6487,-2.6449,-2.6373,-2.6285,-2.6505,-2.6984,-2.7459,-2.7683,-2.9192,-3.0539,-3.1131,-3.1304,-3.1047,-3.0507,-3.0313,-3.0133,-2.9382,-2.8921,-2.8577,-2.8427,-2.7974,-2.7615,-2.7585,-2.8169,-2.8592,-2.8697,-2.916,-2.9699,-3.0163,-2.9669,-2.8771,-2.7669,-2.7552,-2.708,-2.6699,-2.6417,-2.636,-2.5837,-2.4998,-2.5177,-2.497,-2.4424,-2.4326,-2.434,-2.4433,-2.4261,-2.4541,-2.5244,-2.4177,-2.3943,-2.4457,-2.3551,-2.3101,-2.3091,-2.3299,-2.392,-2.4787,-2.4999,-2.5504,-2.6141,-2.5252,-2.4798,-2.4787,-2.3877,-2.3877,-2.4702,0.0,0.0,0.0,-2.6434,-2.5933,-2.5326,-2.5333,-2.4859,-2.3804,-2.3411,0.0,-2.2938,-2.2515,-2.2408,-2.2622,-2.2805,0.0,0.0,0.0,0.0,0.0,0.0,0.0,0.0,0.0,0.0,0.0,-2.2506,-2.2268,-2.2184,-2.2543,-2.3221,-2.4211,-2.4512,-2.4996,-2.5795,-2.5858,-2.5946,-2.6147,-2.6172,-2.6273,-2.6474,-2.6487,-2.6487,-2.6487,-2.6487,-2.6487,-2.6487,-2.6487,-2.6487,-2.6487,-2.6487,-2.6487,-2.6487,-2.6679,-2.7007,-2.767,-2.9192,-3.0299,-3.048,-3.0644,-3.0612,-2.9924,-2.9786,-2.9337,-2.8378,-2.8397,-2.8353,-2.7944,-2.769,-2.7585,-2.76,-2.8154,-2.8547,-2.8592,-2.8697,-2.8981,-2.9609,-2.9592,-2.9427,-2.8031,0.0,-2.7519,-2.7207,0.0,-2.6787,-2.6328,-2.5752,-2.5498,-2.5146,-2.4736,-2.4736,-2.4619,-2.4424,-2.4424,-2.4608,-2.4886,-2.4364,-2.4281,-2.4577,-2.4019,-2.3617,-2.3467,-2.3672,-2.3801,-2.3983,-2.4186,-2.4479,-2.4776,-2.4211,-2.3963,-2.3963,-2.3377,-2.3387,-2.393,-2.3387,-2.3681,-2.4808,-2.4787,-2.4785,-2.4795,-2.4897,-2.4519,-2.3608,-2.3478,0.0,0.0,0.0,0.0,0.0,0.0,0.0,0.0,-2.3672,0.0,-2.3534,-2.3314,-2.3263,-2.3527,-2.3552,-2.3916,-2.4707,-2.477,-2.4418,-2.3615,-2.4305,-2.5008,-2.5561,-2.5636,-2.5896,-2.6424,-2.6487,-2.6487,-2.6487,-2.6487,-2.6487,-2.6487,-2.6487,-2.6487,-2.6487,-2.6487,-2.6487,-2.6487,-2.6487,-2.6487,-2.6487,-2.6487,-2.6487,-2.6521,-2.685,-2.7384,-2.8201,-2.9002,-2.9782,-3.024,-3.0719,-3.0776,-3.0193,-2.9774,-2.9205,-2.8263,-2.8094,-2.7989,-2.766,-2.7585,-2.7585,-2.7615,-2.7874,-2.8109,-2.8124,-2.8124,-2.8199,-2.8558,-2.8618,-2.8618,-2.8301,-2.8262,-2.792,-2.7787,-2.7689,-2.7285,-2.6885,-2.6465,0.0,0.0,0.0,-2.5185,-2.499,-2.4602,-2.4658,-2.4609,-2.4531,-2.4531,-2.4492,-2.4414,-2.4346,-2.4131,-2.3818,-2.4141,-2.3896,-2.314,-2.3584,-2.3555,-2.311,-2.3101,-2.3101,-2.3101,-2.3101,-2.3101,-2.3101,-2.3101,-2.3101,-2.3091,-2.311,-2.3561,-2.446,-2.443,-2.414,-2.3623,-2.3438,-2.3117,-2.2548,-2.2605,-2.2968,-2.3624,-2.3834,-2.3867,-2.3722,-2.4167,-2.4305,-2.4036,-2.4336,-2.482,-2.536,-2.5277,-2.5636,-2.6587,-2.6549,-2.6109,-2.5159,-2.5971,-2.6487,-2.6487,-2.6487,-2.6487,-2.6487,-2.6487,-2.6487,-2.6487,-2.6487,-2.6487,-2.6487,-2.6487,-2.6487,-2.6487,-2.6487,-2.6487,-2.6487,-2.6487,-2.6487,-2.6487,-2.6487,-2.6487,-2.6555,-2.696,-2.7537,-2.8168,-2.8716,-2.9286,-2.995,-3.0881,-3.1169,-3.0552,-2.9968,-2.9355,-2.8697,-2.8049,-2.7645,-2.7615,-2.7585,-2.7585,-2.7585,-2.763,-2.7585,-2.7585,-2.7585,-2.7585,-2.7585,-2.76,-2.766,-2.8301,-2.8281,-2.8232,-2.7998,-2.7708,-2.7598,-2.7324,-2.6865,-2.6035,-2.5654,-2.5644,-2.5596,-2.5567,-2.5508,-2.5499,-2.5342,-2.5037,-2.5028,-2.4775,-2.4358,-2.4043,-2.3848,-2.3789,-2.3848,-2.3613,-2.3159,-2.3584,-2.3564,-2.314,-2.3101,-2.3101,-2.3101,-2.3101,-2.3101,-2.3101,-2.3101,-2.3101,-2.3091,-2.3117,-2.3173,-2.3321,-2.3072,-2.2874,-2.2733,-2.2113,-2.176,-2.1754,-2.2292,-2.2683,-2.305,-2.3965,-2.4928,-2.5959,-2.6097,-2.6502,-2.7306,-2.703,-2.7067,-2.757,-2.7205,-2.704,-2.7153,-2.6763,-2.6424,-2.6285,-2.6411,-2.6487,-2.6487,-2.6487,-2.6487,-2.6487,-2.6487,-2.6487,-2.6487,-2.6487,-2.6487,-2.6487,-2.6487,-2.6487,-2.6487,-2.6487,-2.6487,-2.6487,-2.6487,-2.6487,-2.6487,-2.6487,-2.6487,-2.6521,-2.6589,-2.6714,-2.7007,-2.8117,-2.8925,-2.9286,-3.051,-3.1009,-3.0612,-2.9983,-2.934,-2.8622,-2.8034,-2.7615,-2.7585,-2.7585,-2.7585,-2.7585,-2.7585,-2.7585,-2.7585,-2.7585,-2.7585,-2.7585,-2.7585,-2.7585,-2.8301,-2.8301,-2.8301,-2.8184,-2.7988,-2.7826,-2.7611,-2.7324,-2.6699,-2.6299,-2.6094,-2.6084,-2.5957,-2.5693,-2.5684,-2.5635,-2.543,-2.543,-2.5322,-2.5127,-2.4932,-2.4717,-2.4521,-2.4736,-2.4482,-2.3851,-2.4277,-2.4258,-2.3848,-2.3559,-2.3452,-2.3477,-2.3218,-2.3101,-2.3101,-2.3101,-2.3101,-2.3101,-2.3122,-2.31,-2.309,-2.2968,-2.2874,-2.2884,-2.2503,-2.2665,-2.3303,-2.3591,-2.4234,-2.5236,-2.5757,-2.6453,-2.7308,-2.7632,-2.7883,-2.8097,-2.8147,-2.816,-2.8109,-2.7871,-2.772,-2.7733,-2.7494,-2.7253,-2.6964,-2.6663,-2.6487,-2.6487,-2.6487,-2.6487,-2.6487,-2.6487,-2.6487,-2.6487,-2.6487,-2.6487,-2.6487,-2.6487,-2.6487,-2.6487,-2.6487,-2.6487,-2.6487,-2.6487,-2.6487,-2.6487,-2.6487,-2.6487,-2.6487,-2.6487,-2.6487,-2.6589,-2.7504,-2.8168,-2.8409,-2.9735,-3.0265,-2.9489,-2.9512,-2.9134,-2.8349,-2.7764,-2.763,-2.7585,-2.7585,-2.7585,-2.7585,-2.7585,-2.7585,-2.7585,-2.7585,-2.7585,-2.7585,-2.7585,-2.7585,-2.8301,-2.8301,-2.8301,-2.8301,-2.8262,-2.7949,-2.7865,-2.7773,-2.7441,-2.706,-2.6699,-2.6582,-2.624,-2.5723,-2.5791,-2.5781,-2.5693,-2.5684,-2.5684,-2.5674,-2.5635,-2.541,-2.5174,-2.543,-2.5176,-2.4541,-2.4863,-2.4891,-2.4424,-2.4092,-2.3887,-2.375,-2.3359,-2.3101,-2.3101,-2.3101,-2.3101,-2.3101,-2.3101,-2.3101,-2.3101,-2.3101,-2.3091,-2.3101,-2.3081,-2.3517,-2.4382,-2.466,-2.5404,-2.6633,-2.6967,-2.7439,-2.8064,-2.8473,-2.8649,-2.8524,-2.8725,-2.8712,-2.8348,-2.8285,-2.8285,-2.8248,-2.8172,-2.7871,-2.7344,-2.7052,-2.6751,-2.6537,-2.6487,-2.6487,-2.6487,-2.6487,-2.6487,-2.6487,-2.6487,-2.6487,-2.6487,-2.6487,-2.6487,-2.6487,-2.6487,-2.6487,-2.6487,-2.6487,-2.6487,-2.6487,-2.6487,-2.6487,-2.6487,-2.6487,-2.6487,-2.6645,-2.7183,-2.7703,-2.7789,-2.8819,-2.9337,-2.857,-2.8803,-2.8655,-2.8036,-2.7779,-2.76,-2.7585,-2.7585,-2.7585,-2.7585,-2.7585,-2.7585,-2.7585,-2.7585,-2.7585,-2.7585,-2.7585,-2.7585,-2.8301,-2.8301,-2.8301,-2.8301,-2.8291,-2.8242,-2.8223,-2.8213,-2.8184,-2.7939,-2.7542,-2.7139,-2.6464,-2.581,-2.6133,-2.6084,-2.5693,-2.5684,-2.5684,-2.5635,-2.5312,-2.5155,-2.5135,-2.5174,-2.4883,-2.4541,-2.4893,-2.4902,-2.4512,-2.4375,-2.415,-2.3789,-2.335,-2.3101,-2.3101,-2.3101,-2.3101,-2.3101,-2.3101,-2.3101,-2.3101,-2.3101,-2.3101,-2.3101,-2.3101,-2.3135,-2.3343,-2.4243,-2.4851,-2.5104,-2.6052,-2.7036,-2.7929,-2.8148,-2.8618,-2.9463,-2.9164,-2.8863,-2.8825,-2.8825,-2.8825,-2.8787,-2.8423,-2.7934,-2.7419,-2.7708,-2.7507,-2.6813,-2.6524,-2.6537,-2.6487,-2.6499,-2.6512,-2.6562,-2.6512,-2.6487,-2.6487,-2.6487,-2.6487,-2.6487,-2.6487,-2.6487,-2.6487,-2.6487,-2.6487,-2.6487,-2.6487,-2.6487,-2.6487,-2.6487,-2.6487,-2.6624,-2.7162,-2.7571,-2.7683,-2.8003,-2.8465,-2.8795,-2.8309,-2.8,-2.7976,-2.7848,-2.7585,-2.7585,-2.7585,-2.7585,-2.7585,-2.7585,-2.7585,-2.7585,-2.7585,-2.7585,-2.7585,-2.7585,-2.7585,-2.8301,-2.8301,-2.8301,-2.8301,-2.8301,-2.8301,-2.8301,-2.8301,-2.8301,-2.8057,-2.7767,-2.7734,-2.7168,-2.6133,-2.6045,-2.5849,-2.5693,-2.5684,-2.5684,-2.5674,-2.5499,-2.5469,-2.5469,-2.5459,-2.5313,-2.5225,-2.5391,-2.5381,-2.5137,-2.4678,-2.4082,-2.3413,-2.3169,-2.3101,-2.3101,-2.3101,-2.3101,-2.3101,-2.3101,-2.3101,-2.3101,-2.3101,-2.3101,-2.3101,-2.3101,-2.3101,-2.3135,-2.3551,-2.4082,-2.4745,-2.5252,-2.6005,-2.7128,-2.7763,-2.8295,-2.8794,-2.9193,-2.944,-2.944,-2.944,-2.944,-2.9453,-2.9239,-2.8863,-2.8323,-2.8473,-2.826,-2.757,-2.7178,-2.6977,-2.6952,-2.6688,-2.6625,-2.6851,-2.67,-2.6487,-2.6487,-2.6487,-2.6487,-2.6487,-2.6487,-2.6487,-2.6487,-2.6487,-2.6487,-2.6487,-2.6487,-2.6487,-2.6487,-2.6487,-2.6487,-2.6521,-2.6803,-2.6973,-2.6997,-2.7202,-2.739,-2.736,-2.747,-2.7636,-2.7384,-2.7635,-2.7585,-2.7585,-2.7585,-2.7585,-2.7585,-2.7585,-2.7585,-2.7585,-2.7585,-2.7585,-2.7585,-2.7585,-2.7585,-2.8301,-2.8301,-2.8301,-2.8301,-2.8301,-2.8301,-2.8301,-2.8301,-2.8301,-2.8115,-2.7871,-2.8037,-2.7669,-2.6777,-2.6396,-2.6211,-2.6084,-2.5918,-2.5869,-2.5898,-2.5752,-2.5684,-2.5684,-2.5684,-2.5684,-2.5684,-2.5674,-2.5674,-2.5596,-2.499,-2.4219,-2.353,-2.3335,-2.3208,-2.311,-2.3101,-2.3101,-2.3101,-2.3101,-2.3101,-2.3101,-2.3101,-2.3101,-2.3101,-2.3101,-2.3101,-2.3101,-2.3101,-2.3474,-2.4296,-2.4339,-2.4882,-2.5975,-2.6778,-2.747,-2.8096,-2.8858,-2.9495,-2.974,-2.9779,-2.9779,-2.9779,-2.9779,-2.9553,-2.9051,-2.9026,-2.8825,-2.8147,-2.7883,-2.772,-2.7469,-2.704,-2.6927,-2.7228,-2.6813,-2.6499,-2.6487,-2.6487,-2.6487,-2.6487,-2.6487,-2.6487,-2.6487,-2.6487,-2.6487,-2.6487,-2.6487,-2.6487,-2.6487,-2.6487,-2.6487,-2.6487,-2.6499,-2.6445,-2.6307,-2.6229,-2.6114,-2.625,-2.6621,-2.6782,-2.6715,-2.7346,-2.7585,-2.7585,-2.7585,-2.7585,-2.7585,-2.7585,-2.7585,-2.7585,-2.7585,-2.7585,-2.7585,-2.7585,-2.7585,-2.8301,-2.8301,-2.8301,-2.8301,-2.8301,-2.8301,-2.8301,-2.8301,-2.8301,-2.8271,-2.8184,-2.7943,-2.7728,-2.763,-2.751,-2.7324,-2.6904,-2.6494,-2.6318,-2.6279,-2.5947,-2.5693,-2.5684,-2.5684,-2.5693,-2.5684,-2.5684,-2.5664,-2.5625,-2.5244,-2.4805,-2.4326,-2.3906,-2.3535,-2.3149,-2.3101,-2.3101,-2.3101,-2.3101,-2.3101,-2.3101,-2.3101,-2.3101,-2.3101,-2.3101,-2.3101,-2.3101,-2.3101,-2.3135,-2.3178,-2.3256,-2.3714,-2.4745,-2.4999,-2.5983,-2.7763,-2.8136,-2.8636,-2.9482,-2.9663,-2.9702,-2.974,-2.974,-2.9566,-2.9114,-2.9415,-2.9239,-2.826,-2.8599,-2.8612,-2.8172,-2.7607,-2.7306,-2.7379,-2.6864,-2.6575,-2.6537,-2.6524,-2.6487,-2.6487,-2.6487,-2.6487,-2.6487,-2.6487,-2.6487,-2.6487,-2.6487,-2.6487,-2.6487,-2.6487,-2.6487,-2.6487,-2.6449,-2.6311,-2.5757,-2.5474,-2.5545,-2.5748,-2.5903,-2.6017,-2.6907,-2.7585,-2.7585,-2.7585,-2.7585,-2.7585,-2.7585,-2.7585,-2.7585,-2.7585,-2.7585,-2.7585,-2.7585,-2.7585,-2.7585,-2.8301,-2.8301,-2.8301,-2.8301,-2.8301,-2.8301,-2.8301,-2.8301,-2.8301,-2.8301,-2.8271,-2.8125,-2.8066,-2.8066,-2.8066,-2.7529,-2.666,-2.6455,-2.6387,-2.6367,-2.6221,-2.6162,-2.6162,-2.6152,-2.5986,-2.5713,-2.5684,-2.5586,-2.5322,-2.5184,-2.4754,-2.4102,-2.3867,-2.3574,-2.3169,-2.3101,-2.3101,-2.3101,-2.3101,-2.3101,-2.3101,-2.3101,-2.3101,-2.3101,-2.3101,-2.3101,-2.3101,-2.3101,-2.3101,-2.3101,-2.3101,-2.3299,-2.3714,-2.4414,-2.5452,-2.683,-2.7087,-2.725,-2.7718,-2.8371,-2.8727,-2.8767,-2.9404,-2.9678,-2.9553,-2.9654,-2.9603,-2.9315,-2.9327,-2.9352,-2.9076,-2.8373,-2.7946,-2.8147,-2.7532,-2.6989,-2.6952,-2.6725,-2.6487,-2.6487,-2.6487,-2.6487,-2.6487,-2.6487,-2.6487,-2.6487,-2.6487,-2.6487,-2.6487,-2.6487,-2.6487,-2.6487,-2.6461,-2.6172,-2.5197,-2.4996,-2.5001,-2.5285,-2.5525,-2.5923,-2.6602,-2.7331,-2.7458,-2.756,-2.7585,-2.7585,-2.7585,-2.7585,-2.7585,-2.7585,-2.7585,-2.7585,-2.7585,-2.7585,-2.7585,-2.8301,-2.8301,-2.8301,-2.8301,-2.8301,-2.8301,-2.8301,-2.8301,-2.8301,-2.8301,-2.8301,-2.8301,-2.8301,-2.8301,-2.8301,-2.7773,-2.6865,-2.6807,-2.6797,-2.6787,-2.666,-2.6592,-2.6592,-2.6602,-2.6367,-2.5977,-2.5742,-2.5518,-2.5322,-2.5283,-2.4902,-2.4258,-2.4072,-2.3779,-2.3408,-2.3169,-2.3101,-2.3101,-2.3101,-2.3101,-2.3101,-2.3101,-2.3101,-2.3101,-2.3101,-2.3101,-2.3101,-2.3101,-2.3101,-2.3101,-2.3101,-2.3101,-2.3178,-2.38,-2.4755,-2.5766,-2.5975,-2.613,-2.6513,-2.7197,-2.7723,-2.8084,-2.8767,-2.9365,-2.9702,-2.9779,-2.9779,-2.9779,-2.9779,-2.9779,-2.9654,-2.9101,-2.8737,-2.875,-2.7946,-2.7341,-2.7291,-2.6813,-2.6537,-2.6487,-2.6487,-2.6487,-2.6487,-2.6487,-2.6487,-2.6487,-2.6487,-2.6487,-2.6487,-2.6487,-2.6487,-2.6461,-2.6285,-2.5787,-2.5059,-2.4682,-2.4538,-2.4767,-2.5012,-2.5494,-2.6229,-2.6904,-2.7357,-2.7509,-2.7585,-2.7585,-2.7585,-2.7585,-2.7585,-2.7585,-2.7585,-2.7585,-2.7585,-2.7585,-2.7585,-2.8301,-2.8301,-2.8301,-2.8301,-2.8301,-2.8301,-2.8301,-2.8301,-2.8301,-2.8301,-2.8301,-2.8301,-2.8301,-2.8301,-2.8301,-2.8037,-2.7676,-2.7598,-2.762,-2.7571,-2.7187,-2.7021,-2.7021,-2.6963,-2.6689,-2.625,-2.5879,-2.5684,-2.5625,-2.5606,-2.542,-2.501,-2.459,-2.418,-2.3779,-2.3389,-2.313,-2.3101,-2.3101,-2.3101,-2.3101,-2.3101,-2.3101,-2.3101,-2.3101,-2.3101,-2.3101,-2.3101,-2.3101,-2.3101,-2.3101,-2.3101,-2.3101,-2.3222,-2.3681,-2.4585,-2.4787,-2.5336,-2.6193,-2.6378,-2.6912,-2.755,-2.8016,-2.8518,-2.9365,-2.9611,-2.9663,-2.9779,-2.9779,-2.9779,-2.9779,-2.9679,-2.9465,-2.89,-2.8047,-2.7454,-2.7291,-2.6839,-2.6487,-2.6487,-2.6487,-2.6487,-2.6487,-2.6487,-2.6487,-2.6487,-2.6487,-2.6487,-2.6487,-2.6487,-2.6487,-2.6399,-2.6109,-2.5536,-2.4946,-2.44,-2.4295,-2.424,-2.4424,-2.4823,-2.5824,-2.659,-2.6956,-2.7178,-2.7534,-2.756,-2.7585,-2.7585,-2.7585,-2.7585,-2.7585,-2.7585,-2.7585,-2.7585,-2.7585,-2.8301,-2.8301,-2.8301,-2.8301,-2.8301,-2.8301,-2.8301,-2.8301,-2.8301,-2.8301,-2.8301,-2.8301,-2.8301,-2.8301,-2.8291,-2.8223,-2.8096,-2.8086,-2.7939,-2.7738,-2.7571,-2.7471,-2.7402,-2.7158,-2.6641,-2.6035,-2.5762,-2.5684,-2.5693,-2.5693,-2.5508,-2.5107,-2.4932,-2.4482,-2.3857,-2.3652,-2.3467,-2.313,-2.3101,-2.3101,-2.3101,-2.3101,-2.3101,-2.3101,-2.3101,-2.3101,-2.3101,-2.3101,-2.3101,-2.3101,-2.3101,-2.3101,-2.3101,-2.3101,-2.3266,-2.3551,-2.3627,-2.3714,-2.4178,-2.4925,-2.5462,-2.5911,-2.6532,-2.7493,-2.8438,-2.8648,-2.8988,-2.9585,-2.9779,-2.9779,-2.9779,-2.9779,-2.9679,-2.9541,-2.8536,-2.7795,-2.7607,-2.7014,-2.6562,-2.6487,-2.6487,-2.6487,-2.6487,-2.6487,-2.6487,-2.6487,-2.6487,-2.6487,-2.6487,-2.6487,-2.6487,-2.6436,-2.5946,-2.5398,-2.4883,-2.4261,-2.3892,-2.3829,-2.3966,-2.435,-2.5315,-2.5987,-2.6363,-2.6945,-2.7306,-2.7534,-2.756,-2.7585,-2.7585,-2.7585,-2.7585,-2.7585,-2.7585,-2.7585,-2.7585,-2.8301,-2.8301,-2.8301,-2.8301,-2.8301,-2.8301,-2.8301,-2.8301,-2.8301,-2.8301,-2.8301,-2.8301,-2.8301,-2.8301,-2.8301,-2.8301,-2.8301,-2.8301,-2.8154,-2.792,-2.7891,-2.79,-2.7803,-2.7275,-2.6787,-2.6279,-2.6015,-2.5927,-2.5977,-2.5967,-2.5752,-2.5381,-2.5156,-2.4871,-2.4258,-2.3926,-2.3633,-2.3389,-2.3179,-2.3101,-2.3101,-2.3101,-2.3101,-2.3101,-2.3101,-2.3101,-2.3101,-2.3101,-2.3101,-2.3101,-2.3101,-2.3101,-2.3101,-2.3101,-2.3101,-2.3101,-2.3091,-2.3135,-2.3178,-2.3844,-2.4425,-2.484,-2.5462,-2.6337,-2.7238,-2.7481,-2.7988,-2.8937,-2.9106,-2.9326,-2.9702,-2.9779,-2.9779,-2.9779,-2.8762,-2.7984,-2.7544,-2.6927,-2.6549,-2.6487,-2.6487,-2.6487,-2.6487,-2.6487,-2.6487,-2.6487,-2.6487,-2.6487,-2.6487,-2.6487,-2.6487,-2.6285,-2.5674,-2.5234,-2.4825,-2.4224,-2.3547,-2.3482,-2.3526,-2.4031,-2.4781,-2.5119,-2.5508,-2.6563,-2.7126,-2.7509,-2.7585,-2.7585,-2.7585,-2.7585,-2.7585,-2.7585,-2.7585,-2.7585,-2.7585,-2.8301,-2.8301,-2.8301,-2.8301,-2.8301,-2.8301,-2.8301,-2.8301,-2.8301,-2.8301,-2.8301,-2.8301,-2.8301,-2.8301,-2.8301,-2.8301,-2.8301,-2.8291,-2.8281,-2.8252,-2.8232,-2.8184,-2.792,-2.7383,-2.7012,-2.6777,-2.6494,-2.6357,-2.6309,-2.624,-2.6143,-2.5625,-2.5332,-2.5135,-2.4881,-2.4219,-2.3828,-2.3691,-2.3305,-2.3101,-2.3101,-2.3101,-2.3101,-2.3101,-2.3101,-2.3101,-2.3101,-2.3101,-2.3101,-2.3101,-2.3101,-2.3101,-2.3101,-2.3101,-2.3101,-2.3101,-2.3101,-2.3101,-2.3101,-2.3222,-2.3637,-2.4414,-2.4628,-2.5221,-2.6171,-2.6431,-2.6842,-2.7896,-2.8136,-2.8597,-2.9365,-2.974,-2.9703,-2.9541,-2.8687,-2.7733,-2.6713,-2.6512,-2.6499,-2.6487,-2.6487,-2.6487,-2.6487,-2.6487,-2.6487,-2.6487,-2.6487,-2.6487,-2.6487,-2.6487,-2.6487,-2.6122,-2.5586,-2.5134,-2.4738,-2.3923,-2.3321,-2.3294,-2.3305,-2.3649,-2.4163,-2.4481,-2.5189,-2.6176,-2.6919,-2.7306,-2.7585,-2.7585,-2.7585,-2.7585,-2.7585,-2.7585,-2.7585,-2.7585,-2.7585,-2.8301,-2.8301,-2.8301,-2.8301,-2.8301,-2.8301,-2.8301,-2.8301,-2.8301,-2.8301,-2.8301,-2.8301,-2.8301,-2.8301,-2.8301,-2.8301,-2.8301,-2.8301,-2.8301,-2.8301,-2.8301,-2.7891,-2.7529,-2.7471,-2.7168,-2.667,-2.6553,-2.6387,-2.6357,-2.6152,-2.584,-2.5693,-2.5557,-2.5371,-2.5067,-2.4521,-2.4102,-2.3769,-2.3359,-2.3101,-2.3101,-2.3101,-2.3101,-2.3101,-2.3101,-2.3101,-2.3101,-2.3101,-2.3101,-2.3101,-2.3101,-2.3101,-2.3101,-2.3101,-2.3101,-2.3101,-2.3101,-2.3101,-2.3101,-2.3101,-2.3299,-2.3464,-2.3671,-2.4049,-2.5126,-2.5252,-2.5797,-2.6789,-2.7562,-2.8136,-2.8597,-2.9236,-2.9299,-2.8674,-2.8274,-2.7635,-2.6788,-2.6487,-2.6487,-2.6487,-2.6487,-2.6487,-2.6487,-2.6487,-2.6487,-2.6487,-2.6487,-2.6487,-2.6487,-2.6487,-2.6487,-2.6172,-2.5686,-2.5159,-2.4537,-2.3697,-2.3195,-2.3158,-2.3155,-2.3215,-2.3649,-2.4031,-2.5035,-2.6176,-2.6563,-2.6956,-2.7357,-2.7585,-2.7585,-2.7585,-2.7585,-2.7585,-2.7585,-2.7585,-2.7585,-2.8301,-2.8301,-2.8301,-2.8301,-2.8301,-2.8301,-2.8301,-2.8301,-2.8301,-2.8301,-2.8301,-2.8301,-2.8301,-2.8301,-2.8301,-2.8301,-2.8301,-2.8301,-2.8301,-2.8301,-2.8301,-2.793,-2.751,-2.7578,-2.7393,-2.7002,-2.6914,-2.6826,-2.666,-2.6387,-2.6054,-2.5742,-2.5684,-2.5538,-2.5352,-2.4717,-2.4316,-2.3994,-2.3486,-2.3101,-2.3101,-2.3101,-2.3101,-2.3101,-2.3101,-2.3101,-2.3101,-2.3101,-2.3101,-2.3101,-2.3101,-2.3101,-2.3101,-2.3101,-2.3101,-2.3101,-2.3101,-2.3101,-2.3101,-2.3101,-2.3101,-2.3091,-2.3101,-2.343,-2.393,-2.4082,-2.4553,-2.5672,-2.6356,-2.6889,-2.7452,-2.8039,-2.8378,-2.8437,-2.8052,-2.7434,-2.6581,-2.6487,-2.6487,-2.6487,-2.6487,-2.6487,-2.6487,-2.6487,-2.6487,-2.6487,-2.6487,-2.6487,-2.6487,-2.6487,-2.6449,-2.621,-2.5833,-2.5297,-2.4782,-2.3985,-2.3283,-2.3183,-2.3095,-2.3095,-2.3305,-2.3708,-2.4667,-2.5646,-2.6149,-2.6628,-2.7137,-2.7509,-2.7585,-2.7585,-2.7585,-2.7585,-2.7585,-2.7585,-2.7585,-2.8301,-2.8301,-2.8301,-2.8301,-2.8301,-2.8301,-2.8301,-2.8301,-2.8301,-2.8301,-2.8301,-2.8301,-2.8301,-2.8301,-2.8301,-2.8301,-2.8301,-2.8301,-2.8301,-2.8301,-2.8271,-2.8066,-2.7793,-2.7773,-2.7757,-2.7611,-2.7708,-2.7353,-2.7002,-2.6894,-2.6415,-2.5859,-2.5684,-2.5684,-2.544,-2.4853,-2.4463,-2.4219,-2.3491,-2.312,-2.3101,-2.3101,-2.3101,-2.3101,-2.3101,-2.3101,-2.3101,-2.3101,-2.3101,-2.3101,-2.3101,-2.3101,-2.3101,-2.3101,-2.3101,-2.3101,-2.3101,-2.3101,-2.3101,-2.3101,-2.3101,-2.3101,-2.3101,-2.3101,-2.3266,-2.3299,-2.3671,-2.4542,-2.4713,-2.5588,-2.6431,-2.6648,-2.7145,-2.7796,-2.7546,-2.7136,-2.6654,-2.6543,-2.6562,-2.6487,-2.6487,-2.6487,-2.6487,-2.6487,-2.6487,-2.6487,-2.6487,-2.6487,-2.6487,-2.6487,-2.6487,-2.6424,-2.5984,-2.5435,-2.4921,-2.4368,-2.3697,-2.3258,-2.3145,-2.3125,-2.3198,-2.3619,-2.4337,-2.5007,-2.537,-2.6135,-2.7074,-2.7331,-2.7408,-2.7585,-2.7585,-2.7585,-2.7585,-2.7585,-2.7585,-2.8301,-2.8301,-2.8301,-2.8301,-2.8301,-2.8301,-2.8301,-2.8301,-2.8301,-2.8301,-2.8301,-2.8301,-2.8301,-2.8301,-2.8301,-2.8301,-2.8301,-2.8301,-2.8301,-2.8301,-2.8301,-2.8262,-2.8144,-2.8125,-2.7969,-2.7836,-2.7738,-2.7432,-2.706,-2.6689,-2.6279,-2.5771,-2.5684,-2.5684,-2.5557,-2.4932,-2.4424,-2.4277,-2.3539,-2.314,-2.3101,-2.3101,-2.3101,-2.3101,-2.3101,-2.3101,-2.3101,-2.3101,-2.3101,-2.3101,-2.3101,-2.3101,-2.3101,-2.3101,-2.3101,-2.3101,-2.3101,-2.3101,-2.3101,-2.3101,-2.3101,-2.3101,-2.3101,-2.3101,-2.3101,-2.3101,-2.3222,-2.3637,-2.4253,-2.5126,-2.6141,-2.6442,-2.6493,-2.6593,-2.6945,-2.6996,-2.6696,-2.6866,-2.6882,-2.665,-2.6512,-2.6487,-2.6487,-2.6487,-2.6487,-2.6487,-2.6487,-2.6487,-2.6487,-2.6487,-2.6487,-2.6487,-2.6185,-2.5649,-2.5184,-2.4569,-2.3785,-2.3296,-2.3158,-2.3095,-2.3198,-2.3305,-2.393,-2.4279,-2.4551,-2.5508,-2.6695,-2.6904,-2.693,-2.724,-2.7585,-2.7585,-2.7585,-2.7585,-2.7585,-2.8301,-2.8301,-2.8301,-2.8301,-2.8301,-2.8301,-2.8301,-2.8301,-2.8301,-2.8301,-2.8301,-2.8301,-2.8301,-2.8301,-2.8301,-2.8301,-2.8301,-2.8301,-2.8301,-2.8301,-2.8301,-2.8301,-2.8301,-2.8291,-2.8154,-2.7939,-2.7744,-2.7432,-2.7012,-2.6602,-2.6182,-2.5723,-2.5684,-2.5684,-2.5615,-2.5049,-2.4639,-2.4346,-2.3799,-2.3315,-2.313,-2.3101,-2.3101,-2.3101,-2.3101,-2.3101,-2.3101,-2.3101,-2.3101,-2.3101,-2.3101,-2.3101,-2.3101,-2.3101,-2.3101,-2.3101,-2.3101,-2.3101,-2.3101,-2.3101,-2.3101,-2.3101,-2.3101,-2.3101,-2.3101,-2.3101,-2.3101,-2.3222,-2.3681,-2.4425,-2.5462,-2.5052,-2.5039,-2.5924,-2.6046,-2.6274,-2.6777,-2.714,-2.7205,-2.6876,-2.6663,-2.6549,-2.6487,-2.6487,-2.6487,-2.6487,-2.6487,-2.6487,-2.6487,-2.6487,-2.6487,-2.6436,-2.626,-2.5921,-2.5435,-2.4745,-2.3828,-2.3371,-2.3133,-2.3095,-2.3125,-2.3245,-2.3424,-2.3796,-2.4234,-2.5161,-2.6176,-2.6283,-2.6628,-2.7255,-2.7575,-2.76,-2.7585,-2.7585,-2.7585,-2.8301,-2.8301,-2.8301,-2.8301,-2.8301,-2.8301,-2.8301,-2.8301,-2.8301,-2.8301,-2.8301,-2.8301,-2.8301,-2.8301,-2.8301,-2.8301,-2.8301,-2.8301,-2.8301,-2.8301,-2.8301,-2.8301,-2.8301,-2.8291,-2.8271,-2.8252,-2.7978,-2.7578,-2.7148,-2.6689,-2.6348,-2.5869,-2.5693,-2.5693,-2.5586,-2.5205,-2.4795,-2.4531,-2.3906,-2.3525,-2.3291,-2.3169,-2.3101,-2.3101,-2.3101,-2.3101,-2.3101,-2.3101,-2.3101,-2.3101,-2.3101,-2.3101,-2.3101,-2.3101,-2.3101,-2.3101,-2.3101,-2.3101,-2.3101,-2.3101,-2.3101,-2.3101,-2.3101,-2.3101,-2.3101,-2.3101,-2.3101,-2.3101,-2.3343,-2.3594,-2.4339,-2.3973,-2.4307,-2.5189,-2.5115,-2.559,-2.6518,-2.6987,-2.6919,-2.7241,-2.6964,-2.6776,-2.6575,-2.6487,-2.6487,-2.6487,-2.6487,-2.6487,-2.6487,-2.6487,-2.6487,-2.6487,-2.6348,-2.582,-2.5297,-2.5008,-2.4079,-2.3371,-2.3095,-2.3095,-2.3095,-2.3155,-2.3335,-2.3649,-2.4221,-2.4951,-2.5398,-2.5563,-2.6135,-2.7086,-2.7423,-2.728,-2.7382,-2.756,-2.7585,-2.8301,-2.8301,-2.8301,-2.8291,-2.8291,-2.8301,-2.8237,-2.8301,-2.8237,-2.8291,-2.8271,-2.8291,-2.8262,-2.8271,-2.8291,-2.8291,-2.8232,-2.8223,-2.8242,-2.8252,-2.8271,-2.8301,-2.8301,-2.8301,-2.8301,-2.8281,-2.8125,-2.7861,-2.751,-2.7119,-2.6582,-2.626,-2.5849,-2.5693,-2.5469,-2.4972,-2.4814,-2.4736,-2.4033,-2.3594,-2.3535,-2.331,-2.3101,-2.3101,-2.3101,-2.3101,-2.3101,-2.3101,-2.3101,-2.3101,-2.3101,-2.3101,-2.3101,-2.3101,-2.3101,-2.3101,-2.3101,-2.3101,-2.3101,-2.3101,-2.3101,-2.3101,-2.3101,-2.3101,-2.3101,-2.3101,-2.3101,-2.3101,-2.3101,-2.3222,-2.3343,-2.3222,-2.3222,-2.381,-2.4414,-2.4872,-2.5297,-2.5766,-2.6315,-2.6883,-2.6924,-2.7014,-2.6801,-2.6587,-2.6487,-2.6487,-2.6487,-2.6487,-2.6487,-2.6487,-2.6487,-2.6487,-2.6474,-2.5762,-2.5071,-2.4883,-2.4368,-2.3446,-2.3095,-2.3095,-2.3095,-2.3095,-2.3275,-2.3501,-2.3619,-2.3972,-2.4394,-2.4809,-2.5494,-2.6375,-2.6654,-2.6919,-2.7152,-2.7382,-2.7585,-2.8301,-2.8301,-2.8301,-2.7843,-2.7394,-2.8004,-2.7843,-2.733,-2.795,-2.8164,-2.8018,-2.7969,-2.8022,-2.8022,-2.7969,-2.7969,-2.7988,-2.7969,-2.7969,-2.7988,-2.8174,-2.8301,-2.8291,-2.8291,-2.8301,-2.8223,-2.8076,-2.7891,-2.7607,-2.6973,-2.6631,-2.6348,-2.5898,-2.5684,-2.5625,-2.5333,-2.5068,-2.4932,-2.4443,-2.3955,-2.3779,-2.3369,-2.313,-2.3101,-2.3101,-2.3101,-2.3101,-2.3101,-2.3101,-2.3101,-2.3101,-2.3101,-2.3101,-2.3101,-2.3101,-2.3101,-2.3101,-2.3101,-2.3101,-2.3101,-2.3101,-2.3101,-2.3101,-2.3101,-2.3101,-2.3101,-2.3101,-2.3101,-2.3101,-2.3101,-2.3135,-2.3101,-2.3101,-2.3178,-2.3671,-2.4168,-2.466,-2.4975,-2.5636,-2.6285,-2.6209,-2.6408,-2.7014,-2.6788,-2.6562,-2.6487,-2.6487,-2.6487,-2.6487,-2.6487,-2.6487,-2.6487,-2.6436,-2.5812,-2.5146,-2.4845,-2.4374,-2.3534,-2.3095,-2.3095,-2.3095,-2.3095,-2.3095,-2.3215,-2.3275,-2.3395,-2.3943,-2.4553,-2.5147,-2.5646,-2.6095,-2.6537,-2.693,-2.7229,-2.7408,-2.8301,-2.8301,-2.8301,-2.7618,-2.6771,-2.7438,-2.7168,-2.6436,-2.6952,-2.7006,-2.6878,-2.6788,-2.6864,-2.7203,-2.749,-2.761,-2.7491,-2.7602,-2.7861,-2.7982,-2.8144,-2.8301,-2.8281,-2.8193,-2.8125,-2.8027,-2.7705,-2.763,-2.7552,-2.6846,-2.6455,-2.6269,-2.5957,-2.5684,-2.5645,-2.545,-2.5381,-2.5273,-2.4951,-2.4512,-2.3887,-2.3467,-2.3159,-2.3101,-2.3101,-2.3101,-2.3101,-2.3101,-2.3101,-2.3101,-2.3101,-2.3101,-2.3101,-2.3101,-2.3101,-2.3101,-2.3101,-2.3101,-2.3101,-2.3101,-2.3101,-2.3101,-2.3101,-2.3101,-2.3101,-2.3101,-2.3101,-2.3101,-2.3101,-2.3101,-2.3101,-2.3101,-2.3101,-2.3091,-2.3178,-2.3387,-2.4006,-2.4459,-2.4756,-2.5169,-2.5281,-2.5693,-2.6275,-2.7052,-2.6826,-2.6499,-2.6487,-2.6487,-2.6487,-2.6487,-2.6487,-2.6487,-2.6323,-2.5845,-2.5297,-2.4883,-2.4236,-2.3371,-2.312,-2.3095,-2.3095,-2.3095,-2.3095,-2.3095,-2.3125,-2.3305,-2.3826,-2.4089,-2.4266,-2.4711,-2.5536,-2.6176,-2.6602,-2.6956,-2.7178,-2.8301,-2.8301,-2.8301,-2.8184,-2.7789,-2.6879,-2.6318,-2.5909,-2.496,-2.4175,-2.4175,-2.4056,-2.4571,-2.5395,-2.6888,-2.6949,-2.6763,-2.7151,-2.7477,-2.7439,-2.7684,-2.7741,-2.8024,-2.7881,-2.7353,-2.707,-2.6914,-2.7353,-2.7079,-2.6447,-2.6396,-2.6299,-2.5986,-2.5684,-2.5654,-2.5488,-2.5332,-2.5449,-2.4912,-2.4307,-2.3896,-2.373,-2.3486,-2.3188,-2.3101,-2.3101,-2.3101,-2.3101,-2.3101,-2.3101,-2.3101,-2.3101,-2.3101,-2.3101,-2.3101,-2.3101,-2.3101,-2.3101,-2.3101,-2.3101,-2.3101,-2.3101,-2.3101,-2.3101,-2.3101,-2.3101,-2.3101,-2.3101,-2.3101,-2.3101,-2.3101,-2.3101,-2.3101,-2.3101,-2.3135,-2.3135,-2.3464,-2.379,-2.4108,-2.4472,-2.4713,-2.5015,-2.5459,-2.6384,-2.709,-2.6751,-2.6452,-2.6371,-2.6452,-2.6418,-2.6487,-2.6487,-2.6411,-2.5971,-2.5523,-2.5096,-2.4406,-2.3421,-2.3283,-2.3208,-2.3095,-2.3095,-2.3095,-2.3095,-2.3095,-2.3095,-2.3395,-2.3501,-2.3395,-2.3813,-2.4639,-2.5508,-2.6336,-2.6628,-2.693,-2.6726,-2.8291,-2.8301,-2.778,-2.6997,-2.6318,-2.5466,-2.4536,-2.3892,-2.3257,-2.2863,-2.278,-2.3058,-2.3678,-2.4535,-2.4553,-2.4425,-2.52,-2.5308,-2.5478,-2.564,-2.5631,-2.5255,-2.5263,-2.5245,-2.5115,-2.4618,-2.4232,-2.4793,-2.5904,-2.6377,-2.6249,-2.5918,-2.5684,-2.5684,-2.5499,-2.5576,-2.5508,-2.5117,-2.459,-2.4199,-2.3896,-2.3584,-2.313,-2.3101,-2.3101,-2.3101,-2.3101,-2.3101,-2.3101,-2.3101,-2.3101,-2.3101,-2.3101,-2.3101,-2.3101,-2.3101,-2.3101,-2.3101,-2.3101,-2.3101,-2.3101,-2.3101,-2.3101,-2.3101,-2.3101,-2.3101,-2.3101,-2.3101,-2.3101,-2.3101,-2.3101,-2.3101,-2.3101,-2.3101,-2.3101,-2.3091,-2.3135,-2.3434,-2.3786,-2.4155,-2.4384,-2.4526,-2.4922,-2.551,-2.5433,-2.5183,-2.5134,-2.5616,-2.6211,-2.6314,-2.6487,-2.6386,-2.6185,-2.5749,-2.5335,-2.4795,-2.4042,-2.3753,-2.3602,-2.3183,-2.3095,-2.3183,-2.3158,-2.3108,-2.3108,-2.3108,-2.3125,-2.3215,-2.3484,-2.3738,-2.4639,-2.5536,-2.639,-2.6762,-2.4935,-2.694,-2.7093,-2.6554,-2.5472,-2.5046,-2.4141,-2.3002,-2.2356,-2.1923,-2.165,-2.1573,-2.1606,-2.1711,-2.2286,-2.2856,-2.2409,-2.2961,-2.2984,-2.3062,-2.3161,-2.3403,-2.3454,-2.3285,-2.3168,-2.2706,-2.2764,-2.2578,-2.3023,-2.3913,-2.503,-2.5695,-2.5172,-2.5391,-2.5635,-2.5654,-2.5664,-2.5635,-2.541,-2.4941,-2.4453,-2.4111,-2.3672,-2.3276,-2.3101,-2.3101,-2.3101,-2.3101,-2.3101,-2.3101,-2.3101,-2.3101,-2.3101,-2.3101,-2.3101,-2.3101,-2.3101,-2.3101,-2.3101,-2.3101,-2.3101,-2.3101,-2.3101,-2.3101,-2.3101,-2.3101,-2.3101,-2.3101,-2.3101,-2.3101,-2.3101,-2.3101,-2.3101,-2.3101,-2.3101,-2.3101,-2.3101,-2.3135,-2.3135,-2.34,-2.3629,-2.358,-2.3636,-2.3541,-2.371,-2.3962,-2.3928,-2.39,-2.4516,-2.5394,-2.5687,-2.5756,-2.5824,-2.579,-2.5778,-2.5365,-2.4908,-2.4619,-2.4343,-2.4117,-2.3785,-2.3509,-2.3502,-2.3371,-2.3246,-2.3108,-2.3095,-2.3095,-2.3125,-2.3305,-2.3531,-2.3914,-2.4681,-2.5646,-2.6659,-2.309,-2.33,-2.3871,-2.4067,-2.3875,-2.2126,-2.16,-2.1627,-2.0026,-1.9451,-1.9486,-1.9841,-1.9721,-1.9642,-2.1079,-2.1735,-2.1231,-2.2723,-2.2573,-2.2548,-2.2897,-2.2478,-2.2201,-2.1978,-2.2074,-2.1944,-2.1374,-2.1315,-2.1615,-2.1536,-2.2813,-2.366,-2.3777,-2.4627,-2.502,-2.4971,-2.5069,-2.5069,-2.4955,-2.4813,-2.4359,-2.4074,-2.38,-2.3266,-2.3101,-2.3101,-2.3101,-2.3101,-2.3101,-2.3101,-2.3101,-2.3101,-2.3101,-2.3101,-2.3101,-2.3101,-2.3101,-2.3101,-2.3101,-2.3101,-2.3101,-2.3101,-2.3101,-2.3101,-2.3101,-2.3101,-2.3101,-2.3101,-2.3101,-2.3101,-2.3101,-2.3101,-2.3101,-2.3101,-2.3101,-2.3101,-2.3101,-2.3091,-2.3101,-2.3144,-2.3162,-2.3162,-2.2868,-2.2788,-2.2743,-2.2952,-2.3251,-2.3257,-2.3441,-2.4145,-2.4516,-2.4779,-2.4957,-2.5188,-2.5585,-2.5328,-2.5083,-2.4978,-2.482,-2.4707,-2.4537,-2.4305,-2.3929,-2.3753,-2.3609,-2.3346,-2.3145,-2.3258,-2.3283,-2.3158,-2.3356,-2.3936,-2.4553,-2.5517,-2.6486,-2.0194,-2.023,-2.0416,-2.1594,-2.3099,-2.155,-2.0803,-2.0547,-1.9265,-1.8544,-1.8384,-1.8493,-1.8445,-1.8625,-1.8972,-1.9758,-1.9535,-2.0005,-2.0226,-2.0077,-2.0047,-1.9991,-1.9769,-1.9819,-1.9524,-1.9545,-1.9316,-1.9161,-1.9072,-1.9472,-2.0033,-2.0947,-2.1963,-2.2617,-2.3126,-2.3534,-2.3434,-2.3375,-2.3372,-2.3139,-2.3316,-2.3177,-2.3164,-2.3188,-2.3101,-2.3101,-2.3101,-2.3101,-2.3101,-2.3047,-2.3003,-2.3003,-2.3047,-2.3047,-2.3101,-2.3101,-2.3101,-2.3101,-2.3101,-2.3101,-2.3101,-2.3101,-2.3101,-2.3101,-2.3101,-2.3101,-2.3101,-2.3101,-2.3101,-2.3101,-2.3101,-2.3101,-2.3101,-2.3101,-2.3101,-2.3101,-2.3101,-2.3101,-2.3101,-2.3101,-2.2964,-2.2889,-2.2477,-2.2077,-2.203,-2.2043,-2.2349,-2.2601,-2.2702,-2.2925,-2.3415,-2.3781,-2.4,-2.4516,-2.4938,-2.5095,-2.523,-2.5231,-2.5244,-2.5234,-2.5134,-2.4782,-2.4456,-2.4243,-2.4017,-2.3772,-2.3634,-2.3572,-2.3514,-2.3333,-2.3662,-2.418,-2.4839,-2.5511,-2.6246,-1.8217,-1.8223,-1.8217,-1.9548,-2.1426,-2.055,-2.0077,-1.9859,-1.9064,-1.845,-1.8102,-1.7876,-1.7836,-1.7949,-1.8056,-1.8245,-1.8481,-1.8543,-1.8258,-1.8279,-1.8279,-1.7936,-1.7796,-1.7835,-1.8187,-1.7609,-1.7589,-1.774,-1.7891,-1.7635,-1.8304,-1.9213,-1.9973,-2.0684,-2.1845,-2.1693,-2.1693,-2.1693,-2.1745,-2.1636,-2.1952,-2.1851,-2.1742,-2.1913,-2.1774,-2.1765,-2.173,-2.1686,-2.1721,-2.1908,-2.2173,-2.2492,-2.2677,-2.2862,-2.3047,-2.3091,-2.3091,-2.3091,-2.3101,-2.3101,-2.3101,-2.3101,-2.3101,-2.3101,-2.3101,-2.3101,-2.3101,-2.3101,-2.3101,-2.3101,-2.3101,-2.3101,-2.3101,-2.3101,-2.3101,-2.3101,-2.3101,-2.3101,-2.3101,-2.3091,-2.2955,-2.2838,-2.2373,-2.1924,-2.1538,-2.1431,-2.1433,-2.1603,-2.1642,-2.1973,-2.2414,-2.275,-2.2999,-2.3661,-2.4302,-2.4685,-2.5069,-2.5322,-2.5385,-2.5703,-2.5573,-2.5259,-2.485,-2.4525,-2.4324,-2.4199,-2.4098,-2.4029,-2.3791,-2.3509,-2.3959,-2.45,-2.5135,-2.5755,-2.6,-1.7629,-1.7602,-1.7629,-1.8218,-1.9137,-1.8702,-1.8899,-1.9312,-1.8991,-1.8651,-1.8357,-1.8029,-1.7935,-1.7975,-1.7955,-1.7982,-1.8029,-1.8015,-1.7916,-1.7749,-1.7742,-1.7629,-1.7615,-1.7629,-1.7662,-1.7609,-1.7589,-1.7589,-1.7589,-1.7589,-1.7793,-1.7786,-1.8454,-1.9213,-2.1389,-2.1643,-2.1643,-2.1592,-2.1389,-2.0989,-2.076,-2.0644,-2.0454,-2.036,-2.0272,-2.0371,-2.0322,-2.0314,-2.0359,-2.0404,-2.0989,-2.1302,-2.1391,-2.2173,-2.2589,-2.2862,-2.2916,-2.3003,-2.3101,-2.3101,-2.3101,-2.3101,-2.3101,-2.3101,-2.3101,-2.3101,-2.3101,-2.3101,-2.3101,-2.3101,-2.3101,-2.3101,-2.3101,-2.3101,-2.3101,-2.3101,-2.3101,-2.3101,-2.3101,-2.3101,-2.3052,-2.2896,-2.236,-2.1865,-2.125,-2.0938,-2.0693,-2.0683,-2.0867,-2.1088,-2.1642,-2.1783,-2.2075,-2.2627,-2.3368,-2.4373,-2.4909,-2.5204,-2.5564,-2.5934,-2.6059,-2.5812,-2.541,-2.4901,-2.4883,-2.4946,-2.4695,-2.4431,-2.4343,-2.4305,-2.4387,-2.4874,-2.5501,-2.5919,-2.6085,-1.7589,-1.7589,-1.7589,-1.7869,-1.8242,-1.8189,-1.833,-1.8457,-1.8322,-1.8283,-1.815,-1.7876,-1.7822,-1.7882,-1.7856,-1.7856,-1.7929,-1.7776,-1.7622,-1.7609,-1.7589,-1.7589,-1.7589,-1.7589,-1.7589,-1.7589,-1.7589,-1.7589,-1.7589,-1.7589,-1.7589,-1.7589,-1.7635,-1.8042,-1.8753,-1.9005,-1.8961,-1.8961,-1.8977,-1.9052,-1.9472,-1.9514,-1.9562,-1.9589,-1.9556,-1.9442,-1.9279,-1.9225,-1.9209,-1.9231,-1.9898,-2.0079,-2.0124,-2.0809,-2.1168,-2.1667,-2.1943,-2.2359,-2.2818,-2.3101,-2.3101,-2.3101,-2.3101,-2.3101,-2.3101,-2.3101,-2.3101,-2.3101,-2.3101,-2.3101,-2.3101,-2.3101,-2.3101,-2.3101,-2.3101,-2.3101,-2.3101,-2.3101,-2.3101,-2.3101,-2.3071,-2.2896,-2.2529,-2.2158,-2.1592,-2.1162,-2.0986,-2.0713,-2.0731,-2.0722,-2.0982,-2.0972,-2.1193,-2.1707,-2.2366,-2.3368,-2.4337,-2.4838,-2.5522,-2.6261,-2.6311,-2.621,-2.585,-2.5335,-2.5523,-2.572,-2.5297,-2.5034,-2.5146,-2.5209,-2.5184,-2.5347,-2.5937,-2.6077,-2.6007,-1.7589,-1.7589,-1.7589,-1.7695,-1.7836,-1.7942,-1.8042,-1.8163,-1.8042,-1.7989,-1.7929,-1.7729,-1.7682,-1.7782,-1.7716,-1.7649,-1.7856,-1.7695,-1.7589,-1.7589,-1.7589,-1.7589,-1.7589,-1.7589,-1.7589,-1.7589,-1.7589,-1.7589,-1.7589,-1.7589,-1.7589,-1.7589,-1.7589,-1.774,-1.7838,-1.7838,-1.7845,-1.7891,-1.8014,-1.8047,-1.8229,-1.8283,-1.8357,-1.8491,-1.8527,-1.847,-1.841,-1.8373,-1.8373,-1.8404,-1.8634,-1.8864,-1.8956,-1.9351,-1.9807,-2.0486,-2.1203,-2.1845,-2.2765,-2.3101,-2.3101,-2.3101,-2.3101,-2.3101,-2.3101,-2.3101,-2.3101,-2.3101,-2.3101,-2.3101,-2.3101,-2.3101,-2.3101,-2.3101,-2.3101,-2.3101,-2.3101,-2.3101,-2.3101,-2.3101,-2.3071,-2.2867,-2.2744,-2.2412,-2.2012,-2.167,-2.1348,-2.1045,-2.0713,-2.0674,-2.0644,-2.0605,-2.0644,-2.1088,-2.1631,-2.2339,-2.3342,-2.4301,-2.5217,-2.6094,-2.6474,-2.6348,-2.6059,-2.5858,-2.5971,-2.5996,-2.5762,-2.5636,-2.5737,-2.5762,-2.5737,-2.6021,-2.6436,-2.6324,-2.6125,-1.7589,-1.7589,-1.7589,-1.7589,-1.7642,-1.7889,-1.817,-1.8424,-1.817,-1.7982,-1.7935,-1.7689,-1.7622,-1.7602,-1.7589,-1.7602,-1.7629,-1.7595,-1.7589,-1.7589,-1.7589,-1.7589,-1.7589,-1.7589,-1.7589,-1.7589,-1.7602,-1.7622,-1.7609,-1.7675,-1.7669,-1.7589,-1.7589,-1.7589,-1.7589,-1.7589,-1.7589,-1.7589,-1.7621,-1.7612,-1.7674,-1.732,-1.7335,-1.7428,-1.7225,-1.7037,-1.6912,-1.6808,-1.6519,-1.6632,-1.703,-1.7451,-1.8002,-1.8718,-1.9177,-1.9761,-2.0531,-2.1578,-2.2306,-2.2457,-2.2818,-2.2731,-2.3047,-2.3047,-2.3101,-2.3101,-2.3101,-2.3101,-2.3101,-2.3101,-2.3101,-2.3101,-2.3101,-2.3101,-2.3101,-2.3101,-2.3101,-2.3101,-2.3101,-2.3101,-2.3101,-2.3003,-2.2945,-2.2682,-2.2412,-2.2168,-2.1826,-2.1484,-2.1143,-2.0781,-2.0723,-2.0615,-2.0605,-2.0605,-2.1126,-2.1794,-2.2403,-2.3404,-2.46,-2.5511,-2.5943,-2.6358,-2.626,-2.6147,-2.6298,-2.6273,-2.6097,-2.6147,-2.6323,-2.6298,-2.6147,-2.6223,-2.6487,-2.6487,-2.6312,-1.7589,-1.7589,-1.7589,-1.7589,-1.7595,-1.7682,-1.7896,-1.8075,-1.8009,-1.7889,-1.7709,-1.7629,-1.7589,-1.7589,-1.7589,-1.7589,-1.7589,-1.7589,-1.7589,-1.7589,-1.7589,-1.7589,-1.7589,-1.7589,-1.7589,-1.7589,-1.7609,-1.7675,-1.7849,-1.7883,-1.7729,-1.7615,-1.7589,-1.7589,-1.7589,-1.7589,-1.7589,-1.7589,-1.7589,-1.7568,-1.7494,-1.7281,-1.7154,-1.7052,-1.686,-1.6697,-1.6435,-1.6286,-1.6112,-1.6075,-1.6157,-1.6386,-1.6433,-1.6749,-1.707,-1.8272,-1.9268,-2.0223,-2.0584,-2.1346,-2.18,-2.2041,-2.2457,-2.3047,-2.3101,-2.3003,-2.3003,-2.3101,-2.3101,-2.3101,-2.3101,-2.3101,-2.3101,-2.3101,-2.3101,-2.3101,-2.3101,-2.3101,-2.3101,-2.3101,-2.3101,-2.3091,-2.3052,-2.3003,-2.2721,-2.2578,-2.2324,-2.1982,-2.1611,-2.125,-2.1006,-2.0899,-2.0684,-2.0723,-2.0916,-2.1482,-2.1897,-2.2553,-2.3708,-2.4707,-2.5217,-2.5662,-2.6133,-2.6352,-2.6308,-2.638,-2.6424,-2.6487,-2.6487,-2.6487,-2.6373,-2.6436,-2.6487,-2.6487,-2.6487,-1.7534,-1.7575,-1.7589,-1.7589,-1.7589,-1.7589,-1.7702,-1.7849,-1.7862,-1.7742,-1.7602,-1.7589,-1.7589,-1.7589,-1.7589,-1.7589,-1.7589,-1.7589,-1.7589,-1.7589,-1.7589,-1.7589,-1.7589,-1.7589,-1.7589,-1.7589,-1.7602,-1.7649,-1.7842,-1.7856,-1.7716,-1.7609,-1.7589,-1.7589,-1.7589,-1.7589,-1.7589,-1.7589,-1.7589,-1.7589,-1.7555,-1.7495,-1.74,-1.7353,-1.7219,-1.6767,-1.648,-1.6366,-1.6112,-1.5879,-1.5832,-1.5825,-1.5825,-1.592,-1.648,-1.7638,-1.8319,-1.9131,-1.9724,-2.0215,-2.0486,-2.0764,-2.1311,-2.1445,-2.2085,-2.2271,-2.2731,-2.3101,-2.3101,-2.3101,-2.3101,-2.3101,-2.3101,-2.3101,-2.3101,-2.3101,-2.3101,-2.3101,-2.3101,-2.3101,-2.3101,-2.3101,-2.3091,-2.3101,-2.3062,-2.2867,-2.2734,-2.251,-2.2129,-2.1728,-2.1514,-2.1398,-2.1084,-2.0908,-2.1124,-2.1217,-2.1499,-2.1962,-2.2627,-2.3562,-2.4301,-2.4767,-2.5087,-2.5638,-2.622,-2.6302,-2.6452,-2.6487,-2.6487,-2.6487,-2.6487,-2.6487,-2.6487,-2.6487,-2.6487,-1.732,-1.7502,-1.7535,-1.7555,-1.7589,-1.7589,-1.7595,-1.7589,-1.7609,-1.7589,-1.7589,-1.7589,-1.7589,-1.7589,-1.7589,-1.7589,-1.7589,-1.7589,-1.7589,-1.7589,-1.7589,-1.7589,-1.7589,-1.7589,-1.7589,-1.7589,-1.7595,-1.7615,-1.7602,-1.7682,-1.7742,-1.7595,-1.7589,-1.7589,-1.7589,-1.7589,-1.7589,-1.7589,-1.7589,-1.7582,-1.7574,-1.7447,-1.734,-1.7474,-1.7134,-1.6727,-1.6627,-1.642,-1.6132,-1.5939,-1.5825,-1.5825,-1.5825,-1.5825,-1.6527,-1.6943,-1.7404,-1.7855,-1.8495,-1.9039,-1.9268,-1.9405,-1.9497,-1.9906,-2.0674,-2.1311,-2.1819,-2.1952,-2.1863,-2.1819,-2.1819,-2.2271,-2.2448,-2.2677,-2.2818,-2.296,-2.3101,-2.3101,-2.3101,-2.3101,-2.3101,-2.3101,-2.3101,-2.3101,-2.3101,-2.3042,-2.2974,-2.2861,-2.2646,-2.2236,-2.1973,-2.1828,-2.1367,-2.1084,-2.1026,-2.1144,-2.1138,-2.1527,-2.2,-2.2478,-2.3294,-2.3661,-2.3927,-2.4803,-2.5756,-2.6198,-2.6383,-2.6452,-2.6487,-2.6487,-2.6487,-2.6487,-2.6487,-2.6487,-2.6487,-1.6854,-1.6941,-1.7206,-1.7427,-1.7569,-1.7589,-1.7582,-1.7589,-1.7589,-1.7569,-1.7582,-1.7575,-1.7569,-1.7601,-1.7575,-1.7589,-1.7589,-1.7589,-1.7589,-1.7589,-1.7589,-1.7589,-1.7589,-1.7589,-1.7589,-1.7589,-1.7589,-1.7589,-1.7609,-1.7722,-1.7776,-1.7609,-1.7589,-1.7589,-1.7589,-1.7589,-1.7589,-1.7589,-1.7589,-1.7589,-1.7555,-1.7555,-1.7581,-1.7475,-1.7194,-1.6881,-1.67,-1.6406,-1.6126,-1.5892,-1.5838,-1.5825,-1.5825,-1.5825,-1.5967,-1.6204,-1.6393,-1.6709,-1.7077,-1.7716,-1.8087,-1.8449,-1.8718,-1.9268,-1.9724,-2.0133,-2.0359,-2.0404,-2.0494,-2.0539,-2.0719,-2.1311,-2.1756,-2.2085,-2.2403,-2.2677,-2.296,-2.3047,-2.3047,-2.3101,-2.3101,-2.3101,-2.3101,-2.3101,-2.3101,-2.3091,-2.3081,-2.3013,-2.2994,-2.2754,-2.2383,-2.21,-2.1533,-2.121,-2.1191,-2.1036,-2.1065,-2.1146,-2.1555,-2.1962,-2.2328,-2.2888,-2.3441,-2.4445,-2.5252,-2.5804,-2.6233,-2.6452,-2.6487,-2.6487,-2.6487,-2.6487,-2.6487,-2.6487,-2.6487,-1.6587,-1.6727,-1.6881,-1.7179,-1.7414,-1.744,-1.744,-1.744,-1.7447,-1.7315,-1.7261,-1.7428,-1.7568,-1.7514,-1.7568,-1.7589,-1.7589,-1.7589,-1.7589,-1.7589,-1.7589,-1.7589,-1.7589,-1.7589,-1.7589,-1.7589,-1.7589,-1.7595,-1.7615,-1.7669,-1.7682,-1.7602,-1.7589,-1.7589,-1.7589,-1.7589,-1.7589,-1.7589,-1.7589,-1.7589,-1.7589,-1.7589,-1.7589,-1.7495,-1.7208,-1.6921,-1.664,-1.6339,-1.6032,-1.5872,-1.5832,-1.5825,-1.5825,-1.5825,-1.5825,-1.5872,-1.5872,-1.5825,-1.6062,-1.6433,-1.6943,-1.7304,-1.7343,-1.7615,-1.7529,-1.794,-1.894,-1.9077,-1.9815,-1.9951,-1.9943,-2.0395,-2.0494,-2.0674,-2.0944,-2.1177,-2.1996,-2.2677,-2.2862,-2.3101,-2.3101,-2.3101,-2.3101,-2.3101,-2.3101,-2.3101,-2.3101,-2.3101,-2.3101,-2.3101,-2.276,-2.2457,-2.1941,-2.1631,-2.1562,-2.126,-2.0958,-2.1064,-2.1265,-2.131,-2.1637,-2.2322,-2.3073,-2.402,-2.4909,-2.5581,-2.5978,-2.6349,-2.6487,-2.6487,-2.6487,-2.6487,-2.6487,-2.6487,-2.6487,-1.6386,-1.6633,-1.6647,-1.682,-1.7119,-1.7146,-1.7146,-1.7146,-1.7146,-1.6934,-1.678,-1.7268,-1.738,-1.7373,-1.7494,-1.7581,-1.7589,-1.7589,-1.7589,-1.7589,-1.7589,-1.7589,-1.7589,-1.7589,-1.7589,-1.7589,-1.7589,-1.7589,-1.7595,-1.7635,-1.7635,-1.7595,-1.7589,-1.7589,-1.7589,-1.7589,-1.7589,-1.7589,-1.7589,-1.7589,-1.7589,-1.7589,-1.7589,-1.7388,-1.7094,-1.6794,-1.6587,-1.6333,-1.6005,-1.5818,-1.5865,-1.5825,-1.5825,-1.5825,-1.5825,-1.5825,-1.5825,-1.5825,-1.5872,-1.592,-1.6015,-1.5967,-1.5825,-1.5872,-1.592,-1.6426,-1.7429,-1.7979,-1.8672,-1.8948,-1.894,-1.9222,-1.9222,-1.9405,-1.9588,-2.0079,-2.1221,-2.2262,-2.2589,-2.2916,-2.3101,-2.3101,-2.3101,-2.3101,-2.3101,-2.3101,-2.3101,-2.3101,-2.3101,-2.3101,-2.2945,-2.2808,-2.2555,-2.2295,-2.2021,-2.1621,-2.1201,-2.1222,-2.1362,-2.0997,-2.0967,-2.1727,-2.2588,-2.362,-2.4451,-2.5123,-2.5873,-2.6418,-2.6487,-2.6487,-2.6487,-2.6487,-2.6487,-2.6487,-2.6487,-1.6086,-1.6359,-1.6402,-1.652,-1.6767,-1.6787,-1.6787,-1.6794,-1.6787,-1.662,-1.6573,-1.6985,-1.7233,-1.7219,-1.7455,-1.7582,-1.7589,-1.7589,-1.7589,-1.7589,-1.7589,-1.7589,-1.7589,-1.7589,-1.7589,-1.7589,-1.7589,-1.7589,-1.7589,-1.7589,-1.7589,-1.7589,-1.7589,-1.7589,-1.7589,-1.7589,-1.7589,-1.7589,-1.7589,-1.7589,-1.7589,-1.7589,-1.7589,-1.7487,-1.7306,-1.7166,-1.6961,-1.672,-1.644,-1.6199,-1.5965,-1.5858,-1.5825,-1.5825,-1.5825,-1.5825,-1.5825,-1.5825,-1.5825,-1.5825,-1.5825,-1.5825,-1.5825,-1.5825,-1.5872,-1.5872,-1.6466,-1.6466,-1.6929,-1.6929,-1.707,-1.7762,-1.8041,-1.8365,-1.8634,-1.9807,-2.098,-2.1578,-2.2041,-2.2589,-2.3101,-2.3101,-2.3101,-2.3101,-2.3101,-2.3101,-2.3101,-2.3101,-2.3101,-2.3101,-2.3101,-2.3033,-2.2964,-2.276,-2.2409,-2.2051,-2.1699,-2.1631,-2.1553,-2.1417,-2.131,-2.1211,-2.2073,-2.3232,-2.3934,-2.4514,-2.5324,-2.6302,-2.6487,-2.6487,-2.6487,-2.6487,-2.6487,-2.6524,-2.6549]}]]